Date StartTime U_cm/s V_cm/s W_cm/s Ustd_cm/s Vstd_cm/s Wstd_cm/s Uvar_(cm/s)^2 Vvar_(cm/s)^2 Wvar_(cm/s)^2 KE_(m/s)^2 TurbulentKE_(m/s)^2 HorizWindSpeed_cm/s FrictionSpeec_cm/s DragCoef SpeedOfSound_m/s SonicTemperature_C Pressure_mb 
07/19/2014  00:00:00     -120.338       61.003       -4.062       48.438       36.327       27.945     2346.206     1319.648      780.940        1.133        0.222      134.917       18.902        0.020      347.799       27.029      861.310
07/19/2014  00:01:00     -110.493      -12.131      -21.673       59.915       49.286       24.437     3589.759     2429.085      597.186        0.972        0.331      111.157       22.897        0.042      347.896       27.198      861.303
07/19/2014  00:02:00      -98.729      -38.218       -2.461       70.973       42.493       31.753     5037.199     1805.665     1008.221        0.953        0.393      105.869       31.906        0.091      347.827       27.078      861.301
07/19/2014  00:03:00     -145.427      -17.755        4.633       68.656       44.351       32.662     4713.707     1967.017     1066.777        1.462        0.387      146.507       34.993        0.057      347.920       27.237      861.305
07/19/2014  00:04:00      -89.050      -37.642        6.395       58.320       46.766       24.030     3401.186     2187.064      577.449        0.778        0.308       96.679       28.336        0.086      347.845       27.108      861.306
07/19/2014  00:05:00     -136.323      -63.195        0.156       49.150       43.433       26.813     2415.747     1886.430      718.948        1.380        0.251      150.258       28.906        0.037      347.845       27.109      861.299
07/19/2014  00:06:00     -137.595      -60.377       -0.426       52.993       38.458       27.631     2808.268     1479.014      763.471        1.381        0.253      150.259       23.836        0.025      347.831       27.085      861.285
07/19/2014  00:07:00      -73.214      -66.406        0.860       52.247       35.443       25.211     2729.725     1256.238      635.576        0.720        0.231       98.844       28.212        0.081      347.851       27.120      861.273
07/19/2014  00:08:00     -103.711      -85.252        1.183       74.527       46.822       35.160     5554.205     2192.344     1236.221        1.350        0.449      134.253       40.365        0.090      347.925       27.247      861.275
07/19/2014  00:09:00      -93.468      -63.233       -0.645       66.146       57.081       31.955     4375.292     3258.286     1021.106        1.069        0.433      112.848       32.910        0.085      347.985       27.351      861.303
07/19/2014  00:10:00      -75.614      -60.535        1.811       47.177       44.527       22.101     2225.669     1982.617      488.449        0.704        0.235       96.860       27.457        0.080      347.984       27.349      861.318
07/19/2014  00:11:00      -48.192       14.302        3.397       35.447       21.966       16.074     1256.504      482.495      258.380        0.227        0.100       50.269       17.757        0.125      347.823       27.072      861.328
07/19/2014  00:12:00      -19.944       59.860       11.388       22.887       39.188       19.607      523.808     1535.727      384.439        0.328        0.122       63.095       14.534        0.053      347.725       26.901      861.321
07/19/2014  00:13:00      -27.385       27.162        1.922       18.932       27.250       16.780      358.427      742.580      281.553        0.144        0.069       38.571       14.810        0.147      347.894       27.194      861.323
07/19/2014  00:14:00      -31.193       31.738        5.667       26.503       20.655       16.939      702.422      426.630      286.925        0.171        0.071       44.501       16.054        0.130      347.795       27.024      861.317
07/19/2014  00:15:00      -35.351       24.413        9.499       29.770       34.542       17.038      886.241     1193.136      290.283        0.215        0.118       42.962       16.092        0.140      347.843       27.106      861.330
07/19/2014  00:16:00      -45.556       24.720       -3.933       38.937       26.266       13.037     1516.120      689.924      169.971        0.254        0.119       51.831       19.021        0.135      347.803       27.038      861.342
07/19/2014  00:17:00      -93.322      -16.516       -5.709       31.069       26.070       19.128      965.271      679.655      365.885        0.551        0.101       94.772       15.655        0.027      347.824       27.073      861.339
07/19/2014  00:18:00     -113.814      -31.020       -4.585       53.602       44.422       33.184     2873.179     1973.329     1101.178        0.994        0.297      117.965       36.326        0.095      347.940       27.274      861.318
07/19/2014  00:19:00     -126.840      -33.975        1.217       41.504       39.654       21.504     1722.589     1572.474      462.402        1.050        0.188      131.312       10.913        0.007      347.906       27.214      861.291
07/19/2014  00:20:00     -145.122      -58.731       -3.090       65.953       38.043       25.067     4349.757     1447.253      628.331        1.547        0.321      156.556       29.312        0.035      347.899       27.202      861.276
07/19/2014  00:21:00     -118.848      -74.864        3.258       56.957       42.786       30.119     3244.099     1830.668      907.154        1.286        0.299      140.462       25.423        0.033      347.864       27.142      861.261
07/19/2014  00:22:00      -72.472      -56.628        7.460       48.013       34.511       23.252     2305.232     1191.020      540.637        0.627        0.202       91.972       21.388        0.054      347.822       27.069      861.246
07/19/2014  00:23:00     -119.638      -79.832       -0.586       55.073       34.997       25.330     3033.032     1224.815      641.626        1.279        0.245      143.828       19.452        0.018      347.897       27.200      861.240
07/19/2014  00:24:00     -113.412      -80.198        7.962       51.787       51.131       38.571     2681.939     2614.397     1487.756        1.307        0.339      138.904       32.997        0.056      347.881       27.171      861.228
07/19/2014  00:25:00     -115.200      -49.171       -0.981       36.619       37.069       28.560     1340.976     1374.103      815.689        0.961        0.177      125.255       23.265        0.034      347.870       27.152      861.224
07/19/2014  00:26:00      -94.163      -38.094       -2.625       47.180       37.483       24.320     2225.954     1405.012      591.468        0.727        0.211      101.577       21.597        0.045      347.802       27.035      861.224
07/19/2014  00:27:00     -100.863      -41.912       -1.702       35.735       26.736       19.736     1276.992      714.812      389.518        0.716        0.119      109.224       19.071        0.030      347.807       27.044      861.221
07/19/2014  00:28:00     -116.467      -26.382       -7.496       34.080       25.826       15.433     1161.441      666.972      238.185        0.819        0.103      119.418       13.942        0.014      347.894       27.192      861.226
07/19/2014  00:29:00      -87.635      -17.186       -0.619       36.360       30.421       19.473     1322.064      925.449      379.182        0.530        0.131       89.304       19.884        0.050      347.851       27.120      861.238
07/19/2014  00:30:00      -43.137      -10.951        2.034       39.510       22.527       21.765     1561.041      507.475      473.720        0.226        0.127       44.505       22.027        0.245      347.756       26.956      861.265
07/19/2014  00:31:00      -37.342      -36.237        8.387       25.898       33.029       20.378      670.685     1090.885      415.256        0.248        0.109       52.034       16.323        0.098      347.783       27.001      861.260
07/19/2014  00:32:00      -31.469      -25.150       -2.312       32.789       25.086       27.178     1075.147      629.282      738.636        0.204        0.122       40.284       22.124        0.302      347.885       27.179      861.257
07/19/2014  00:33:00       11.344      -46.890        9.291       16.395       32.618       16.365      268.787     1063.957      267.824        0.201        0.080       48.242       16.987        0.124      347.551       26.602      861.265
07/19/2014  00:34:00       -5.471      -53.473       -1.566       13.895       17.986       14.296      193.074      323.504      204.368        0.181        0.036       53.752        8.537        0.025      347.773       26.986      861.277
07/19/2014  00:35:00       12.197        4.284       13.122       20.912       22.185       16.601      437.311      492.189      275.603        0.077        0.060       12.928       15.956        1.523      347.338       26.234      861.292
07/19/2014  00:36:00       28.603       10.533       16.647       22.744       15.195       15.665      517.304      230.902      245.395        0.110        0.050       30.480       12.392        0.165      347.139       25.894      861.309
07/19/2014  00:37:00       39.735       31.186       18.899       24.576       19.597       15.511      603.982      384.055      240.582        0.207        0.061       50.512        6.258        0.015      347.194       25.989      861.313
07/19/2014  00:38:00       30.657       -3.791       11.961       19.127       24.529       14.827      365.842      601.657      219.836        0.114        0.059       30.891       11.941        0.149      347.342       26.241      861.316
07/19/2014  00:39:00       65.567      -15.530       10.828       22.459       20.007       21.858      504.418      400.265      477.757        0.302        0.069       67.381       16.764        0.062      347.325       26.212      861.315
07/19/2014  00:40:00       98.790        6.631       28.648       48.697       40.432       31.092     2371.363     1634.782      966.710        0.780        0.249       99.013       27.382        0.076      347.203       26.001      861.309
07/19/2014  00:41:00        8.921       39.860       45.993       24.861       28.763       18.416      618.094      827.286      339.149        0.278        0.089       40.846       12.279        0.090      347.114       25.850      861.327
07/19/2014  00:42:00       43.663       22.629       13.437       38.001       24.968       17.707     1444.077      623.385      313.544        0.249        0.119       49.178       17.569        0.128      347.193       25.985      861.345
07/19/2014  00:43:00       54.840       31.649        8.776       28.523       29.809       14.685      813.585      888.568      215.641        0.300        0.096       63.318        3.192        0.003      347.095       25.814      861.346
07/19/2014  00:44:00       32.900       34.990        2.764       24.589       20.037       17.572      604.606      401.486      308.761        0.181        0.066       48.028       13.055        0.074      347.059       25.754      861.348
07/19/2014  00:45:00       69.144       50.761        3.590       19.294       13.688       15.551      372.255      187.360      241.818        0.409        0.040       85.776        8.219        0.009      347.162       25.933      861.359
07/19/2014  00:46:00       58.280       44.022       -1.386       22.430       22.684       10.892      503.100      514.584      118.640        0.324        0.057       73.038        6.338        0.008      347.146       25.903      861.350
07/19/2014  00:47:00       46.260       25.099       -3.059       13.376       16.920       15.453      178.910      286.291      238.797        0.174        0.035       52.631        5.340        0.010      347.184       25.969      861.351
07/19/2014  00:48:00       86.144       23.281       17.178       22.074       19.607       27.238      487.277      384.421      741.903        0.494        0.081       89.234       16.113        0.033      347.027       25.698      861.331
07/19/2014  00:49:00       16.372       61.975       66.066       34.546       29.533       24.155     1193.408      872.226      583.483        0.556        0.132       64.101       22.264        0.121      346.902       25.484      861.300
07/19/2014  00:50:00       -6.817       25.000       50.288       21.961       40.698       24.318      482.266     1656.354      591.355        0.296        0.136       25.913       21.995        0.720      346.958       25.580      861.292
07/19/2014  00:51:00      -37.799      -23.908       -2.095       25.756       32.065       22.995      663.359     1028.181      528.748        0.211        0.111       44.726       14.006        0.098      347.079       25.788      861.312
07/19/2014  00:52:00      -29.161       10.171      -11.155       18.628       14.186       11.026      347.008      201.244      121.579        0.087        0.033       30.884        4.553        0.022      347.142       25.899      861.333
07/19/2014  00:53:00        1.715        8.189        4.349       10.354        9.297        9.675      107.202       86.436       93.606        0.019        0.014        8.367        5.992        0.513      347.053       25.745      861.333
07/19/2014  00:54:00        3.530       -5.688       11.207       11.063       14.294       10.770      122.389      204.317      115.995        0.031        0.022        6.695        8.297        1.536      346.900       25.481      861.341
07/19/2014  00:55:00        8.637      -21.462       13.850       16.951       21.449       17.440      287.323      460.042      304.165        0.089        0.053       23.135        9.961        0.185      347.015       25.677      861.336
07/19/2014  00:56:00       10.175      -63.394       -4.213       31.798       25.661       13.798     1011.136      658.496      190.398        0.300        0.093       64.206        9.771        0.023      347.417       26.370      861.337
07/19/2014  00:57:00       -9.755      -31.556        3.730        9.897       13.924       10.920       97.955      193.882      119.237        0.076        0.021       33.029        8.515        0.066      347.468       26.460      861.340
07/19/2014  00:58:00      -39.861      -12.851       -7.187       22.297       18.151       10.725      497.139      329.476      115.016        0.137        0.047       41.881        9.203        0.048      347.337       26.234      861.354
07/19/2014  00:59:00       13.938      -15.808        1.414       18.066       11.714       11.319      326.391      137.208      128.112        0.052        0.030       21.075        8.903        0.178      347.545       26.593      861.346
07/19/2014  01:00:00       30.313      -13.010       -4.020        7.786       10.728        8.901       60.615      115.095       79.221        0.068        0.013       32.987        4.205        0.016      347.548       26.598      861.319
07/19/2014  01:01:00       18.060      -14.596       -1.144       19.289        9.569        7.113      372.076       91.568       50.588        0.053        0.026       23.221        8.778        0.143      347.425       26.385      861.323
07/19/2014  01:02:00        5.118        4.535        0.135        8.614        8.552        7.113       74.209       73.141       50.599        0.012        0.010        6.838        5.441        0.633      347.560       26.617      861.345
07/19/2014  01:03:00       57.435       36.850       10.471       15.143       16.801       14.601      229.298      282.263      213.197        0.275        0.036       68.240        5.122        0.006      347.454       26.436      861.359
07/19/2014  01:04:00       38.542      101.910      -12.812       31.555       38.133       25.974      995.691     1454.161      674.669        0.758        0.156      108.955       24.303        0.050      347.189       25.979      861.362
07/19/2014  01:05:00       41.216       72.484      -10.158       24.604       41.901       25.008      605.379     1755.666      625.416        0.502        0.149       83.383       24.522        0.086      347.183       25.967      861.359
07/19/2014  01:06:00       51.455       70.645      -14.392       26.714       18.966       16.127      713.624      359.691      260.086        0.459        0.067       87.397        6.919        0.006      347.117       25.854      861.366
07/19/2014  01:07:00       47.418       50.004        0.501       25.447       11.343       13.053      647.543      128.660      170.392        0.285        0.047       68.913        9.049        0.017      347.023       25.690      861.380
07/19/2014  01:08:00       65.899       56.014       16.609       37.738       27.807       27.878     1424.166      773.243      777.157        0.536        0.149       86.488       25.199        0.085      346.972       25.604      861.407
07/19/2014  01:09:00      103.018       62.657       21.623       24.737       24.031       21.648      611.910      577.491      468.621        0.833        0.083      120.576       12.333        0.010      347.085       25.797      861.423
07/19/2014  01:10:00       47.257       31.191       13.339       32.381       28.565       17.526     1048.517      815.942      307.178        0.278        0.109       56.622       14.353        0.064      346.918       25.512      861.444
07/19/2014  01:11:00       48.358       26.794       12.489       26.416       18.896       16.965      697.830      357.077      287.828        0.228        0.067       55.285       12.594        0.052      346.858       25.408      861.470
07/19/2014  01:12:00       44.715       27.530       15.047       18.272       15.259       18.838      333.858      232.846      354.888        0.195        0.046       52.510        8.606        0.027      346.754       25.229      861.495
07/19/2014  01:13:00       20.371      -15.042        5.711       13.614       14.103       10.502      185.340      198.898      110.295        0.058        0.025       25.323        3.779        0.022      346.707       25.148      861.497
07/19/2014  01:14:00       45.559      -30.987        2.586       22.227       20.671       20.942      494.041      427.278      438.564        0.220        0.068       55.098       17.100        0.096      346.778       25.271      861.491
07/19/2014  01:15:00       40.498      -25.066       24.906       38.312       35.324       23.568     1467.826     1247.754      555.458        0.308        0.164       47.627       23.666        0.247      346.941       25.552      861.476
07/19/2014  01:16:00       60.009      -50.970       17.322       37.345       28.180       26.062     1394.613      794.114      679.225        0.468        0.143       78.734       23.325        0.088      347.073       25.779      861.462
07/19/2014  01:17:00      111.258     -122.125      -15.201       21.163       20.206       16.594      447.867      408.294      275.370        1.433        0.057      165.205       11.287        0.005      347.284       26.143      861.444
07/19/2014  01:18:00       69.245      -94.170      -10.456       30.885       28.457       19.696      953.897      809.798      387.942        0.796        0.108      116.888       19.288        0.027      347.267       26.112      861.440
07/19/2014  01:19:00       -5.210      -48.949        0.970       37.912       34.944       15.569     1437.318     1221.099      242.402        0.266        0.145       49.225        9.039        0.034      347.203       26.003      861.454
07/19/2014  01:20:00      -48.891       70.622       -5.739       28.578       35.889       20.761      816.711     1288.051      431.001        0.497        0.127       85.894       19.934        0.054      346.757       25.234      861.469
07/19/2014  01:21:00      -46.167       34.936        2.990       23.714       19.513       14.068      562.374      380.761      197.909        0.225        0.057       57.895       10.158        0.031      346.675       25.092      861.467
07/19/2014  01:22:00      -50.472        3.789       -5.259       13.100       14.709        9.237      171.603      216.346       85.318        0.153        0.024       50.614        6.760        0.018      346.831       25.359      861.460
07/19/2014  01:23:00      -48.709      -13.977       -7.304       15.589        8.839        7.573      243.017       78.124       57.358        0.150        0.019       50.675        4.575        0.008      346.823       25.346      861.459
07/19/2014  01:24:00      -31.418      -23.478        0.142       16.942       11.592       10.144      287.048      134.366      102.891        0.103        0.026       39.221        9.174        0.055      346.848       25.390      861.465
07/19/2014  01:25:00       10.718       10.373        3.941       12.493       11.069       14.641      156.072      122.521      214.363        0.037        0.025       14.916        7.545        0.256      346.757       25.234      861.480
07/19/2014  01:26:00       19.482       16.678       -4.266       11.772        8.277       11.824      138.569       68.503      139.809        0.051        0.017       25.646        5.315        0.043      346.860       25.411      861.518
07/19/2014  01:27:00       37.912       29.651       -1.236       26.048       30.845       19.947      678.501      951.434      397.879        0.217        0.101       48.129        8.050        0.028      346.612       24.985      861.561
07/19/2014  01:28:00       47.565       22.782        6.455       30.252       27.281       24.579      915.205      744.279      604.132        0.254        0.113       52.739       13.895        0.069      346.585       24.939      861.579
07/19/2014  01:29:00       93.789       49.144       11.425       28.631       15.753       17.545      819.708      248.155      307.823        0.636        0.069      105.885       10.327        0.010      346.652       25.052      861.598
07/19/2014  01:30:00       31.799       17.995       22.505       29.181       39.005       24.996      851.557     1521.355      624.795        0.242        0.150       36.537       27.474        0.565      346.566       24.905      861.616
07/19/2014  01:31:00        0.642      -12.591       -2.651       14.614       14.580       14.016      213.564      212.577      196.436        0.039        0.031       12.607        7.831        0.386      346.566       24.905      861.635
07/19/2014  01:32:00       -9.932      -26.113       -4.865       11.883       18.072        8.910      141.194      326.586       79.386        0.068        0.027       27.938        5.517        0.039      346.727       25.182      861.645
07/19/2014  01:33:00      -37.619      -24.544       -3.669       31.505        7.575        7.635      992.595       57.382       58.296        0.157        0.055       44.918        2.034        0.002      346.793       25.297      861.651
07/19/2014  01:34:00      -52.252      -49.840       -3.396       18.314       24.215       13.184      335.386      586.343      173.827        0.316        0.055       72.210       12.461        0.030      346.833       25.364      861.655
07/19/2014  01:35:00      -38.435      -24.645        0.086       17.517       31.871       11.195      306.855     1015.790      125.325        0.177        0.072       45.658       10.623        0.054      346.694       25.127      861.673
07/19/2014  01:36:00      -35.970       -4.810       -0.713       17.886       11.070        6.925      319.901      122.549       47.949        0.090        0.025       36.290        5.682        0.025      346.663       25.072      861.682
07/19/2014  01:37:00      -14.486       -3.301        2.672       14.662        9.307        6.489      214.985       86.626       42.109        0.029        0.017       14.858        5.958        0.161      346.610       24.983      861.685
07/19/2014  01:38:00       -7.934      -37.120        4.611       16.024       20.050       11.595      256.761      401.994      134.455        0.113        0.040       37.958       11.009        0.084      346.749       25.222      861.681
07/19/2014  01:39:00      -43.135      -49.546        1.486       38.059       22.193       13.554     1448.493      492.509      183.716        0.322        0.106       65.692       14.281        0.047      346.816       25.334      861.670
07/19/2014  01:40:00      -71.434      -64.854        1.206       50.712       35.567       18.209     2571.670     1265.031      331.572        0.674        0.208       96.482       18.573        0.037      346.769       25.254      861.661
07/19/2014  01:41:00     -111.705      -56.187       -5.011       35.933       30.715       23.715     1291.164      943.384      562.409        0.923        0.140      125.040       20.689        0.027      346.811       25.327      861.665
07/19/2014  01:42:00     -108.092      -38.989        1.847       41.081       31.461       19.671     1687.668      989.768      386.967        0.814        0.153      114.909       21.021        0.033      346.788       25.286      861.659
07/19/2014  01:43:00      -94.972      -69.752       -2.032       24.494       26.248       17.112      599.947      688.938      292.825        0.774        0.079      117.834       11.180        0.009      346.774       25.263      861.660
07/19/2014  01:44:00      -86.681      -35.608       -4.292       24.223       25.792       18.745      586.741      665.253      351.379        0.520        0.080       93.710       11.901        0.016      346.774       25.262      861.669
07/19/2014  01:45:00      -87.860      -16.452       -1.669       30.782       20.926       16.220      947.514      437.890      263.093        0.482        0.082       89.387       15.715        0.031      346.628       25.012      861.683
07/19/2014  01:46:00     -117.085      -50.182        1.678       36.122       30.835       18.110     1304.792      950.778      327.982        0.941        0.129      127.386       17.666        0.019      346.554       24.885      861.689
07/19/2014  01:47:00     -128.139      -38.941        4.202       56.218       47.269       30.746     3160.461     2234.353      945.332        1.215        0.317      133.925       35.108        0.069      346.536       24.855      861.683
07/19/2014  01:48:00      -88.724      -25.142        2.553       47.453       51.712       24.345     2251.760     2674.109      592.687        0.701        0.276       92.217       23.972        0.068      346.530       24.843      861.672
07/19/2014  01:49:00     -111.503      -42.826        0.233       40.130       34.325       21.605     1610.381     1178.199      466.793        0.876        0.163      119.445       18.496        0.024      346.493       24.780      861.660
07/19/2014  01:50:00     -132.286      -24.890        1.184       56.154       43.384       29.885     3153.300     1882.161      893.122        1.202        0.296      134.607       31.026        0.053      346.446       24.699      861.648
07/19/2014  01:51:00     -132.826      -41.116        6.657       69.536       51.439       29.932     4835.304     2645.989      895.899        1.388        0.419      139.044       33.382        0.058      346.363       24.555      861.636
07/19/2014  01:52:00     -147.029      -81.168       -6.118       60.627       43.486       30.234     3675.673     1891.051      914.085        1.736        0.324      167.946       30.327        0.033      346.410       24.636      861.620
07/19/2014  01:53:00     -141.845      -59.310       -3.819       52.170       55.953       30.118     2721.758     3130.770      907.066        1.520        0.338      153.746       28.277        0.034      346.414       24.644      861.609
07/19/2014  01:54:00      -96.811      -25.244        3.289       53.618       52.324       23.786     2874.850     2737.755      565.758        0.810        0.309      100.048       25.125        0.063      346.327       24.495      861.602
07/19/2014  01:55:00     -108.623      -27.865       -4.693       63.866       45.115       24.937     4078.847     2035.393      621.839        0.967        0.337      112.140       25.910        0.053      346.305       24.459      861.607
07/19/2014  01:56:00     -106.624        2.032       -1.602       45.890       56.023       29.742     2105.861     3138.575      884.615        0.875        0.306      106.643       29.215        0.075      346.196       24.269      861.603
07/19/2014  01:57:00     -116.451       -2.390        4.724       64.515       47.821       31.916     4162.132     2286.885     1018.612        1.053        0.373      116.476       33.536        0.083      346.125       24.146      861.607
07/19/2014  01:58:00     -175.609       -4.092       -7.371       74.780       49.710       33.813     5592.072     2471.123     1143.353        2.006        0.460      175.657       39.025        0.049      346.035       23.991      861.608
07/19/2014  01:59:00     -206.340       -6.509       -9.949       85.189       54.944       34.885     7257.108     3018.821     1216.950        2.710        0.575      206.442       40.208        0.038      346.003       23.935      861.609
07/19/2014  02:00:00     -204.315        2.020      -18.619       70.601       55.451       32.514     4984.569     3074.777     1057.171        2.560        0.456      204.325       26.392        0.017      346.021       23.968      861.604
07/19/2014  02:01:00     -151.840      -34.320       -1.783       71.281       53.287       35.086     5080.913     2839.483     1231.024        1.669        0.458      155.671       36.996        0.056      345.984       23.903      861.591
07/19/2014  02:02:00     -180.967      -73.440       -5.522       42.488       42.959       33.511     1805.222     1845.504     1123.009        2.147        0.239      195.301       29.443        0.023      346.050       24.017      861.584
07/19/2014  02:03:00     -147.990      -45.486       -0.722       51.371       48.601       29.238     2638.975     2362.041      854.859        1.491        0.293      154.822       21.365        0.019      346.056       24.028      861.580
07/19/2014  02:04:00     -109.829      -13.677        3.075       51.867       43.129       30.673     2690.206     1860.091      940.854        0.887        0.275      110.677       32.023        0.084      346.076       24.063      861.572
07/19/2014  02:05:00     -142.564      -56.395       -1.332       49.134       42.589       20.139     2414.174     1813.838      405.583        1.407        0.232      153.313       17.008        0.012      346.155       24.199      861.556
07/19/2014  02:06:00     -105.777      -56.448        2.142       51.595       41.107       31.771     2662.081     1689.786     1009.368        0.987        0.268      119.897       25.017        0.044      346.120       24.138      861.561
07/19/2014  02:07:00     -155.361      -38.916       -6.545       61.204       47.950       24.614     3745.900     2299.164      605.863        1.617        0.333      160.161       23.831        0.022      346.212       24.295      861.563
07/19/2014  02:08:00     -150.778      -77.287       -1.124       37.435       32.503       25.361     1401.375     1056.459      643.196        1.590        0.155      169.432       20.121        0.014      346.175       24.232      861.546
07/19/2014  02:09:00     -147.971      -78.560       -5.580       36.088       32.548       21.562     1302.316     1059.392      464.908        1.546        0.141      167.532       16.547        0.010      346.162       24.211      861.545
07/19/2014  02:10:00     -151.363      -66.829       -6.734       52.814       44.101       29.499     2789.309     1944.894      870.201        1.651        0.280      165.459       30.869        0.035      346.149       24.187      861.533
07/19/2014  02:11:00     -169.892      -52.653       -1.158       47.176       33.943       23.348     2225.543     1152.098      545.144        1.778        0.196      177.864       21.656        0.015      346.134       24.161      861.520
07/19/2014  02:12:00     -135.082      -56.633      -10.784       44.289       39.420       21.708     1961.474     1553.906      471.250        1.278        0.199      146.474       21.190        0.021      346.084       24.077      861.525
07/19/2014  02:13:00      -94.981      -39.110       -5.177       29.671       30.448       14.573      880.372      927.059      212.376        0.630        0.101      102.718       13.058        0.016      346.028       23.981      861.531
07/19/2014  02:14:00      -71.609      -10.980       -6.639       52.611       31.627       24.013     2767.914     1000.242      576.637        0.482        0.217       72.446       27.373        0.143      345.962       23.868      861.553
07/19/2014  02:15:00      -59.418      -23.283       -2.309       35.187       40.940       18.396     1238.136     1676.096      338.402        0.366        0.163       63.817       15.852        0.062      345.901       23.762      861.577
07/19/2014  02:16:00      -35.230        3.993       -1.948       25.067       15.027        8.452      628.365      225.809       71.434        0.109        0.046       35.455        8.291        0.055      345.848       23.671      861.579
07/19/2014  02:17:00      -55.690       -3.191       -5.821       17.365       20.468       14.182      301.551      418.924      201.116        0.203        0.046       55.781        8.061        0.021      345.906       23.772      861.586
07/19/2014  02:18:00      -46.556        8.058       -0.205       26.930       21.584       14.376      725.228      465.856      206.680        0.181        0.070       47.248       12.678        0.072      345.874       23.718      861.595
07/19/2014  02:19:00      -84.922       23.430       -5.921       43.873       32.283       21.247     1924.812     1042.169      451.455        0.561        0.171       88.095       22.512        0.065      345.954       23.854      861.601
07/19/2014  02:20:00      -76.696       14.888       -3.023       38.209       38.236       25.156     1459.931     1462.005      632.833        0.483        0.178       78.128       26.652        0.116      346.000       23.934      861.589
07/19/2014  02:21:00      -44.726        6.719        2.672       32.612       25.573       15.195     1063.510      653.995      230.874        0.200        0.097       45.227       10.087        0.050      345.962       23.867      861.580
07/19/2014  02:22:00      -77.005      -15.856       -8.200       19.190       18.727       13.500      368.248      350.712      182.255        0.357        0.045       78.621        8.836        0.013      346.017       23.962      861.588
07/19/2014  02:23:00     -108.076       -9.321      -15.577       19.509       22.876       16.564      380.583      523.323      274.351        0.659        0.059      108.477       10.430        0.009      345.950       23.848      861.585
07/19/2014  02:24:00      -96.053       30.238      -15.764       29.955       24.378       22.925      897.330      594.289      525.544        0.620        0.101      100.700       17.459        0.030      345.955       23.857      861.573
07/19/2014  02:25:00     -122.326       15.120      -11.094       14.971       18.362       13.356      224.120      337.175      178.390        0.803        0.037      123.257       10.837        0.008      345.918       23.792      861.557
07/19/2014  02:26:00     -107.836       30.274       -4.315       27.608       25.589       15.000      762.199      654.786      225.001        0.710        0.082      112.005       12.640        0.013      345.908       23.775      861.552
07/19/2014  02:27:00     -110.680       29.634       -8.283       27.322       36.878       17.841      746.502     1360.006      318.306        0.781        0.121      114.579       13.431        0.014      345.921       23.797      861.543
07/19/2014  02:28:00     -104.167       34.913       -6.194       39.480       32.238       25.602     1558.683     1039.259      655.483        0.768        0.163      109.863       21.347        0.038      345.954       23.854      861.529
07/19/2014  02:29:00     -120.089       10.760      -11.874       45.618       62.783       23.867     2081.029     3941.645      569.641        1.063        0.330      120.570       22.949        0.036      346.032       23.989      861.522
07/19/2014  02:30:00     -117.663        8.576      -15.766       47.044       33.161       27.039     2213.170     1099.626      731.098        0.910        0.202      117.975       26.428        0.050      345.992       23.920      861.513
07/19/2014  02:31:00     -125.719       -8.175      -12.266       31.968       26.661       24.383     1021.941      710.801      594.530        0.917        0.116      125.985       19.526        0.024      345.828       23.639      861.496
07/19/2014  02:32:00     -110.174       -9.633      -15.316       31.719       23.256       18.198     1006.096      540.854      331.173        0.717        0.094      110.594       19.198        0.030      345.785       23.563      861.486
07/19/2014  02:33:00      -66.874      -18.273       -6.330       36.078       30.268       19.573     1301.634      916.171      383.108        0.372        0.130       69.326       15.541        0.050      345.743       23.490      861.475
07/19/2014  02:34:00     -124.630      -60.571      -10.274       63.038       50.343       31.345     3973.824     2534.413      982.489        1.340        0.375      138.569       32.334        0.054      345.660       23.349      861.460
07/19/2014  02:35:00     -130.673       -9.302      -16.397       52.372       35.764       27.499     2742.873     1279.099      756.178        1.110        0.239      131.004       24.824        0.036      345.646       23.324      861.459
07/19/2014  02:36:00     -131.375        8.504      -14.446       23.909       26.209       17.545      571.635      686.905      307.843        0.955        0.078      131.650        8.580        0.004      345.667       23.359      861.465
07/19/2014  02:37:00     -140.677       44.313      -12.411       32.037       26.403       18.910     1026.382      697.112      357.578        1.199        0.104      147.491       15.310        0.011      345.914       23.785      861.462
07/19/2014  02:38:00     -145.400       -5.483      -16.415       31.345       42.269       20.363      982.483     1786.639      414.666        1.231        0.159      145.503       15.586        0.011      345.915       23.786      861.459
07/19/2014  02:39:00     -203.143       25.832      -29.135       47.324       36.800       22.606     2239.519     1354.269      511.019        2.344        0.205      204.779       19.461        0.009      345.897       23.754      861.464
07/19/2014  02:40:00     -109.783        3.043      -17.152       29.369       43.609       26.974      862.547     1901.767      727.595        0.792        0.175      109.825       15.780        0.021      345.883       23.732      861.462
07/19/2014  02:41:00     -108.220      -24.082       -7.378       31.836       36.432       23.724     1013.505     1327.289      562.831        0.762        0.145      110.867       13.760        0.015      345.880       23.727      861.450
07/19/2014  02:42:00     -125.497        6.734      -13.075       46.924       43.550       26.087     2201.854     1896.591      680.552        1.037        0.239      125.677       20.024        0.025      345.948       23.843      861.447
07/19/2014  02:43:00     -138.671      -21.287      -13.736       37.560       43.174       23.558     1410.782     1863.953      555.001        1.185        0.191      140.296       14.320        0.010      345.870       23.709      861.442
07/19/2014  02:44:00     -161.394       34.765      -23.570       38.204       39.882       29.700     1459.545     1590.561      882.108        1.587        0.197      165.095       25.077        0.023      345.845       23.667      861.443
07/19/2014  02:45:00     -146.605       29.508      -17.182       45.221       49.574       26.345     2044.968     2457.624      694.073        1.393        0.260      149.545       24.357        0.027      345.877       23.722      861.434
07/19/2014  02:46:00     -147.991      -15.374      -18.985       39.816       41.160       21.378     1585.311     1694.175      456.999        1.312        0.187      148.788       19.890        0.018      345.874       23.716      861.430
07/19/2014  02:47:00     -150.190       16.532      -21.803       52.799       39.277       25.908     2787.748     1542.707      671.227        1.415        0.250      151.097       23.464        0.024      345.807       23.603      861.413
07/19/2014  02:48:00     -157.946       15.894      -19.844       30.519       39.368       19.435      931.421     1549.852      377.724        1.423        0.143      158.743       15.582        0.010      345.857       23.688      861.391
07/19/2014  02:49:00     -180.442       34.944      -18.393       50.174       40.440       19.707     2517.464     1635.372      388.361        1.933        0.227      183.794       16.365        0.008      345.879       23.724      861.384
07/19/2014  02:50:00     -215.126       45.751      -22.336       45.651       46.924       22.962     2083.997     2201.863      527.257        2.684        0.241      219.937       14.882        0.005      346.106       24.113      861.360
07/19/2014  02:51:00     -152.419        5.824      -17.556       38.612       37.564       26.025     1490.904     1411.082      677.300        1.358        0.179      152.530       18.042        0.014      345.925       23.804      861.336
07/19/2014  02:52:00     -154.936       18.640      -11.765       26.735       35.232       16.979      714.766     1241.262      288.275        1.337        0.112      156.054       14.500        0.009      345.880       23.727      861.340
07/19/2014  02:53:00     -180.738       -5.584      -14.915       51.063       35.685       29.336     2607.426     1273.396      860.587        1.883        0.237      180.824       28.088        0.024      345.824       23.628      861.335
07/19/2014  02:54:00     -131.063       -6.810      -11.433       48.361       41.768       25.411     2338.833     1744.526      645.733        1.104        0.236      131.240       23.234        0.031      345.784       23.561      861.322
07/19/2014  02:55:00     -133.206       -5.485      -18.749       44.523       63.361       28.139     1982.311     4014.629      791.776        1.246        0.339      133.319       20.933        0.025      345.804       23.596      861.317
07/19/2014  02:56:00     -140.022      -25.026      -15.372       39.570       36.521       25.420     1565.788     1333.778      646.158        1.201        0.177      142.241       21.665        0.023      345.797       23.586      861.322
07/19/2014  02:57:00     -169.379      -37.786      -19.107       38.677       29.409       20.603     1495.947      864.890      424.483        1.663        0.139      173.542       18.446        0.011      345.765       23.528      861.318
07/19/2014  02:58:00     -171.974       11.395      -18.828       25.224       33.359       18.173      636.250     1112.824      330.240        1.607        0.104      172.351       14.747        0.007      345.725       23.459      861.311
07/19/2014  02:59:00     -169.438      -30.228      -19.673       41.514       37.034       21.807     1723.376     1371.552      475.565        1.679        0.179      172.113       19.403        0.013      345.729       23.468      861.313
07/19/2014  03:00:00     -158.720      -27.540       -5.546       49.923       37.548       26.441     2492.290     1409.865      699.148        1.529        0.230      161.092       27.817        0.030      345.869       23.708      861.310
07/19/2014  03:01:00     -163.333        9.125      -14.033       40.904       48.140       25.306     1673.101     2317.450      640.371        1.579        0.232      163.587       18.748        0.013      345.960       23.865      861.303
07/19/2014  03:02:00     -124.126        0.503       -8.258       40.655       37.735       24.822     1652.808     1423.944      616.142        0.958        0.185      124.127       23.294        0.035      345.997       23.929      861.306
07/19/2014  03:03:00      -96.586       20.847       -5.148       33.763       31.841       22.138     1139.971     1013.849      490.099        0.622        0.132       98.810       18.059        0.033      345.941       23.831      861.317
07/19/2014  03:04:00      -99.588       48.298      -13.831       49.699       37.656       26.362     2469.978     1417.981      694.955        0.851        0.229      110.682       17.300        0.024      345.945       23.838      861.330
07/19/2014  03:05:00      -66.347       15.198      -10.640       28.727       31.663       18.866      825.215     1002.546      355.910        0.346        0.109       68.066       11.945        0.031      345.897       23.755      861.324
07/19/2014  03:06:00      -37.727        9.134       -3.821       26.005       22.004       17.219      676.254      484.184      296.505        0.149        0.073       38.817       11.673        0.090      345.829       23.638      861.324
07/19/2014  03:07:00      -28.847      -15.733       -8.484       30.682       23.958       22.600      941.375      573.990      510.746        0.159        0.101       32.859       18.622        0.321      345.915       23.788      861.329
07/19/2014  03:08:00      -57.093      -34.961       -0.682       46.683       22.251       15.668     2179.280      495.091      245.499        0.370        0.146       66.947       17.023        0.065      345.850       23.675      861.328
07/19/2014  03:09:00      -61.208      -40.426       -9.660       18.900       11.655        8.232      357.199      135.830       67.759        0.302        0.028       73.353        7.201        0.010      345.818       23.620      861.313
07/19/2014  03:10:00      -65.397      -19.237       -1.946       20.525       24.812       14.863      421.256      615.648      220.901        0.295        0.063       68.168       12.138        0.032      345.901       23.763      861.306
07/19/2014  03:11:00       -2.465      -21.501        6.293       20.344       22.473       15.493      413.898      505.038      240.026        0.083        0.058       21.642       12.079        0.311      345.832       23.644      861.311
07/19/2014  03:12:00      -19.426      -35.847        3.586       30.563       15.791       15.793      934.084      249.369      249.405        0.155        0.072       40.772       16.342        0.161      345.988       23.912      861.311
07/19/2014  03:13:00      -67.738      -46.315       -4.909       22.241       19.598       11.971      494.648      384.091      143.301        0.389        0.051       82.057        9.835        0.014      346.041       24.003      861.314
07/19/2014  03:14:00      -64.828      -28.829        0.132       19.575       14.163        7.913      383.183      200.584       62.610        0.284        0.032       70.949        5.204        0.005      345.941       23.832      861.317
07/19/2014  03:15:00      -18.997      -17.004       -3.165       21.180       12.102        7.729      448.590      146.455       59.736        0.066        0.033       25.495        4.207        0.027      345.812       23.611      861.329
07/19/2014  03:16:00       -1.564      -10.143       14.223       19.600       22.405       13.510      384.158      502.000      182.511        0.069        0.053       10.263       15.823        2.377      345.944       23.836      861.335
07/19/2014  03:17:00      -46.999      -13.261       -3.210       16.431       13.952        9.792      269.985      194.663       95.880        0.148        0.028       48.834        9.560        0.038      346.002       23.935      861.343
07/19/2014  03:18:00       -3.595      -33.351        1.275       20.945        7.441        7.319      438.685       55.367       53.568        0.084        0.027       33.544        2.987        0.008      345.946       23.840      861.349
07/19/2014  03:19:00       -9.919      -22.127       -1.629       11.737       12.089       11.091      137.748      146.141      123.014        0.050        0.020       24.248        7.148        0.087      345.899       23.761      861.354
07/19/2014  03:20:00       26.644       -3.936       10.523       22.143       16.538       20.754      490.311      273.509      430.734        0.102        0.060       26.934       15.907        0.349      345.932       23.816      861.353
07/19/2014  03:21:00       -8.885      -22.941       15.497       13.114       32.039       23.749      171.989     1026.514      564.021        0.130        0.088       24.601        8.523        0.120      345.998       23.931      861.352
07/19/2014  03:22:00      -60.258        3.531      -12.866       20.651       15.583       11.919      426.453      242.817      142.069        0.231        0.041       60.362        8.716        0.021      345.790       23.573      861.381
07/19/2014  03:23:00      -15.322      -27.614       -4.177       12.567       13.915        7.826      157.924      193.622       61.246        0.071        0.021       31.580        8.059        0.065      345.654       23.337      861.399
07/19/2014  03:24:00      -26.216      -37.499        3.092       28.019       26.899       14.490      785.040      723.578      209.946        0.191        0.086       45.754       11.295        0.061      345.812       23.610      861.419
07/19/2014  03:25:00      -23.142      -83.669        2.886       19.946       49.467       15.282      397.827     2446.999      233.527        0.531        0.154       86.810       10.399        0.014      346.024       23.974      861.417
07/19/2014  03:26:00      -45.918     -124.797       -8.682       24.642       29.967       15.940      607.247      898.006      254.089        0.976        0.088      132.977        4.656        0.001      346.299       24.448      861.424
07/19/2014  03:27:00      -29.412      -45.113       -0.298       23.821       35.288       14.741      567.461     1245.233      217.303        0.246        0.101       53.853        5.681        0.011      346.157       24.202      861.437
07/19/2014  03:28:00       -7.628      -15.754       -0.114       12.436       13.617        8.402      154.655      185.415       70.595        0.036        0.021       17.504        6.067        0.120      346.119       24.136      861.446
07/19/2014  03:29:00       -4.096        5.683        4.522        9.420       13.650       10.638       88.728      186.314      113.166        0.023        0.019        7.006        5.009        0.511      346.078       24.066      861.462
07/19/2014  03:30:00        2.414       -9.937       -3.912        6.651        7.962        4.691       44.238       63.398       22.003        0.012        0.006       10.226        2.289        0.050      345.944       23.838      861.465
07/19/2014  03:31:00        0.995       -9.901       -7.906       13.822       10.386        9.030      191.052      107.867       81.538        0.027        0.019        9.951        7.686        0.597      346.092       24.092      861.472
07/19/2014  03:32:00        2.838      -15.072        3.738       12.354       12.591       12.292      152.632      158.526      151.094        0.036        0.023       15.336        7.137        0.217      345.999       23.934      861.473
07/19/2014  03:33:00       19.126        7.234        6.144       10.335       10.790       14.883      106.820      116.433      221.512        0.045        0.022       20.448       10.348        0.256      345.964       23.871      861.485
07/19/2014  03:34:00       -3.192      -16.657       -1.127        9.684       19.027        6.494       93.771      362.011       42.176        0.039        0.025       16.960        7.638        0.203      346.015       23.958      861.491
07/19/2014  03:35:00      -41.442      -33.106       -5.544       12.622        6.940        6.801      159.303       48.160       46.256        0.155        0.013       53.042        4.446        0.007      346.057       24.031      861.490
07/19/2014  03:36:00      -58.228      -24.629       -4.912       12.948       10.209        6.017      167.654      104.220       36.206        0.216        0.015       63.223        5.278        0.007      345.817       23.618      861.492
07/19/2014  03:37:00      -58.404      -32.987       -1.516       22.156       16.366       11.987      490.899      267.840      143.696        0.270        0.045       67.076        6.047        0.008      345.622       23.282      861.488
07/19/2014  03:38:00      -63.259      -20.786       -1.589       28.390       15.366       15.526      805.999      236.101      241.069        0.286        0.064       66.586       17.638        0.070      345.535       23.135      861.493
07/19/2014  03:39:00      -66.699       -0.298        1.737       37.703       18.869       14.836     1421.527      356.050      220.116        0.322        0.100       66.700       17.620        0.070      345.625       23.290      861.496
07/19/2014  03:40:00      -96.836       15.435      -13.553       14.819       13.971        8.772      219.611      195.192       76.945        0.515        0.025       98.058        8.927        0.008      345.902       23.765      861.503
07/19/2014  03:41:00      -90.121       -0.574       -8.758       15.947       12.519       12.572      254.314      156.718      158.045        0.438        0.028       90.123       10.225        0.013      346.025       23.974      861.511
07/19/2014  03:42:00      -67.170      -25.940       -5.666       15.785       15.221        8.831      249.178      231.665       77.984        0.289        0.028       72.005        7.548        0.011      345.973       23.887      861.513
07/19/2014  03:43:00      -61.108        4.231       -2.364       16.831       19.757       11.236      283.298      390.357      126.256        0.228        0.040       61.255        7.557        0.015      345.749       23.502      861.519
07/19/2014  03:44:00      -27.007       16.608       -1.819        9.831       15.101       10.480       96.651      228.045      109.821        0.072        0.022       31.705        8.926        0.079      345.821       23.624      861.520
07/19/2014  03:45:00      -28.125      -11.037        1.340       11.732       16.330        6.393      137.646      266.670       40.869        0.068        0.022       30.213        4.383        0.021      345.947       23.842      861.522
07/19/2014  03:46:00      -39.042       -5.638       -1.827       13.477        7.337        8.587      181.642       53.834       73.732        0.093        0.015       39.447        6.367        0.026      345.811       23.609      861.515
07/19/2014  03:47:00      -53.451        8.595       -3.143       23.908       16.886       11.956      571.604      285.123      142.938        0.197        0.050       54.137       11.903        0.048      345.670       23.366      861.513
07/19/2014  03:48:00      -50.168        8.571       -1.690       20.270       15.154       10.481      410.871      229.654      109.845        0.167        0.038       50.895       10.047        0.039      345.639       23.313      861.526
07/19/2014  03:49:00      -33.494       12.755       -3.582       19.974       28.037       11.316      398.971      786.095      128.055        0.130        0.066       35.840       10.749        0.090      345.736       23.480      861.528
07/19/2014  03:50:00      -25.994       42.749       -2.155       18.011       19.001       13.549      324.413      361.028      183.569        0.169        0.043       50.032       10.765        0.046      346.089       24.085      861.530
07/19/2014  03:51:00      -29.661       28.719       -3.970       10.302       11.735        9.514      106.129      137.714       90.513        0.103        0.017       41.286        8.034        0.038      346.079       24.067      861.531
07/19/2014  03:52:00       -7.931       15.205       -3.569        7.597       10.887        4.559       57.708      118.536       20.783        0.025        0.010       17.149        3.017        0.031      345.997       23.929      861.536
07/19/2014  03:53:00      -16.574      -15.838       -5.328       20.589       13.479        6.508      423.903      181.684       42.357        0.060        0.032       22.925        8.182        0.127      345.885       23.735      861.528
07/19/2014  03:54:00      -36.676       14.842       -6.940       27.899       44.095       19.061      778.345     1944.382      363.309        0.235        0.154       39.565       23.230        0.345      345.950       23.847      861.516
07/19/2014  03:55:00      -25.018        0.707        0.470       11.568       13.383        9.230      133.809      179.097       85.188        0.051        0.020       25.028        7.682        0.094      345.772       23.541      861.516
07/19/2014  03:56:00      -18.188       -2.256       -4.518        9.312        9.749        8.443       86.716       95.036       71.290        0.030        0.013       18.328        6.021        0.108      345.777       23.549      861.514
07/19/2014  03:57:00      -30.979        2.103       -8.178       14.153        9.256       11.483      200.321       85.671      131.860        0.072        0.021       31.051       11.654        0.141      345.865       23.703      861.516
07/19/2014  03:58:00      -22.864        5.546       -3.298        5.569        4.268        4.716       31.016       18.214       22.238        0.032        0.004       23.527        2.430        0.011      345.856       23.688      861.520
07/19/2014  03:59:00      -24.164        0.467       -5.411        5.694        4.442        3.959       32.424       19.727       15.676        0.034        0.003       24.169        2.722        0.013      345.706       23.430      861.524
07/19/2014  04:00:00      -10.285       -6.371       -5.007        7.725        3.663        2.775       59.680       13.420        7.700        0.013        0.004       12.099        2.418        0.040      345.668       23.362      861.526
07/19/2014  04:01:00       -7.073      -21.981       -3.963        4.336        8.480        3.971       18.802       71.919       15.771        0.033        0.005       23.091        2.181        0.009      345.741       23.486      861.523
07/19/2014  04:02:00      -11.764      -12.196       -2.731        8.429        4.630        4.708       71.043       21.436       22.168        0.020        0.006       16.945        2.727        0.026      345.713       23.439      861.519
07/19/2014  04:03:00      -29.768       -7.378       -3.874       10.421        6.725        4.349      108.596       45.228       18.916        0.056        0.009       30.669        5.532        0.033      345.679       23.382      861.519
07/19/2014  04:04:00      -27.905      -22.025       -5.825       26.154       14.195        8.817      684.017      201.505       77.734        0.113        0.048       35.550        9.064        0.065      345.500       23.074      861.508
07/19/2014  04:05:00       10.221      -27.909        0.564       10.566       10.858        8.079      111.641      117.896       65.275        0.059        0.015       29.722        5.578        0.035      345.543       23.148      861.492
07/19/2014  04:06:00      -31.765      -22.800       -3.038       29.432       16.503        5.790      866.255      272.349       33.522        0.135        0.059       39.100        4.925        0.016      345.729       23.466      861.483
07/19/2014  04:07:00      -63.579      -13.181       -0.295       31.713       21.930       15.846     1005.744      480.947      251.107        0.298        0.087       64.931       15.018        0.053      345.433       22.959      861.498
07/19/2014  04:08:00      -36.839      -40.342       -2.339       20.123       16.242       13.731      404.933      263.794      188.541        0.192        0.043       54.631       11.410        0.044      345.493       23.063      861.491
07/19/2014  04:09:00      -11.606      -33.373        5.485       17.749       15.586       11.343      315.029      242.918      128.659        0.098        0.034       35.333        7.904        0.050      345.579       23.208      861.477
07/19/2014  04:10:00      -22.425      -39.202        4.205       23.205       17.297       10.380      538.475      299.189      107.735        0.150        0.047       45.163        8.908        0.039      345.651       23.334      861.479
07/19/2014  04:11:00      -27.249      -41.360        0.421       22.516       26.340       14.174      506.966      693.819      200.890        0.193        0.070       49.529       13.630        0.076      345.632       23.301      861.475
07/19/2014  04:12:00      -27.474      -53.201       -0.279       23.266       17.113       14.084      541.305      292.864      198.349        0.231        0.052       59.877        7.654        0.016      345.679       23.382      861.477
07/19/2014  04:13:00      -34.868      -41.143        6.003       23.159       16.150       13.990      536.330      260.830      195.717        0.197        0.050       53.930       10.560        0.038      345.647       23.325      861.476
07/19/2014  04:14:00      -24.439      -24.443       -7.992       15.396       11.154        9.973      237.024      124.405       99.462        0.086        0.023       34.565        5.726        0.027      345.689       23.400      861.494
07/19/2014  04:15:00       -4.214       -8.188        1.068       23.029       15.606       10.653      530.349      243.550      113.488        0.049        0.044        9.208        7.291        0.627      345.696       23.412      861.507
07/19/2014  04:16:00       22.899       13.060        6.553       10.735       18.053       12.984      115.248      325.900      168.589        0.067        0.030       26.361       12.586        0.228      345.557       23.173      861.512
07/19/2014  04:17:00       30.783       16.682       -0.455        7.142        6.579        7.948       51.009       43.287       63.169        0.069        0.008       35.013        3.731        0.011      345.532       23.130      861.524
07/19/2014  04:18:00       21.752       33.113       -9.441        7.736        7.516        4.705       59.840       56.493       22.139        0.090        0.007       39.618        3.655        0.009      345.538       23.138      861.551
07/19/2014  04:19:00       19.073       30.548       -8.657        6.764       11.438        4.296       45.746      130.819       18.452        0.078        0.010       36.014        5.477        0.023      345.598       23.246      861.559
07/19/2014  04:20:00        2.398       12.942       -0.597        9.492        5.348        2.950       90.105       28.600        8.705        0.015        0.006       13.162        3.794        0.083      345.721       23.457      861.554
07/19/2014  04:21:00      -60.769        3.844       -3.979       24.076       13.865        8.889      579.666      192.245       79.014        0.229        0.043       60.891       13.459        0.049      345.415       22.927      861.547
07/19/2014  04:22:00      -89.422      -33.209      -12.293       14.727       17.425       10.853      216.877      303.628      117.793        0.494        0.032       95.390        9.071        0.009      345.203       22.566      861.536
07/19/2014  04:23:00     -108.898      -39.438       -3.683       34.284       26.855       16.268     1175.366      721.187      264.634        0.779        0.108      115.819       18.610        0.026      345.099       22.388      861.516
07/19/2014  04:24:00      -55.949      -50.244        3.140       22.959       18.234       13.758      527.118      332.496      189.276        0.336        0.052       75.199       11.183        0.022      345.151       22.475      861.499
07/19/2014  04:25:00      -57.142      -35.604       -0.758       20.910       17.808        8.795      437.237      317.113       77.345        0.268        0.042       67.327        8.133        0.015      345.323       22.772      861.490
07/19/2014  04:26:00      -46.591      -13.648        0.167       26.191       23.113       13.677      685.979      534.188      187.063        0.188        0.070       48.549        9.426        0.038      345.238       22.624      861.510
07/19/2014  04:27:00      -69.236      -17.301       -5.247       18.783       13.833        9.589      352.808      191.344       91.948        0.288        0.032       71.365       10.122        0.020      345.116       22.417      861.513
07/19/2014  04:28:00      -75.814      -21.028       -3.050       21.983       15.541       12.784      483.266      241.515      163.441        0.354        0.044       78.676       13.356        0.029      345.081       22.356      861.528
07/19/2014  04:29:00      -83.300      -17.349        3.326       22.097       23.529       14.855      488.279      553.624      220.659        0.426        0.063       85.087       10.457        0.015      345.045       22.298      861.533
07/19/2014  04:30:00      -73.194       -8.163       -7.113       23.674       10.458        7.120      560.442      109.367       50.688        0.310        0.036       73.648        7.041        0.009      345.104       22.396      861.540
07/19/2014  04:31:00      -70.349      -19.539      -10.643        9.107       19.334        7.393       82.942      373.819       54.650        0.298        0.026       73.012        4.695        0.004      345.210       22.576      861.540
07/19/2014  04:32:00      -81.026      -54.351       -7.241       15.822       17.912        9.773      250.322      320.826       95.516        0.512        0.033       97.567        7.229        0.005      345.123       22.430      861.543
07/19/2014  04:33:00      -13.101      -42.212        4.516       18.248       28.353       18.031      333.001      803.882      325.109        0.172        0.073       44.198       16.088        0.132      345.094       22.380      861.547
07/19/2014  04:34:00      -56.576     -104.564       -5.743       18.291       18.956       14.724      334.550      359.344      216.792        0.754        0.046      118.889        7.797        0.004      345.430       22.953      861.560
07/19/2014  04:35:00      -35.849      -84.073       -0.897       30.929       29.245       20.987      956.585      855.264      440.444        0.530        0.113       91.397       15.309        0.028      345.400       22.903      861.568
07/19/2014  04:36:00       -5.150      -65.965       -5.426       20.231       26.010       18.662      409.301      676.514      348.263        0.292        0.072       66.166       13.523        0.042      345.435       22.962      861.578
07/19/2014  04:37:00      -14.776       -4.227        2.373       17.318       13.306        9.562      299.917      177.051       91.441        0.040        0.028       15.368       10.761        0.490      345.324       22.773      861.603
07/19/2014  04:38:00        0.340       -4.848        1.792       14.866        8.973        8.707      220.995       80.509       75.810        0.020        0.019        4.860        7.489        2.374      345.325       22.775      861.642
07/19/2014  04:39:00        4.436      -10.885        1.418       11.116       10.771        8.168      123.555      116.015       66.721        0.022        0.015       11.754        4.047        0.119      345.270       22.679      861.667
07/19/2014  04:40:00       16.505       24.788        1.517       11.857       22.673       13.355      140.599      514.080      178.350        0.086        0.042       29.780       16.486        0.306      345.104       22.397      861.689
07/19/2014  04:41:00        8.986       51.498       -9.294       16.094        5.920        4.265      259.001       35.041       18.192        0.157        0.016       52.276        1.961        0.001      344.993       22.204      861.711
07/19/2014  04:42:00      -14.000       37.419       -8.708       10.018       12.266        4.450      100.367      150.462       19.804        0.097        0.014       39.953        6.067        0.023      345.059       22.318      861.720
07/19/2014  04:43:00      -44.059       12.569       -5.095        9.258        7.265        5.082       85.714       52.780       25.825        0.114        0.008       45.816        3.049        0.004      345.027       22.265      861.726
07/19/2014  04:44:00       -9.449      -27.398       -2.228       23.698       17.868        6.314      561.587      319.274       39.872        0.088        0.046       28.982        3.124        0.012      344.939       22.114      861.725
07/19/2014  04:45:00       13.270      -27.029       -4.900       15.536       12.741       11.312      241.375      162.343      127.956        0.073        0.027       30.111        3.908        0.017      345.035       22.276      861.711
07/19/2014  04:46:00       22.003       25.320       29.273       23.043       17.045       11.285      530.983      290.535      127.357        0.147        0.047       33.544        6.843        0.042      344.894       22.038      861.700
07/19/2014  04:47:00       17.293       28.172       20.417       27.662       29.763       16.189      765.205      885.844      262.093        0.171        0.096       33.057       12.457        0.142      344.848       21.960      861.707
07/19/2014  04:48:00       53.023       46.241       24.943       26.833       27.016       17.736      720.023      729.869      314.582        0.367        0.088       70.354       14.908        0.045      344.838       21.942      861.715
07/19/2014  04:49:00       44.097       36.442       33.264       23.973       16.454       17.724      574.699      270.720      314.151        0.277        0.058       57.207        5.622        0.010      344.922       22.084      861.718
07/19/2014  04:50:00       55.803       34.576       28.465       28.180       19.564       20.115      794.115      382.731      404.616        0.335        0.079       65.646       11.337        0.030      345.026       22.264      861.735
07/19/2014  04:51:00       83.595       30.739       21.157       29.906       25.293       27.469      894.364      639.760      754.545        0.533        0.114       89.067        9.851        0.012      345.063       22.325      861.755
07/19/2014  04:52:00       83.458       37.318       14.512       32.396       22.121       23.122     1049.514      489.345      534.615        0.532        0.104       91.421       14.129        0.024      345.083       22.362      861.774
07/19/2014  04:53:00       73.396       41.628       20.315       13.573       14.827       15.615      184.232      219.842      243.818        0.409        0.032       84.379        8.540        0.010      344.961       22.151      861.798
07/19/2014  04:54:00       33.667       20.277        5.090       19.949       15.383       12.642      397.949      236.639      159.825        0.118        0.040       39.302       11.733        0.089      344.891       22.031      861.814
07/19/2014  04:55:00        8.424       -0.314        1.919       14.305       13.589        8.286      204.634      184.672       68.653        0.027        0.023        8.430        6.754        0.642      344.939       22.112      861.809
07/19/2014  04:56:00      -41.327       -7.325        3.183       17.210       25.086        6.557      296.168      629.288       42.998        0.137        0.048       41.971        6.226        0.022      344.841       21.946      861.809
07/19/2014  04:57:00      -37.859        7.957       -5.401        8.159       13.351        6.182       66.567      178.250       38.220        0.090        0.014       38.686        5.688        0.022      344.876       22.005      861.824
07/19/2014  04:58:00      -16.845       -1.704       -1.762        7.295        8.871        6.190       53.220       78.691       38.321        0.023        0.009       16.931        3.589        0.045      345.081       22.358      861.833
07/19/2014  04:59:00       33.498       25.115       29.387       39.158       41.563       36.651     1533.359     1727.520     1343.265        0.361        0.230       41.867       34.261        0.670      345.423       22.942      861.825
07/19/2014  05:00:00      -33.600        9.220        9.845       47.211       38.521       20.239     2228.903     1483.855      409.599        0.272        0.206       34.842       29.040        0.695      345.208       22.575      861.826
07/19/2014  05:01:00      -51.499        9.734       -6.904       36.637       21.466       15.799     1342.277      460.771      249.604        0.242        0.103       52.411       20.572        0.154      344.799       21.875      861.845
07/19/2014  05:02:00      -10.133      -22.001        1.159       10.045       13.028       10.938      100.909      169.721      119.649        0.049        0.020       24.222       10.006        0.171      345.055       22.312      861.857
07/19/2014  05:03:00       44.497       32.737        5.360       27.073       19.704       15.147      732.921      388.236      229.425        0.222        0.068       55.242       14.095        0.065      345.155       22.484      861.866
07/19/2014  05:04:00       12.713       24.892       24.467       38.290       26.808       13.026     1466.159      718.672      169.671        0.187        0.118       27.951       10.675        0.146      345.143       22.465      861.873
07/19/2014  05:05:00       11.879       23.170        2.772       15.893       12.273       14.273      252.589      150.632      203.710        0.065        0.030       26.038        4.910        0.036      345.292       22.717      861.888
07/19/2014  05:06:00      -10.013       77.595       -4.608       27.231       27.523       17.917      741.501      757.527      321.023        0.398        0.091       78.239       13.346        0.029      345.357       22.828      861.902
07/19/2014  05:07:00      -14.145       59.067       -4.033       14.826       20.716       11.764      219.810      429.133      138.385        0.225        0.039       60.737        8.396        0.019      345.372       22.855      861.911
07/19/2014  05:08:00       -2.306       25.087        0.798       27.709       30.521       10.678      767.785      931.529      114.019        0.122        0.091       25.193        5.932        0.055      345.298       22.728      861.918
07/19/2014  05:09:00       -8.911        0.370        4.375        6.855        6.914        6.539       46.985       47.802       42.755        0.012        0.007        8.918        1.774        0.040      345.243       22.634      861.918
07/19/2014  05:10:00      -10.065      -13.729       -4.799        5.805        8.581        6.345       33.701       73.636       40.262        0.023        0.007       17.024        6.058        0.127      345.273       22.687      861.930
07/19/2014  05:11:00      -15.659      -21.255       -0.821        4.463        4.928        4.536       19.916       24.282       20.572        0.038        0.003       26.400        2.027        0.006      345.314       22.754      861.948
07/19/2014  05:12:00      -31.797       -9.826       -4.213        5.547       10.172        5.054       30.768      103.471       25.548        0.064        0.008       33.281        2.306        0.005      345.208       22.573      861.960
07/19/2014  05:13:00      -15.718      -15.660       -3.943        9.440       10.676        4.275       89.114      113.984       18.277        0.036        0.011       22.188        1.858        0.007      345.199       22.560      861.966
07/19/2014  05:14:00       -5.937      -48.484       -0.257       17.244       18.085       16.840      297.349      327.069      283.583        0.165        0.045       48.846       12.525        0.066      345.212       22.581      861.973
07/19/2014  05:15:00       16.190      -59.076      -14.247       20.235       19.297       13.727      409.450      372.380      188.426        0.246        0.049       61.254       11.215        0.034      345.221       22.595      861.972
07/19/2014  05:16:00       18.262      -57.271      -12.433       20.071       34.843       20.685      402.841     1214.055      427.878        0.291        0.102       60.112       13.778        0.053      345.267       22.675      861.971
07/19/2014  05:17:00       17.732      -81.846      -11.654       28.103       25.112       21.773      789.767      630.623      474.060        0.452        0.095       83.745       18.782        0.050      345.349       22.815      861.969
07/19/2014  05:18:00       -5.499      -56.285       -2.095       25.944       39.171       16.226      673.082     1534.365      263.292        0.284        0.124       56.553       16.287        0.083      345.369       22.848      861.981
07/19/2014  05:19:00      -21.582        2.227       -8.957       14.160       10.914       11.812      200.494      119.117      139.522        0.050        0.023       21.696        4.622        0.045      345.089       22.371      862.000
07/19/2014  05:20:00      -31.541      -25.623      -10.000       13.160       20.800        7.799      173.181      432.630       60.818        0.121        0.033       40.637        7.867        0.037      345.001       22.220      862.019
07/19/2014  05:21:00      -38.780      -46.087       -5.241       26.740       19.621       13.949      715.034      384.977      194.577        0.247        0.065       60.232       13.439        0.050      345.104       22.396      862.032
07/19/2014  05:22:00      -67.316      -55.358        2.994       41.211       33.186       19.463     1698.365     1101.328      378.805        0.539        0.159       87.155       17.636        0.041      344.999       22.216      862.048
07/19/2014  05:23:00      -96.546      -56.390      -11.569       24.973       18.316       19.173      623.649      335.492      367.619        0.698        0.066      111.808       13.846        0.015      345.083       22.362      862.056
07/19/2014  05:24:00      -92.788      -51.492       -7.707       38.948       30.096       24.874     1516.941      905.790      618.698        0.718        0.152      106.118       23.345        0.048      345.098       22.386      862.064
07/19/2014  05:25:00      -80.888      -46.957        1.524       41.262       30.643       23.796     1702.533      939.003      566.257        0.598        0.160       93.530       22.965        0.060      345.005       22.227      862.069
07/19/2014  05:26:00      -89.388      -73.180       -9.957       39.404       29.006       18.867     1552.699      841.345      355.958        0.810        0.138      115.522        9.066        0.006      344.993       22.206      862.073
07/19/2014  05:27:00      -85.917      -78.722       -6.353       35.504       31.948       17.520     1260.500     1020.685      306.951        0.810        0.129      116.528       21.094        0.033      344.982       22.190      862.080
07/19/2014  05:28:00      -77.153      -66.533       -6.632       20.277       22.280       14.581      411.176      496.414      212.618        0.577        0.056      101.879       11.924        0.014      344.981       22.185      862.079
07/19/2014  05:29:00      -52.018      -47.232        3.681       38.142       31.414       18.493     1454.806      986.812      341.986        0.387        0.139       70.262       18.577        0.070      344.936       22.109      862.088
07/19/2014  05:30:00     -129.411      -32.616       -4.713       36.174       36.818       18.674     1308.532     1355.570      348.736        1.042        0.151      133.458       18.707        0.020      344.943       22.122      862.098
07/19/2014  05:31:00      -99.927      -50.709       -5.560       43.665       31.087       18.872     1906.651      966.379      356.152        0.791        0.161      112.057       19.692        0.031      344.874       22.002      862.118
07/19/2014  05:32:00      -85.172        0.785       -4.992       18.988       23.919       12.437      360.527      572.118      154.678        0.418        0.054       85.176        6.373        0.006      344.796       21.869      862.125
07/19/2014  05:33:00      -85.327       -7.517       -4.104       31.317       20.858       16.481      980.746      435.057      271.625        0.452        0.084       85.658       14.827        0.030      344.769       21.823      862.129
07/19/2014  05:34:00      -99.257      -34.194        3.570       45.296       37.462       23.154     2051.764     1403.385      536.085        0.751        0.200      104.982       24.196        0.053      344.665       21.644      862.123
07/19/2014  05:35:00      -93.630      -15.690       -2.346       47.977       31.969       22.897     2301.792     1022.017      524.279        0.643        0.192       94.935       23.304        0.060      344.563       21.472      862.125
07/19/2014  05:36:00      -94.338       -7.877       -5.187       37.253       32.772       23.120     1387.749     1073.981      534.516        0.599        0.150       94.667       21.122        0.050      344.536       21.424      862.129
07/19/2014  05:37:00     -102.569      -43.693       -1.774       41.025       27.827       22.952     1683.075      774.337      526.801        0.771        0.149      111.487       22.091        0.039      344.572       21.486      862.137
07/19/2014  05:38:00     -131.444      -49.718       -9.489       24.058       28.932       12.897      578.809      837.082      166.323        1.071        0.079      140.533       12.530        0.008      344.547       21.444      862.149
07/19/2014  05:39:00     -156.131      -27.243       -6.366       28.251       32.974       20.901      798.113     1087.310      436.837        1.374        0.116      158.490       13.815        0.008      344.449       21.276      862.149
07/19/2014  05:40:00     -131.370      -20.004      -11.242       52.636       36.187       21.621     2770.559     1309.528      467.461        1.117        0.227      132.884       25.212        0.036      344.428       21.239      862.150
07/19/2014  05:41:00      -73.623      -16.092       -5.799       28.698       30.459       14.919      823.591      927.723      222.569        0.384        0.099       75.362       14.513        0.037      344.388       21.171      862.142
07/19/2014  05:42:00     -104.612      -24.434      -12.809       26.341       36.129       18.912      693.843     1305.288      357.657        0.703        0.118      107.427        9.025        0.007      344.420       21.226      862.142
07/19/2014  05:43:00     -122.745      -25.578      -15.815       38.269       44.776       30.227     1464.540     2004.860      913.683        1.018        0.219      125.382       17.486        0.019      344.380       21.158      862.142
07/19/2014  05:44:00     -130.782      -24.220       -5.365       63.871       31.221       25.802     4079.534      974.781      665.732        1.172        0.286      133.005       29.355        0.049      344.351       21.108      862.139
07/19/2014  05:45:00     -129.404      -33.091       -5.780       46.968       39.953       21.945     2206.033     1596.221      481.596        1.108        0.214      133.568       21.014        0.025      344.331       21.074      862.126
07/19/2014  05:46:00     -140.129      -51.191        1.178       67.513       52.994       32.839     4557.999     2808.346     1078.424        1.535        0.422      149.186       31.025        0.043      344.427       21.238      862.131
07/19/2014  05:47:00     -164.755       -1.873       -9.497       40.470       37.652       29.158     1637.832     1417.700      850.202        1.557        0.195      164.765       21.743        0.017      344.461       21.297      862.154
07/19/2014  05:48:00     -147.722      -49.168       -3.749       40.296       53.828       25.756     1623.763     2897.487      663.347        1.472        0.259      155.690       17.651        0.013      344.461       21.294      862.154
07/19/2014  05:49:00     -180.674      -49.810       -4.426       57.274       51.241       33.848     3280.340     2625.615     1145.706        2.110        0.353      187.414       29.586        0.025      344.511       21.380      862.157
07/19/2014  05:50:00     -142.859      -67.359       -5.500       68.791       41.508       31.779     4732.143     1722.912     1009.916        1.622        0.373      157.943       28.670        0.033      344.456       21.287      862.170
07/19/2014  05:51:00     -117.455      -65.294       -0.876       55.444       33.488       26.346     3074.034     1121.449      694.122        1.147        0.244      134.383       26.776        0.040      344.431       21.246      862.176
07/19/2014  05:52:00      -85.827      -17.773        7.836       39.786       41.271       26.243     1582.891     1703.260      688.717        0.586        0.199       87.648       20.628        0.055      344.427       21.237      862.167
07/19/2014  05:53:00      -93.472      -98.316        6.462       74.080       59.604       39.789     5487.863     3552.591     1583.180        1.453        0.531      135.657       44.740        0.109      344.712       21.725      862.161
07/19/2014  05:54:00     -113.323      -90.852       -2.975       49.697       50.933       26.561     2469.753     2594.149      705.509        1.344        0.288      145.245       24.886        0.029      344.740       21.773      862.175
07/19/2014  05:55:00     -121.103      -49.145       -2.913       56.219       33.397       28.892     3160.599     1115.329      834.746        1.110        0.256      130.695       29.983        0.053      344.639       21.602      862.194
07/19/2014  05:56:00     -137.732      -63.016       -3.089       22.383       25.712       20.387      500.992      661.088      415.629        1.226        0.079      151.463       15.470        0.010      344.681       21.670      862.205
07/19/2014  05:57:00     -100.290      -19.168       -1.188       39.386       37.624       23.871     1551.272     1415.531      569.808        0.698        0.177      102.105       20.253        0.039      344.613       21.556      862.213
07/19/2014  05:58:00      -82.138      -45.318        4.565       46.547       31.923       21.655     2166.667     1019.076      468.953        0.624        0.183       93.810       17.915        0.036      344.600       21.535      862.223
07/19/2014  05:59:00      -98.082      -64.991        4.221       44.489       38.350       20.789     1979.252     1470.756      432.200        0.887        0.194      117.660       17.590        0.022      344.633       21.589      862.218
07/19/2014  06:00:00      -98.043      -77.620       -1.951       48.435       40.335       26.782     2345.986     1626.941      717.274        1.016        0.235      125.049       17.572        0.020      344.607       21.545      862.216
07/19/2014  06:01:00      -83.476      -56.004        0.427       52.638       36.510       23.745     2770.786     1332.962      563.830        0.739        0.233      100.522       23.822        0.056      344.627       21.581      862.208
07/19/2014  06:02:00      -99.039      -76.387       -8.743       31.268       38.255       21.032      977.676     1463.409      442.327        0.930        0.144      125.075       15.916        0.016      344.682       21.673      862.211
07/19/2014  06:03:00      -51.155      -62.031       12.284       47.434       46.069       33.115     2249.941     2122.393     1096.591        0.604        0.273       80.403       31.681        0.155      344.666       21.648      862.201
07/19/2014  06:04:00     -136.831      -63.445       -3.641       52.181       37.554       23.509     2722.830     1410.297      552.677        1.372        0.234      150.824       16.712        0.012      344.676       21.664      862.196
07/19/2014  06:05:00      -92.517      -27.523       -1.667       45.322       30.698       20.554     2054.091      942.366      422.460        0.637        0.171       96.525       19.663        0.041      344.632       21.588      862.199
07/19/2014  06:06:00      -75.087      -11.982        6.293       36.485       23.720       21.481     1331.164      562.623      461.437        0.409        0.118       76.037       23.000        0.091      344.587       21.512      862.208
07/19/2014  06:07:00     -116.113      -28.588        1.415       31.702       24.045       20.335     1005.014      578.145      413.530        0.815        0.100      119.581       17.428        0.021      344.593       21.521      862.214
07/19/2014  06:08:00     -108.290      -25.434       -6.294       31.652       22.806       15.819     1001.832      520.097      250.235        0.709        0.089      111.237        8.772        0.006      344.663       21.641      862.234
07/19/2014  06:09:00      -84.034      -39.125       -5.894       23.531       16.341       14.738      553.712      267.030      217.195        0.483        0.052       92.696        8.820        0.009      344.631       21.587      862.265
07/19/2014  06:10:00      -69.561      -23.951       -5.162       20.757       13.066       10.494      430.850      170.716      110.117        0.308        0.036       73.569        9.400        0.016      344.610       21.552      862.298
07/19/2014  06:11:00      -43.846      -26.088      -11.760       12.237        8.889        7.956      149.737       79.011       63.293        0.152        0.015       51.021        5.954        0.014      344.665       21.642      862.320
07/19/2014  06:12:00      -50.419      -24.324       -2.809       10.777       17.470       12.123      116.153      305.215      146.975        0.185        0.028       55.980        6.279        0.013      344.689       21.686      862.336
07/19/2014  06:13:00      -14.653      -24.752       -2.446       12.104        7.490       11.590      146.506       56.099      134.330        0.059        0.017       28.764        5.450        0.036      344.749       21.786      862.348
07/19/2014  06:14:00      -35.891      -19.059       -2.631       13.291        8.364        6.931      176.643       69.959       48.034        0.098        0.015       40.637        5.164        0.016      344.748       21.786      862.345
07/19/2014  06:15:00      -90.709        8.443       -9.117       28.792       16.881        7.471      828.959      284.971       55.821        0.478        0.058       91.101        8.268        0.008      344.702       21.708      862.354
07/19/2014  06:16:00     -116.620      -28.511       -7.372       29.805       30.459       13.189      888.324      927.760      173.960        0.823        0.100      120.054       11.339        0.009      344.627       21.581      862.364
07/19/2014  06:17:00      -99.540      -53.853       -2.124       30.236       18.280       16.881      914.204      334.156      284.957        0.717        0.077      113.174       17.236        0.023      344.610       21.550      862.365
07/19/2014  06:18:00      -41.820      -37.141       10.459       42.121       21.694       20.548     1774.201      470.643      422.207        0.295        0.133       55.932       22.717        0.165      344.685       21.678      862.373
07/19/2014  06:19:00      -49.421      -36.182        3.771       41.308       31.625       23.609     1706.317     1000.142      557.385        0.351        0.163       61.250       20.534        0.112      344.676       21.664      862.381
07/19/2014  06:20:00      -46.054      -46.265        4.435       34.399       38.633       24.271     1183.287     1492.504      589.058        0.377        0.163       65.280       21.332        0.107      344.687       21.682      862.391
07/19/2014  06:21:00      -53.841      -40.754        1.595       31.260       31.179       18.912      977.201      972.115      357.649        0.343        0.115       67.526       15.744        0.054      344.708       21.718      862.408
07/19/2014  06:22:00      -87.831      -36.389       -3.256       17.341       15.796       12.961      300.707      249.507      167.981        0.488        0.036       95.071        9.027        0.009      344.686       21.682      862.410
07/19/2014  06:23:00      -84.764      -24.109       -2.849       24.780       26.026       14.904      614.048      677.348      222.126        0.464        0.076       88.126       10.455        0.014      344.611       21.552      862.411
07/19/2014  06:24:00     -109.371      -22.327       -7.284       29.691       21.351       14.275      881.555      455.868      203.777        0.703        0.077      111.626       15.183        0.018      344.640       21.603      862.419
07/19/2014  06:25:00      -98.298      -44.782        3.162       28.918       21.763       14.813      836.228      473.630      219.410        0.660        0.076      108.018       13.280        0.015      344.669       21.652      862.416
07/19/2014  06:26:00      -62.873      -38.137        4.725       40.103       26.576       17.590     1608.223      706.262      309.423        0.403        0.131       73.535       19.549        0.071      344.716       21.733      862.426
07/19/2014  06:27:00      -91.680      -38.498        3.235       23.315       25.120       16.362      543.608      631.010      267.701        0.567        0.072       99.435       10.053        0.010      344.714       21.727      862.436
07/19/2014  06:28:00      -83.772      -20.386       -4.034       23.518       16.151       12.346      553.099      260.843      152.415        0.421        0.048       86.216       10.405        0.015      344.707       21.717      862.438
07/19/2014  06:29:00      -94.721        9.739       -4.886       25.247       18.483       16.999      637.435      341.635      288.958        0.518        0.063       95.220       16.145        0.029      344.634       21.591      862.445
07/19/2014  06:30:00      -71.711       -8.331        1.998       36.995       21.195       15.545     1368.639      449.237      241.646        0.364        0.103       72.193       14.830        0.042      344.559       21.464      862.456
07/19/2014  06:31:00      -60.496       -7.784        0.458       16.421       16.668       12.157      269.656      277.813      147.799        0.221        0.035       60.995        9.704        0.025      344.695       21.696      862.464
07/19/2014  06:32:00      -44.777      -32.079        2.968       20.200       15.941       11.859      408.028      254.118      140.642        0.192        0.040       55.082        7.401        0.018      344.769       21.820      862.451
07/19/2014  06:33:00      -63.023      -14.694        0.753       19.520       15.253       12.090      381.021      232.643      146.176        0.247        0.038       64.713       11.083        0.029      344.719       21.734      862.455
07/19/2014  06:34:00      -54.581      -19.707        6.513       28.482       17.963       12.224      811.223      322.678      149.434        0.235        0.064       58.029       13.551        0.055      344.713       21.725      862.451
07/19/2014  06:35:00      -72.645      -31.004       -2.758       14.075       10.072        8.943      198.099      101.442       79.970        0.331        0.019       78.985        8.297        0.011      344.754       21.797      862.439
07/19/2014  06:36:00      -67.855      -11.072       -6.076       11.781       12.790        8.439      138.800      163.573       71.225        0.257        0.019       68.752        7.826        0.013      344.816       21.904      862.418
07/19/2014  06:37:00      -71.071      -21.194       -4.260       13.021        9.859        9.716      169.552       97.202       94.398        0.294        0.018       74.164        6.470        0.008      344.787       21.853      862.419
07/19/2014  06:38:00      -71.962        1.634       -3.987       31.428       18.039       19.735      987.745      325.400      389.484        0.345        0.085       71.981       17.969        0.062      344.651       21.621      862.429
07/19/2014  06:39:00      -72.038       -4.328       -1.011       30.907       16.032       13.903      955.247      257.012      193.292        0.331        0.070       72.168       16.707        0.054      344.660       21.636      862.414
07/19/2014  06:40:00      -33.301      -11.907        7.145       16.236       17.299       12.555      263.623      299.247      157.617        0.101        0.036       35.366       10.272        0.084      344.734       21.762      862.423
07/19/2014  06:41:00      -30.363        8.540        0.568       25.501       13.705       14.149      650.305      187.823      200.204        0.102        0.052       31.542       10.298        0.107      344.678       21.669      862.435
07/19/2014  06:42:00      -76.393        4.169       -6.763       23.522       11.701        9.179      553.307      136.908       84.263        0.334        0.039       76.507        8.546        0.012      344.634       21.592      862.425
07/19/2014  06:43:00      -63.477        0.149       -1.338       16.015       14.480       11.664      256.475      209.663      136.058        0.232        0.030       63.477       10.000        0.025      344.645       21.609      862.427
07/19/2014  06:44:00      -37.325      -10.252       -3.392       20.000       18.136        9.926      399.989      328.927       98.521        0.117        0.041       38.708       10.636        0.075      344.672       21.657      862.435
07/19/2014  06:45:00       -2.826       -6.947        9.616        8.224       12.180        8.147       67.640      148.364       66.369        0.022        0.014        7.500        7.681        1.049      344.993       22.206      862.427
07/19/2014  06:46:00      -32.287        5.912        4.002       18.762        9.572       11.732      352.013       91.628      137.642        0.084        0.029       32.823        8.320        0.064      344.900       22.046      862.445
07/19/2014  06:47:00      -34.960        7.975       -2.831       16.965       10.128        4.828      287.816      102.571       23.313        0.085        0.021       35.858        6.537        0.033      344.735       21.764      862.469
07/19/2014  06:48:00      -51.472      -11.929       -3.844        7.359       13.201        6.110       54.148      174.263       37.330        0.154        0.013       52.836        3.921        0.006      344.751       21.794      862.477
07/19/2014  06:49:00      -52.255      -18.650      -10.212        8.557        7.532        5.738       73.218       56.727       32.925        0.167        0.008       55.483        3.908        0.005      344.775       21.833      862.487
07/19/2014  06:50:00      -39.766      -22.943       -1.511        8.109        9.447        5.693       65.752       89.236       32.405        0.115        0.009       45.909        3.377        0.005      344.797       21.868      862.497
07/19/2014  06:51:00      -13.130      -37.395       -0.589        9.427       17.783       11.996       88.864      316.218      143.910        0.106        0.027       39.633       11.143        0.079      344.861       21.983      862.495
07/19/2014  06:52:00      -20.466      -79.265       -5.235       17.118       26.786       10.304      293.038      717.483      106.177        0.392        0.056       81.864       10.428        0.016      344.839       21.945      862.497
07/19/2014  06:53:00       -0.324      -67.436        4.551       36.253       29.325       28.235     1314.309      859.938      797.196        0.377        0.149       67.437       17.154        0.065      345.006       22.227      862.487
07/19/2014  06:54:00       13.945      -89.748      -12.017       43.138       50.565       41.887     1860.854     2556.859     1754.493        0.728        0.309       90.825       29.848        0.108      344.998       22.214      862.490
07/19/2014  06:55:00        0.280      -26.005       39.981       21.683       34.523       25.491      470.152     1191.833      649.781        0.229        0.116       26.007       14.409        0.307      345.166       22.503      862.500
07/19/2014  06:56:00        0.329      -67.048       15.581       24.957       41.510       27.191      622.867     1723.065      739.367        0.391        0.154       67.048       27.270        0.165      345.052       22.307      862.521
07/19/2014  06:57:00       13.326      -66.306       -5.763       37.686       41.759       30.348     1420.207     1743.837      920.996        0.435        0.204       67.631       32.819        0.235      344.980       22.184      862.541
07/19/2014  06:58:00      -17.719      -55.967       -9.323       32.431       31.525       21.378     1051.778      993.841      457.016        0.302        0.125       58.705        9.046        0.024      344.961       22.153      862.547
07/19/2014  06:59:00      -19.658      -17.790       -5.046       28.059       15.820       14.605      787.322      250.263      213.318        0.099        0.063       26.513       13.506        0.260      344.991       22.203      862.573
07/19/2014  07:00:00      -12.651      -23.430       20.573       40.655       21.760       20.404     1652.807      473.496      416.342        0.184        0.127       26.627       12.136        0.208      345.037       22.282      862.578
07/19/2014  07:01:00      -34.099      -49.208       -5.225       29.346       27.471       22.612      861.195      754.634      511.323        0.287        0.106       59.868       14.532        0.059      344.984       22.190      862.594
07/19/2014  07:02:00      -26.079      -42.564        0.352       18.513       28.351       13.882      342.741      803.787      192.709        0.192        0.067       49.918       10.640        0.045      345.012       22.240      862.609
07/19/2014  07:03:00      -15.302       -3.287        7.251       16.166       13.720       11.090      261.327      188.231      122.993        0.043        0.029       15.651        6.952        0.197      345.171       22.511      862.621
07/19/2014  07:04:00        1.819       17.048       27.890       12.013       18.821       21.101      144.322      354.235      445.261        0.101        0.047       17.145       14.254        0.691      345.393       22.891      862.635
07/19/2014  07:05:00        4.843       11.489       39.920       30.556       22.691       18.674      933.662      514.884      348.714        0.177        0.090       12.468       14.717        1.393      345.534       23.134      862.645
07/19/2014  07:06:00       11.626      -38.019       21.140       19.604       26.186       21.567      384.305      685.715      465.153        0.178        0.077       39.757       10.471        0.069      345.363       22.840      862.645
07/19/2014  07:07:00       17.660      -25.562       16.937       23.390       24.614       26.597      547.104      605.862      707.380        0.156        0.093       31.070       14.225        0.210      345.540       23.141      862.645
07/19/2014  07:08:00      -19.037      -22.432       11.195       26.077       25.570       18.733      679.993      653.800      350.929        0.134        0.084       29.421        4.788        0.026      345.397       22.897      862.635
07/19/2014  07:09:00      -23.876      -13.560        0.966       13.441       12.250        9.680      180.647      150.073       93.711        0.059        0.021       27.458        7.818        0.081      345.218       22.593      862.631
07/19/2014  07:10:00        2.956      -22.565        9.546       16.522       23.687       18.300      272.990      561.066      334.896        0.089        0.058       22.758       15.798        0.482      345.488       23.054      862.630
07/19/2014  07:11:00      -35.833      -24.946        7.594       33.636       16.144       15.476     1131.376      260.641      239.493        0.180        0.082       43.661       13.143        0.091      345.213       22.583      862.637
07/19/2014  07:12:00      -13.761       -3.864       11.760       24.922       16.296       21.183      621.128      265.554      448.713        0.084        0.067       14.294       14.017        0.962      345.575       23.204      862.658
07/19/2014  07:13:00      -33.873      -39.784        0.580       28.079       22.400       19.963      788.424      501.745      398.511        0.221        0.084       52.250       12.316        0.056      345.268       22.679      862.664
07/19/2014  07:14:00      -22.736      -30.177        2.798       20.817       14.961       18.060      433.356      223.838      326.167        0.121        0.049       37.783       12.585        0.111      345.249       22.645      862.692
07/19/2014  07:15:00      -45.738      -44.514       -4.911       24.261       25.451       17.806      588.608      647.754      317.045        0.283        0.078       63.824       13.797        0.047      345.230       22.614      862.713
07/19/2014  07:16:00      -54.876      -46.510       -9.051       22.764       21.589       10.403      518.191      466.064      108.213        0.317        0.055       71.935        9.464        0.017      345.169       22.509      862.727
07/19/2014  07:17:00      -33.502      -25.853       12.476       34.473       23.500       16.286     1188.421      552.245      265.240        0.198        0.100       42.317       13.458        0.101      345.362       22.837      862.741
07/19/2014  07:18:00      -25.018      -22.417       -2.034       34.343       20.661       21.993     1179.466      426.866      483.680        0.161        0.105       33.592        6.265        0.035      345.345       22.808      862.740
07/19/2014  07:19:00      -51.075      -62.635       -0.461       32.829       25.920       17.360     1077.738      671.859      301.357        0.429        0.103       80.820       13.414        0.028      345.235       22.619      862.742
07/19/2014  07:20:00      -77.509      -78.361       -2.209       36.379       27.799       18.776     1323.409      772.787      352.531        0.730        0.122      110.219       16.601        0.023      345.160       22.489      862.729
07/19/2014  07:21:00      -75.097      -70.409       -1.487       28.711       20.070       16.803      824.346      402.813      282.353        0.605        0.075      102.942       16.148        0.025      345.225       22.603      862.730
07/19/2014  07:22:00      -74.077      -83.596       -3.872       26.904       27.159       13.354      723.802      737.595      178.338        0.706        0.082      111.694        9.019        0.007      345.223       22.599      862.733
07/19/2014  07:23:00      -54.055      -81.066       -3.248       23.267       30.166       16.622      541.350      910.011      276.295        0.562        0.086       97.436        9.439        0.009      345.219       22.593      862.734
07/19/2014  07:24:00      -43.302      -74.919       -1.748       28.192       24.473       14.798      794.792      598.926      218.971        0.455        0.081       86.533       13.304        0.024      345.234       22.620      862.745
07/19/2014  07:25:00      -18.895      -32.934       -0.330       17.370       15.826       11.025      301.731      250.454      121.544        0.106        0.034       37.970        8.820        0.054      345.288       22.712      862.748
07/19/2014  07:26:00      -33.524      -44.017       -1.044       14.837       22.792       10.840      220.137      519.484      117.498        0.196        0.043       55.330        7.480        0.018      345.339       22.799      862.755
07/19/2014  07:27:00      -27.786      -36.223        1.938       26.427       21.641       15.202      698.390      468.337      231.086        0.174        0.070       45.652       17.702        0.150      345.447       22.983      862.755
07/19/2014  07:28:00      -31.779      -19.471        3.699       16.608       18.020       10.346      275.813      324.724      107.037        0.105        0.035       37.269        6.960        0.035      345.454       22.996      862.761
07/19/2014  07:29:00      -17.864      -12.023        7.244       17.998       16.431       10.558      323.932      269.986      111.474        0.061        0.035       21.533        9.832        0.208      345.491       23.060      862.755
07/19/2014  07:30:00      -11.332       -4.665       14.966       16.690       10.811       14.081      278.544      116.879      198.273        0.048        0.030       12.255       11.898        0.943      345.936       23.823      862.754
07/19/2014  07:31:00      -15.683       -4.718       -3.345       10.904       12.276        8.752      118.892      150.700       76.591        0.031        0.017       16.377        4.160        0.065      345.579       23.210      862.747
07/19/2014  07:32:00       -4.303        6.166       13.364       12.962       13.759       19.354      168.016      189.318      374.559        0.048        0.037        7.519       11.175        2.208      346.125       24.148      862.741
07/19/2014  07:33:00      -19.836       -7.345        8.662       16.470       16.335       13.779      271.270      266.831      189.864        0.063        0.036       21.152        9.830        0.216      346.178       24.240      862.730
07/19/2014  07:34:00      -10.573       -5.852        9.760       21.139       14.708       15.623      446.839      216.329      244.085        0.057        0.045       12.085       13.950        1.333      345.946       23.840      862.727
07/19/2014  07:35:00       -3.988        0.038        7.697       14.385       17.425       17.717      206.919      303.619      313.902        0.045        0.041        3.988       11.739        8.666      346.174       24.233      862.716
07/19/2014  07:36:00      -29.445      -26.947        2.914       22.200       32.144       14.178      492.856     1033.265      201.019        0.166        0.086       39.915       16.169        0.164      345.822       23.627      862.714
07/19/2014  07:37:00      -42.295      -16.615        3.888       30.134       21.493       19.470      908.045      461.951      379.093        0.191        0.087       45.442       18.979        0.174      345.859       23.689      862.710
07/19/2014  07:38:00      -55.803      -27.451        7.938       36.342       29.690       22.013     1320.767      881.511      484.579        0.331        0.134       62.190       23.630        0.144      345.839       23.658      862.697
07/19/2014  07:39:00      -42.247      -42.159        1.662       30.654       28.785       15.993      939.693      828.575      255.790        0.279        0.101       59.684       16.775        0.079      345.847       23.669      862.704
07/19/2014  07:40:00      -26.280      -46.574       10.673       42.674       36.755       20.870     1821.103     1350.961      435.564        0.329        0.180       53.476       25.985        0.236      345.914       23.786      862.697
07/19/2014  07:41:00      -59.681      -73.609       -2.818       22.168       26.600       15.528      491.402      707.541      241.107        0.521        0.072       94.763       11.439        0.015      345.697       23.412      862.703
07/19/2014  07:42:00      -40.610      -36.108        2.438       23.803       29.348       15.660      566.569      861.322      245.226        0.232        0.084       54.341       12.136        0.050      345.754       23.511      862.698
07/19/2014  07:43:00      -47.132      -61.823        7.189       49.037       25.327       25.927     2404.600      641.433      672.217        0.491        0.186       77.740       27.495        0.125      345.732       23.473      862.706
07/19/2014  07:44:00      -65.659      -68.563        3.768       45.193       36.377       27.959     2042.380     1323.272      781.700        0.659        0.207       94.931       27.875        0.086      345.868       23.708      862.721
07/19/2014  07:45:00      -46.670      -49.983        1.287       21.969       36.074       14.317      482.627     1301.355      204.985        0.333        0.099       68.384       12.602        0.034      345.713       23.442      862.735
07/19/2014  07:46:00      -57.583      -49.449        0.854       30.993       37.811       17.304      960.590     1429.671      299.432        0.423        0.134       75.901       13.893        0.034      345.736       23.479      862.751
07/19/2014  07:47:00      -32.030      -37.994        1.915       26.569       32.816       14.550      705.929     1076.902      211.692        0.223        0.100       49.694        8.288        0.028      345.776       23.551      862.752
07/19/2014  07:48:00      -38.595      -48.326       10.670       56.828       48.564       25.269     3229.385     2358.504      638.538        0.508        0.311       61.847       29.030        0.220      345.925       23.804      862.769
07/19/2014  07:49:00      -18.585      -11.537        4.793       33.116       38.101       27.801     1096.660     1451.678      772.877        0.191        0.166       21.875       20.445        0.874      346.307       24.462      862.766
07/19/2014  07:50:00       -3.150      -20.011       -0.714       29.457       34.231       21.889      867.727     1171.751      479.112        0.146        0.126       20.258       22.988        1.288      346.310       24.466      862.772
07/19/2014  07:51:00      -41.063      -35.248       -0.402       44.024       30.265       19.597     1938.134      915.994      384.042        0.308        0.162       54.117       16.450        0.092      346.031       23.988      862.772
07/19/2014  07:52:00      -76.104      -44.452        6.550       44.301       25.520       19.335     1962.587      651.288      373.837        0.540        0.149       88.135       22.851        0.067      345.913       23.785      862.766
07/19/2014  07:53:00      -86.728      -92.075       -5.361       27.153       38.217       21.109      737.299     1460.568      445.592        0.934        0.132      126.490       16.843        0.018      345.755       23.513      862.768
07/19/2014  07:54:00      -82.826      -99.624       -5.763       23.517       25.922       18.534      553.051      671.931      343.506        0.919        0.078      129.558       10.826        0.007      345.718       23.449      862.762
07/19/2014  07:55:00      -51.199      -53.356       -4.162       30.634       29.387       20.505      938.467      863.579      420.471        0.385        0.111       73.947       17.021        0.053      345.808       23.605      862.771
07/19/2014  07:56:00      -16.753      -55.448        7.554       20.098       36.579       20.287      403.929     1338.023      411.559        0.278        0.108       57.923       10.723        0.034      345.860       23.693      862.787
07/19/2014  07:57:00      -46.574      -72.161        3.260       18.398       34.106       15.852      338.486     1163.205      251.290        0.457        0.088       85.886       12.207        0.020      345.745       23.493      862.787
07/19/2014  07:58:00      -19.779      -38.091        8.592       18.012       21.429       18.411      324.424      459.222      338.956        0.152        0.056       42.921       13.868        0.104      345.871       23.712      862.787
07/19/2014  07:59:00      -40.785      -67.355       -9.057       14.220       23.987       10.202      202.218      575.385      104.084        0.358        0.044       78.741        8.022        0.010      345.780       23.557      862.792
07/19/2014  08:00:00      -49.705      -57.473       -0.982       32.137       26.353       16.681     1032.787      694.495      278.263        0.389        0.100       75.985       13.745        0.033      345.844       23.666      862.795
07/19/2014  08:01:00      -68.298      -52.187        6.505       42.187       31.628       23.713     1779.712     1000.303      562.292        0.539        0.167       85.954       26.532        0.095      346.040       24.001      862.802
07/19/2014  08:02:00      -69.039      -53.237       -0.933       22.759       28.654       20.037      517.969      821.028      401.498        0.467        0.087       87.181       15.512        0.032      346.025       23.976      862.804
07/19/2014  08:03:00      -71.186      -59.160       -0.780       32.069       25.564       19.860     1028.414      653.519      394.432        0.532        0.104       92.560       18.707        0.041      345.976       23.892      862.816
07/19/2014  08:04:00      -91.805      -73.766       -1.998       30.579       21.151       19.304      935.105      447.353      372.648        0.781        0.088      117.769       18.027        0.023      345.945       23.837      862.818
07/19/2014  08:05:00      -73.535      -84.894       -3.209       16.607       21.101       13.644      275.804      445.270      186.149        0.677        0.045      112.314        6.781        0.004      345.912       23.784      862.817
07/19/2014  08:06:00      -74.805      -56.822        0.635       36.066       28.942       16.020     1300.735      837.614      256.634        0.561        0.120       93.939       19.668        0.044      346.200       24.277      862.819
07/19/2014  08:07:00      -47.706      -57.103        0.372       17.032       18.566       11.090      290.074      344.714      122.995        0.315        0.038       74.408        8.419        0.013      346.066       24.046      862.815
07/19/2014  08:08:00      -31.544      -37.631        0.108       14.682       14.490        8.086      215.558      209.966       65.378        0.145        0.025       49.103        8.680        0.031      346.055       24.029      862.814
07/19/2014  08:09:00      -46.614      -60.334       -0.945       15.350       18.086        7.692      235.630      327.092       59.172        0.322        0.031       76.243        4.235        0.003      346.017       23.965      862.805
07/19/2014  08:10:00      -56.995      -43.817       -0.735       13.671       23.570        9.671      186.898      555.539       93.537        0.300        0.042       71.891        3.181        0.002      346.102       24.107      862.791
07/19/2014  08:11:00      -31.559      -11.244        3.046       21.427       11.325       12.422      459.125      128.260      154.317        0.094        0.037       33.502       12.102        0.130      346.435       24.681      862.782
07/19/2014  08:12:00      -58.428      -20.032        4.160       43.936       20.162       17.658     1930.331      406.490      311.797        0.324        0.132       61.767       18.150        0.086      346.475       24.751      862.763
07/19/2014  08:13:00      -48.363       -3.730        2.812       42.040       12.514       16.164     1767.325      156.611      261.269        0.227        0.109       48.507       16.544        0.116      346.432       24.675      862.756
07/19/2014  08:14:00      -35.499      -25.641        7.865       31.572       18.016       17.952      996.800      324.559      322.280        0.181        0.082       43.791       20.663        0.223      346.519       24.827      862.758
07/19/2014  08:15:00      -46.192      -25.054       -1.900       13.501       14.074       10.863      182.280      198.088      118.015        0.163        0.025       52.549        8.335        0.025      346.346       24.526      862.749
07/19/2014  08:16:00      -38.637      -34.409       -6.024       10.677       17.072        7.161      113.997      291.466       51.282        0.158        0.023       51.738        7.100        0.019      346.270       24.395      862.750
07/19/2014  08:17:00      -21.793      -12.919       -1.242       15.655       10.788        9.700      245.080      116.391       94.096        0.055        0.023       25.334        5.142        0.041      346.478       24.755      862.741
07/19/2014  08:18:00      -48.086      -32.410       -1.351       17.262       13.170       11.990      297.964      173.446      143.761        0.199        0.031       57.988        2.118        0.001      346.338       24.516      862.741
07/19/2014  08:19:00      -40.578      -14.593       -2.410       24.524       19.133       15.528      601.413      366.063      241.133        0.154        0.060       43.122        9.469        0.048      346.498       24.788      862.747
07/19/2014  08:20:00      -63.214      -30.126        1.079       36.022       22.144       18.494     1297.582      490.342      342.036        0.352        0.106       70.025       16.892        0.058      346.612       24.985      862.739
07/19/2014  08:21:00      -44.314      -22.607       17.585       52.449       25.642       20.274     2750.902      657.520      411.039        0.330        0.191       49.747       25.159        0.256      346.995       25.646      862.740
07/19/2014  08:22:00      -59.928      -51.716        3.600       34.205       42.544       24.257     1169.983     1810.029      588.393        0.492        0.178       79.158       24.206        0.094      346.541       24.863      862.734
07/19/2014  08:23:00      -52.461      -48.353       -2.994       16.779       20.867       11.940      281.527      435.412      142.571        0.298        0.043       71.345        8.024        0.013      346.386       24.597      862.737
07/19/2014  08:24:00      -39.605      -28.259       10.091       24.521       21.731       21.293      601.288      472.234      453.377        0.200        0.076       48.653       14.755        0.092      346.779       25.272      862.737
07/19/2014  08:25:00      -40.514       -4.915       10.531       43.785       26.887       25.796     1917.116      722.927      665.430        0.254        0.165       40.811       24.988        0.375      346.944       25.557      862.736
07/19/2014  08:26:00      -21.221       -4.321       12.852       35.032       20.246       23.870     1227.221      409.882      569.769        0.142        0.110       21.656       25.983        1.440      347.216       26.027      862.741
07/19/2014  08:27:00      -17.523      -22.302       -0.129       20.642       28.493       19.383      426.105      811.859      375.695        0.121        0.081       28.363       16.660        0.345      346.897       25.475      862.740
07/19/2014  08:28:00      -21.751        6.084       15.796       14.004       13.504       15.947      196.117      182.359      254.316        0.070        0.032       22.586       11.022        0.238      347.123       25.865      862.734
07/19/2014  08:29:00        1.215       33.310       56.143       17.393       28.613       21.341      302.519      818.705      455.427        0.292        0.079       33.332       16.032        0.231      347.596       26.680      862.727
07/19/2014  08:30:00       20.873       45.532       43.568       26.499       22.732       27.665      702.201      516.752      765.362        0.320        0.099       50.088        8.743        0.030      347.022       25.690      862.722
07/19/2014  08:31:00        2.820        9.984       33.981       24.760       17.737       17.873      613.062      314.610      319.447        0.125        0.062       10.374        8.675        0.699      347.582       26.656      862.716
07/19/2014  08:32:00      -36.056        0.279        9.872       22.357       19.294       13.331      499.840      372.258      177.713        0.122        0.052       36.057        9.945        0.076      347.022       25.691      862.710
07/19/2014  08:33:00      -28.253        2.485        7.329       18.572       17.918       17.588      344.906      321.052      309.324        0.092        0.049       28.362       13.192        0.216      347.110       25.843      862.706
07/19/2014  08:34:00      -21.295        0.424       14.614       19.816       17.162       19.017      392.683      294.522      361.644        0.086        0.052       21.299       13.533        0.404      347.646       26.766      862.696
07/19/2014  08:35:00      -16.934       -6.619       -8.491       25.832       15.503       15.975      667.282      240.340      255.198        0.078        0.058       18.181        7.668        0.178      347.102       25.829      862.687
07/19/2014  08:36:00       -0.935       -3.843       13.881       24.011       20.460       24.193      576.538      418.596      585.315        0.089        0.079        3.956       18.837       22.678      347.661       26.792      862.685
07/19/2014  08:37:00      -13.173        2.568        8.176       16.180       16.522       22.303      261.806      272.967      497.405        0.064        0.052       13.421       10.764        0.643      347.481       26.482      862.682
07/19/2014  08:38:00      -32.753       28.787       -8.224       29.963       30.919       24.555      897.785      955.998      602.931        0.221        0.123       43.606       20.995        0.232      346.837       25.372      862.686
07/19/2014  08:39:00      -30.683       14.568       12.998       25.614       18.007       19.050      656.096      324.267      362.916        0.133        0.067       33.966       14.400        0.180      347.266       26.113      862.684
07/19/2014  08:40:00      -22.468       21.486       37.694       14.995       21.364       16.429      224.843      456.422      269.910        0.167        0.048       31.088       11.106        0.128      347.864       27.145      862.685
07/19/2014  08:41:00      -30.028       21.550        7.612       17.371       19.174       26.199      301.758      367.651      686.379        0.139        0.068       36.960       17.246        0.218      347.371       26.294      862.693
07/19/2014  08:42:00      -12.890       10.228       34.314       12.280       16.504       15.426      150.787      272.377      237.946        0.105        0.033       16.455        8.252        0.251      348.164       27.661      862.690
07/19/2014  08:43:00      -15.138      -11.259        3.514       17.764       14.732       15.123      315.560      217.045      228.691        0.056        0.038       18.866        5.101        0.073      347.406       26.354      862.683
07/19/2014  08:44:00      -33.260        1.387        4.665       31.429       31.451       27.335      987.791      989.178      747.212        0.193        0.136       33.289       26.858        0.651      347.551       26.604      862.683
07/19/2014  08:45:00      -26.545       -2.710       24.150       28.413       36.266       26.474      807.304     1315.224      700.876        0.206        0.141       26.683       18.614        0.487      347.584       26.660      862.675
07/19/2014  08:46:00        5.902        2.319       38.688       31.559       37.771       23.733      995.997     1426.617      563.262        0.226        0.149        6.341       12.966        4.181      347.957       27.304      862.667
07/19/2014  08:47:00       -9.067      -22.263       35.536       26.403       33.282       23.106      697.128     1107.677      533.905        0.209        0.117       24.038       16.180        0.453      347.662       26.795      862.668
07/19/2014  08:48:00      -31.689      -14.612       28.815       27.832       28.725       19.688      774.613      825.121      387.621        0.202        0.099       34.896       10.925        0.098      347.559       26.617      862.666
07/19/2014  08:49:00      -28.400      -15.436       26.766       32.987       52.079       28.186     1088.162     2712.228      794.445        0.318        0.230       32.324       25.196        0.608      347.441       26.414      862.672
07/19/2014  08:50:00        1.131      -67.870       14.052       38.633       55.619       36.767     1492.530     3093.422     1351.807        0.537        0.297       67.879       24.029        0.125      347.288       26.150      862.673
07/19/2014  08:51:00       49.640     -101.244       -7.392       47.939       54.328       35.053     2298.128     2951.532     1228.703        0.962        0.324      112.759       17.929        0.025      347.205       26.007      862.673
07/19/2014  08:52:00       10.664       13.027       42.578       27.316       32.871       22.846      746.159     1080.532      521.933        0.222        0.117       16.835       17.996        1.143      348.123       27.589      862.684
07/19/2014  08:53:00      -17.023        2.136       22.828       22.298       34.389       31.509      497.189     1182.590      992.814        0.174        0.134       17.156       30.193        3.097      347.864       27.144      862.670
07/19/2014  08:54:00      -27.379      -36.914       15.356       47.340       28.167       23.317     2241.070      793.394      543.671        0.296        0.179       45.959       23.816        0.269      347.381       26.309      862.669
07/19/2014  08:55:00       -3.390      -33.575       17.777       42.022       28.513       24.734     1765.819      812.991      611.781        0.232        0.160       33.745       24.615        0.532      347.661       26.793      862.676
07/19/2014  08:56:00      -14.474      -14.537       16.432       28.877       19.306       15.661      833.855      372.741      245.271        0.107        0.073       20.514       11.504        0.314      347.649       26.771      862.692
07/19/2014  08:57:00       -0.237      -29.771       19.577       27.453       24.765       21.861      753.665      613.329      477.883        0.156        0.092       29.772       19.167        0.414      347.617       26.718      862.710
07/19/2014  08:58:00      -17.353      -24.454        4.418        9.388       12.724       10.216       88.135      161.891      104.360        0.064        0.018       29.985        5.792        0.037      347.233       26.056      862.709
07/19/2014  08:59:00       -6.579      -31.304        7.904       16.265       24.865       14.364      264.558      618.249      206.335        0.109        0.054       31.988        8.284        0.067      347.719       26.892      862.722
07/19/2014  09:00:00        1.455      -46.103       28.948       45.615       82.904       33.687     2080.687     6872.998     1134.812        0.653        0.504       46.126       41.439        0.807      348.113       27.572      862.725
07/19/2014  09:01:00       43.514     -110.513       -3.745       62.013       82.263       46.667     3845.638     6767.126     2177.821        1.345        0.640      118.771       43.091        0.132      347.544       26.590      862.725
07/19/2014  09:02:00      111.803     -174.110       -0.754       64.915       97.618       49.537     4213.931     9529.200     2453.922        2.950        0.810      206.916       44.335        0.046      347.535       26.572      862.721
07/19/2014  09:03:00       30.207      -13.633       17.455       63.406       75.493       40.524     4020.344     5699.236     1642.208        0.638        0.568       33.141       42.847        1.671      348.027       27.423      862.722
07/19/2014  09:04:00       67.763      -51.170        3.815       36.041       78.357       33.492     1298.987     6139.769     1121.732        0.789        0.428       84.913       36.032        0.180      347.645       26.764      862.722
07/19/2014  09:05:00       21.500       10.483       51.361       37.355       70.426       50.076     1395.398     4959.759     2507.617        0.603        0.443       23.919       42.279        3.124      347.973       27.330      862.709
07/19/2014  09:06:00       50.133      -45.669       26.850       56.121       71.386       47.351     3149.561     5095.995     2242.138        0.790        0.524       67.815       52.897        0.608      347.866       27.147      862.708
07/19/2014  09:07:00        5.560        4.498       64.751       24.011       37.892       21.697      576.536     1435.786      470.742        0.336        0.124        7.152       18.037        6.360      348.216       27.751      862.703
07/19/2014  09:08:00       24.925       27.874       57.650       43.223       33.059       29.949     1868.219     1092.903      896.944        0.429        0.193       37.393       20.133        0.290      348.019       27.409      862.696
07/19/2014  09:09:00       54.646      -49.396       20.288       52.293       57.947       44.089     2734.532     3357.879     1943.822        0.694        0.402       73.662       33.462        0.206      347.771       26.982      862.696
07/19/2014  09:10:00      103.283      -14.816        8.917       45.780       40.760       39.299     2095.827     1661.400     1544.432        0.813        0.265      104.341       26.655        0.065      347.469       26.461      862.700
07/19/2014  09:11:00       59.446      -36.734       20.421       54.157       60.502       49.496     2933.023     3660.491     2449.894        0.717        0.452       69.880       49.259        0.497      347.925       27.248      862.690
07/19/2014  09:12:00       72.709      -24.147       33.135       50.951       86.340       52.480     2596.017     7454.592     2754.150        0.988        0.640       76.614       54.790        0.511      347.957       27.305      862.695
07/19/2014  09:13:00       62.296       -4.619       41.815       69.110       47.070       52.033     4776.203     2215.569     2707.437        0.767        0.485       62.467       40.769        0.426      348.033       27.435      862.712
07/19/2014  09:14:00       46.412       19.741       55.570       50.019       47.938       30.980     2501.858     2298.100      959.784        0.569        0.288       50.436       28.197        0.313      347.847       27.114      862.726
07/19/2014  09:15:00       14.388       22.590       45.642       39.578       42.750       28.750     1566.425     1827.603      826.559        0.351        0.211       26.783       25.918        0.936      348.182       27.691      862.724
07/19/2014  09:16:00        9.574      -19.778        8.065       33.447       62.681       23.515     1118.724     3928.900      552.936        0.307        0.280       21.973       22.056        1.008      347.797       27.025      862.709
07/19/2014  09:17:00       19.450        4.536       20.156       27.114       38.698       26.158      735.145     1497.569      684.224        0.186        0.146       19.972       22.666        1.288      347.844       27.109      862.713
07/19/2014  09:18:00       10.365       21.272       44.917       36.185       37.968       33.512     1309.334     1441.537     1123.085        0.322        0.194       23.662       29.135        1.516      348.184       27.695      862.694
07/19/2014  09:19:00       60.542      -87.700       31.858       66.334      140.851       65.439     4400.139    19838.893     4282.250        2.044        1.426      106.567       86.299        0.656      347.867       27.145      862.693
07/19/2014  09:20:00       31.435       -8.522       34.866       44.491       70.651       47.086     1979.441     4991.506     2217.113        0.573        0.459       32.570       51.346        2.485      347.728       26.908      862.711
07/19/2014  09:21:00       18.220      -26.980       21.820       28.566       48.887       31.175      816.003     2389.899      971.898        0.286        0.209       32.556       28.338        0.758      347.933       27.262      862.702
07/19/2014  09:22:00       40.647       -7.901       32.701       30.653       28.039       31.267      939.586      786.212      977.624        0.274        0.135       41.408       22.956        0.307      347.818       27.064      862.704
07/19/2014  09:23:00       15.880      -14.149       39.361       24.297       33.617       20.124      590.326     1130.077      404.962        0.206        0.106       21.269       12.510        0.346      347.937       27.269      862.702
07/19/2014  09:24:00       21.418       17.353       29.486       26.204       44.876       23.530      686.639     2013.817      553.679        0.244        0.163       27.565       16.070        0.340      347.824       27.073      862.689
07/19/2014  09:25:00        3.477      -70.883       12.450       24.983       37.317       31.159      624.129     1392.574      970.871        0.409        0.149       70.968       17.544        0.061      347.957       27.304      862.700
07/19/2014  09:26:00       20.530      -41.375       30.540       26.909       55.946       39.650      724.071     3129.969     1572.100        0.425        0.271       46.188       37.746        0.668      348.170       27.670      862.696
07/19/2014  09:27:00       -3.770      -25.252       16.938       22.849       25.614       26.291      522.095      656.072      691.226        0.140        0.093       25.532       14.641        0.329      348.033       27.435      862.692
07/19/2014  09:28:00       -4.985      -25.842       11.146       24.327       41.445       25.622      591.788     1717.688      656.486        0.189        0.148       26.318       16.496        0.393      348.024       27.420      862.689
07/19/2014  09:29:00        3.656      -33.332       20.837       28.125       54.777       27.929      791.038     3000.502      780.027        0.306        0.229       33.532       31.777        0.898      348.273       27.850      862.691
07/19/2014  09:30:00        6.305       -1.269       40.407       24.520       36.428       20.216      601.235     1326.964      408.677        0.201        0.117        6.432       20.468       10.128      348.489       28.225      862.690
07/19/2014  09:31:00        5.080       31.976       32.575       22.928       28.045       20.925      525.703      786.504      437.847        0.193        0.088       32.377       17.064        0.278      348.117       27.578      862.690
07/19/2014  09:32:00       -9.252       25.357       50.247       24.852       25.686       21.527      617.645      659.748      463.419        0.250        0.087       26.992       16.127        0.357      348.221       27.760      862.675
07/19/2014  09:33:00        1.621      -12.780       27.177       14.339       20.847       15.113      205.616      434.608      228.414        0.089        0.043       12.883       12.681        0.969      348.324       27.937      862.670
07/19/2014  09:34:00      -12.024      -24.890       12.058       22.498       19.858       13.024      506.162      394.338      169.612        0.099        0.054       27.642       14.033        0.258      347.962       27.311      862.660
07/19/2014  09:35:00        2.648       12.918       20.993       18.020       17.116       13.142      324.733      292.950      172.707        0.070        0.040       13.187        4.295        0.106      348.518       28.273      862.653
07/19/2014  09:36:00       30.103       41.128       36.638       41.416       29.531       18.269     1715.311      872.064      333.738        0.343        0.146       50.967       14.919        0.086      348.160       27.656      862.643
07/19/2014  09:37:00       39.137       75.904       68.737       48.408       41.972       35.594     2343.311     1761.657     1266.933        0.869        0.269       85.400       27.710        0.105      347.875       27.161      862.636
07/19/2014  09:38:00       63.986       41.252       16.557       35.185       30.355       27.703     1237.959      921.424      767.469        0.450        0.146       76.131       15.992        0.044      347.909       27.220      862.640
07/19/2014  09:39:00       82.975       51.199       28.541       49.259       33.771       38.004     2426.493     1140.459     1444.290        0.766        0.251       97.499       21.841        0.050      347.902       27.207      862.648
07/19/2014  09:40:00       44.815      -66.167        4.375       36.855       85.099       28.071     1358.308     7241.844      787.992        0.790        0.469       79.915       28.520        0.127      348.068       27.494      862.640
07/19/2014  09:41:00       21.107      -84.892        1.381       31.353       58.983       29.026      982.988     3478.958      842.513        0.648        0.265       87.477       20.231        0.053      348.133       27.607      862.630
07/19/2014  09:42:00       17.087      -43.854        8.083       39.387       65.349       36.801     1551.352     4270.476     1354.306        0.473        0.359       47.065       32.530        0.478      348.520       28.277      862.617
07/19/2014  09:43:00       37.087      -77.624        1.738       46.021       68.567       41.091     2117.960     4701.489     1688.460        0.795        0.425       86.029       38.617        0.202      348.369       28.014      862.612
07/19/2014  09:44:00       20.771      -17.824       39.147       42.463       59.985       37.387     1803.132     3598.204     1397.814        0.454        0.340       27.371       32.507        1.411      348.405       28.077      862.607
07/19/2014  09:45:00       14.477      -15.823       40.892       28.953       69.632       34.813      838.291     4848.565     1211.947        0.451        0.345       21.446       41.322        3.712      348.475       28.199      862.595
07/19/2014  09:46:00       38.277       44.981       55.783       48.913       32.468       28.151     2392.486     1054.146      792.464        0.542        0.212       59.063       18.655        0.100      348.393       28.056      862.592
07/19/2014  09:47:00       58.830       34.171       37.390       64.138       30.293       35.035     4113.634      917.690     1227.452        0.614        0.313       68.034       20.276        0.089      348.086       27.526      862.602
07/19/2014  09:48:00      107.592       79.180       18.312       58.125       63.688       41.248     3378.528     4056.169     1701.410        1.366        0.457      133.587       36.424        0.074      347.892       27.190      862.610
07/19/2014  09:49:00       61.146       35.967        1.398       52.461       66.111       47.799     2752.176     4370.604     2284.768        0.722        0.470       70.940       30.732        0.188      348.182       27.690      862.596
07/19/2014  09:50:00       26.250      -18.270       34.666       56.200       61.154       44.743     3158.395     3739.847     2001.906        0.556        0.445       31.983       32.188        1.013      348.599       28.412      862.599
07/19/2014  09:51:00       42.299      -75.225       30.718       66.068       99.604       52.028     4364.925     9921.002     2706.950        1.269        0.850       86.302       67.972        0.620      348.461       28.174      862.604
07/19/2014  09:52:00       64.150      -89.559        2.230       56.568       76.744       35.701     3199.978     5889.630     1274.551        1.125        0.518      110.164       47.165        0.183      348.008       27.391      862.619
07/19/2014  09:53:00       12.170      -66.954       -6.693       40.517       36.534       23.930     1641.665     1334.708      572.661        0.411        0.177       68.052       19.494        0.082      348.179       27.687      862.609
07/19/2014  09:54:00        7.245      -20.633       46.601       39.197       57.567       38.739     1536.410     3313.947     1500.735        0.450        0.318       21.868       32.763        2.245      348.844       28.838      862.609
07/19/2014  09:55:00       20.943        3.619       48.578       36.953       84.950       47.035     1365.560     7216.468     2212.296        0.680        0.540       21.253       57.626        7.352      348.233       27.781      862.610
07/19/2014  09:56:00       -1.790      -73.103      -14.011       30.275       24.721       29.981      916.562      611.106      898.850        0.398        0.121       73.125       25.253        0.119      347.873       27.158      862.609
07/19/2014  09:57:00      -30.647       -7.089       13.439       17.141       21.833       23.589      293.817      476.686      556.452        0.125        0.066       31.456       16.717        0.282      348.327       27.943      862.611
07/19/2014  09:58:00      -90.541       26.410       -4.494       23.914       17.540       18.680      571.883      307.641      348.929        0.507        0.061       94.314       11.276        0.014      347.812       27.053      862.600
07/19/2014  09:59:00      -34.742       13.033       -2.286       17.372       20.166        8.498      301.774      406.668       72.217        0.108        0.039       37.106        5.867        0.025      347.837       27.095      862.599
07/19/2014  10:00:00      -20.918       12.942       15.075       26.615       15.840       23.296      708.334      250.893      542.726        0.117        0.075       24.598       17.107        0.484      348.571       28.366      862.605
07/19/2014  10:01:00       46.556       37.406       19.787       45.761       43.341       36.671     2094.088     1878.463     1344.774        0.464        0.266       59.721       19.966        0.112      348.880       28.899      862.600
07/19/2014  10:02:00       46.749       33.902       20.721       45.658       33.945       32.094     2084.613     1152.235     1030.056        0.401        0.213       57.747       17.482        0.092      348.918       28.965      862.604
07/19/2014  10:03:00      182.945      122.309       39.840       48.681       51.825       45.668     2369.854     2685.832     2085.589        2.858        0.357      220.064       32.420        0.022      348.175       27.675      862.607
07/19/2014  10:04:00      160.864      110.963       39.842       52.961       49.932       40.281     2804.867     2493.237     1622.590        2.335        0.346      195.422       28.448        0.021      348.000       27.374      862.599
07/19/2014  10:05:00       70.119       47.958       38.675       54.646       37.190       28.855     2986.143     1383.071      832.626        0.696        0.260       84.951       19.857        0.055      348.735       28.649      862.598
07/19/2014  10:06:00        7.601      -49.330        5.497       41.444       70.700       35.615     1717.589     4998.458     1268.431        0.525        0.399       49.912       36.066        0.522      348.735       28.649      862.595
07/19/2014  10:07:00       26.945      -21.136       35.713       41.843       50.521       37.590     1750.857     2552.406     1412.981        0.408        0.286       34.245       34.276        1.002      349.051       29.196      862.594
07/19/2014  10:08:00       23.581       35.245       57.251       40.133       34.020       30.372     1610.640     1157.329      922.437        0.438        0.185       42.406       21.795        0.264      348.898       28.931      862.591
07/19/2014  10:09:00       55.654       60.812       50.248       47.451       51.348       34.928     2251.638     2636.623     1219.968        0.771        0.305       82.435       22.027        0.071      348.706       28.599      862.584
07/19/2014  10:10:00       51.672       23.457       25.426       39.527       43.601       29.026     1562.377     1901.068      842.486        0.409        0.215       56.747       12.808        0.051      348.757       28.687      862.590
07/19/2014  10:11:00       19.024       35.252       30.221       40.474       34.945       32.890     1638.159     1221.165     1081.765        0.323        0.197       40.057       15.906        0.158      349.044       29.184      862.577
07/19/2014  10:12:00       20.109       46.402       55.148       31.452       51.657       34.937      989.216     2668.399     1220.606        0.524        0.244       50.572       27.777        0.302      348.981       29.074      862.573
07/19/2014  10:13:00       16.027      -14.110       31.597       32.187       47.495       34.971     1036.005     2255.791     1222.946        0.298        0.226       21.353       31.698        2.204      348.756       28.686      862.563
07/19/2014  10:14:00       -9.130      -41.883       -1.456       14.773       21.868       19.275      218.242      478.200      371.516        0.145        0.053       42.866        8.872        0.043      348.162       27.656      862.553
07/19/2014  10:15:00      -35.971      -37.456        9.147       20.184       22.957       13.350      407.401      527.023      178.215        0.195        0.056       51.931       12.179        0.055      348.264       27.833      862.531
07/19/2014  10:16:00      -12.651        7.034       37.092       15.120       16.513       16.818      228.605      272.665      282.837        0.118        0.039       14.474       10.665        0.543      349.623       30.186      862.512
07/19/2014  10:17:00       45.481       -1.966       45.656       53.097       96.409       47.401     2819.246     9294.720     2246.841        0.926        0.718       45.524       55.759        1.500      348.823       28.800      862.506
07/19/2014  10:18:00       91.338       65.293       50.810       56.882       98.980       46.313     3235.549     9797.065     2144.899        1.518        0.759      112.275       28.153        0.063      348.622       28.452      862.486
07/19/2014  10:19:00       -4.385       67.822      103.071       28.194       49.282       24.797      794.902     2428.704      614.885        0.954        0.192       67.964       24.703        0.132      348.879       28.898      862.485
07/19/2014  10:20:00      122.670      115.751       85.182       72.650       55.613       54.959     5277.952     3092.822     3020.520        2.354        0.570      168.660       41.646        0.061      348.234       27.779      862.486
07/19/2014  10:21:00       93.189       85.649       58.413       80.400       57.371       35.813     6464.096     3291.423     1282.553        1.523        0.552      126.570       38.560        0.093      348.654       28.506      862.482
07/19/2014  10:22:00       62.611      -65.259        7.889       40.512       45.400       35.564     1641.239     2061.121     1264.826        0.660        0.248       90.437       29.163        0.104      348.535       28.303      862.488
07/19/2014  10:23:00       51.617      -38.602       14.583       50.576       72.575       49.922     2557.969     5267.184     2492.182        0.734        0.516       64.455       56.779        0.776      349.026       29.154      862.483
07/19/2014  10:24:00       38.064       13.396       69.396       62.437       66.446       47.506     3898.422     4415.011     2256.814        0.851        0.529       40.353       54.566        1.829      348.900       28.934      862.483
07/19/2014  10:25:00       51.288      -46.227       13.406       39.610       40.902       22.082     1568.917     1673.001      487.615        0.434        0.186       69.047       20.822        0.091      348.507       28.255      862.489
07/19/2014  10:26:00       16.889      -57.300        3.445       22.267       24.028       24.914      495.819      577.367      620.708        0.264        0.085       59.737       13.228        0.049      348.351       27.984      862.471
07/19/2014  10:27:00       31.338        2.441       20.386       39.285       42.771       34.540     1543.298     1829.392     1193.016        0.298        0.228       31.433       32.822        1.090      348.600       28.417      862.460
07/19/2014  10:28:00      105.409       57.289       41.160       78.773       74.108       51.082     6205.144     5492.004     2609.377        1.519        0.715      119.971       17.287        0.021      348.660       28.517      862.444
07/19/2014  10:29:00      169.156      103.499       29.536       93.265       73.146       62.622     8698.335     5350.342     3921.561        2.908        0.899      198.307       53.875        0.074      348.951       29.020      862.438
07/19/2014  10:30:00       21.918       70.393       64.529       34.496       38.553       38.035     1189.975     1486.313     1446.670        0.686        0.206       73.726       19.548        0.070      348.833       28.818      862.433
07/19/2014  10:31:00      101.629       58.324       34.129       83.695       44.652       39.752     7004.811     1993.786     1580.208        1.273        0.529      117.175       24.249        0.043      349.011       29.126      862.421
07/19/2014  10:32:00      113.229       64.887        5.771       60.299       37.742       36.487     3635.954     1424.466     1331.337        1.173        0.320      130.503       21.596        0.027      348.583       28.384      862.431
07/19/2014  10:33:00       82.707       71.188        9.636       67.026       35.581       35.980     4492.475     1266.037     1294.596        0.953        0.353      109.124       24.391        0.050      349.054       29.199      862.407
07/19/2014  10:34:00      126.190       80.432        6.739       49.848       35.622       38.242     2484.868     1268.949     1462.445        1.383        0.261      149.644        7.806        0.003      349.047       29.188      862.410
07/19/2014  10:35:00       32.097       41.245       28.978       33.705       36.178       25.764     1136.020     1308.842      663.800        0.334        0.155       52.262       15.679        0.090      348.914       28.960      862.404
07/19/2014  10:36:00       52.738       55.278       19.935       49.441       41.690       36.340     2444.391     1738.022     1320.560        0.587        0.275       76.400       24.428        0.102      349.042       29.179      862.402
07/19/2014  10:37:00       83.923       63.919       40.872       68.884       56.952       52.465     4745.037     3243.548     2752.531        1.177        0.537      105.493       26.073        0.061      349.117       29.309      862.391
07/19/2014  10:38:00       62.795       72.459        3.512       43.024       29.827       37.820     1851.035      889.639     1430.335        0.669        0.209       95.882       15.546        0.026      348.826       28.805      862.400
07/19/2014  10:39:00      -12.858       30.456       -0.544       25.454       29.372       25.991      647.885      862.711      675.549        0.164        0.109       33.059       20.761        0.394      349.221       29.489      862.384
07/19/2014  10:40:00       -2.905       24.081       14.733       20.543       40.136       22.962      422.026     1610.929      527.256        0.168        0.128       24.256       18.553        0.585      349.613       30.172      862.384
07/19/2014  10:41:00       64.056       38.312       20.350       42.313       35.935       36.403     1790.397     1291.312     1325.159        0.520        0.220       74.639       23.821        0.102      349.258       29.556      862.381
07/19/2014  10:42:00       81.215       60.971        4.774       46.132       36.801       31.665     2128.178     1354.343     1002.665        0.741        0.224      101.554       21.143        0.043      348.872       28.887      862.380
07/19/2014  10:43:00      108.116       95.655       21.335       64.274       51.365       46.997     4131.112     2638.406     2208.693        1.513        0.449      144.357       31.959        0.049      349.101       29.280      862.369
07/19/2014  10:44:00       57.934       69.928       11.072       54.851       53.003       41.636     3008.624     2809.352     1733.575        0.796        0.378       90.809       38.396        0.179      349.398       29.797      862.370
07/19/2014  10:45:00       43.676       13.977       -3.271       47.745       50.652       34.900     2279.538     2565.588     1217.978        0.409        0.303       45.857       30.702        0.448      349.211       29.473      862.364
07/19/2014  10:46:00       15.955      -18.239       38.141       34.406       68.867       42.348     1183.752     4742.682     1793.394        0.488        0.386       24.232       46.200        3.635      349.845       30.574      862.356
07/19/2014  10:47:00       72.639      -69.938       34.717       76.243      103.336       68.673     5812.974    10678.267     4715.975        1.629        1.060      100.835       78.477        0.606      349.570       30.094      862.332
07/19/2014  10:48:00      103.981      -21.240       47.007       82.787      153.378       72.002     6853.755    23524.760     5184.285        2.451        1.778      106.129       96.496        0.827      349.259       29.554      862.320
07/19/2014  10:49:00       40.059       14.505       41.496       56.839       59.537       38.455     3230.703     3544.605     1478.753        0.589        0.413       42.604       30.906        0.526      349.186       29.429      862.325
07/19/2014  10:50:00       40.818       44.831       56.014       56.535       45.815       38.480     3196.239     2099.019     1480.736        0.679        0.339       60.629       38.562        0.405      349.272       29.578      862.318
07/19/2014  10:51:00       64.311       39.328        9.179       47.333       47.970       36.376     2240.449     2301.149     1323.189        0.581        0.293       75.383       26.675        0.125      349.487       29.951      862.307
07/19/2014  10:52:00       21.491       34.084       48.908       48.608       55.537       48.552     2362.747     3084.381     2357.269        0.591        0.390       40.294       42.868        1.132      349.799       30.494      862.301
07/19/2014  10:53:00       64.961       66.844       28.185       33.049       25.640       40.974     1092.218      657.410     1678.836        0.645        0.171       93.210       19.601        0.044      348.822       28.801      862.295
07/19/2014  10:54:00       33.420       27.232       48.433       48.195       35.343       33.033     2322.744     1249.136     1091.147        0.443        0.233       43.110       18.991        0.194      349.445       29.879      862.291
07/19/2014  10:55:00       23.116       11.996       42.582       40.952       53.513       41.599     1677.028     2863.591     1730.454        0.438        0.314       26.043       44.233        2.885      349.557       30.074      862.285
07/19/2014  10:56:00       43.033       25.961       31.257       34.573       31.232       28.201     1195.274      975.425      795.295        0.323        0.148       50.258       13.778        0.075      349.368       29.745      862.283
07/19/2014  10:57:00       64.978      -47.626       20.304       34.500       36.237       27.813     1190.233     1313.129      773.580        0.509        0.164       80.563       23.181        0.083      349.252       29.543      862.274
07/19/2014  10:58:00       29.072      -34.955       31.958       28.892       54.483       37.233      834.754     2968.357     1386.293        0.414        0.259       45.465       40.234        0.783      349.277       29.587      862.275
07/19/2014  10:59:00      -11.147      -27.264       -5.894       22.446       27.405       20.350      503.834      751.052      414.110        0.129        0.083       29.455       18.820        0.408      348.988       29.086      862.262
07/19/2014  11:00:00       36.813        0.846       32.678       57.160       35.422       41.961     3267.321     1254.702     1760.694        0.435        0.314       36.823       29.593        0.646      349.614       30.172      862.257
07/19/2014  11:01:00       96.781       12.823       53.737       99.201       74.695       41.398     9840.892     5579.389     1713.827        1.477        0.857       97.627       44.207        0.205      349.502       29.977      862.237
07/19/2014  11:02:00       98.620       79.127       51.594       76.669       42.686       62.088     5878.134     1822.109     3854.971        1.510        0.578      126.440       59.446        0.221      349.210       29.471      862.244
07/19/2014  11:03:00       93.094       70.160       22.964       76.513       38.654       31.623     5854.279     1494.147     1000.043        1.123        0.417      116.571        9.000        0.006      349.267       29.569      862.226
07/19/2014  11:04:00       78.907       54.735       68.374       70.204       74.864       48.145     4928.607     5604.669     2317.978        1.337        0.643       96.032       47.158        0.241      349.647       30.228      862.221
07/19/2014  11:05:00       56.662      111.001       95.825       67.365       51.271       55.768     4538.073     2628.743     3110.079        1.749        0.514      124.627       52.481        0.177      349.129       29.330      862.225
07/19/2014  11:06:00       96.748      102.020       33.094       33.178       25.502       41.232     1100.781      650.352     1700.097        1.216        0.173      140.600        4.637        0.001      348.929       28.984      862.219
07/19/2014  11:07:00       25.329       39.744       13.452       24.895       51.103       30.671      619.757     2611.508      940.737        0.329        0.209       47.129       23.064        0.239      349.505       29.982      862.222
07/19/2014  11:08:00       47.878      -57.841        4.060       39.153       47.415       28.095     1532.976     2248.192      789.321        0.511        0.229       75.086       31.733        0.179      349.444       29.879      862.208
07/19/2014  11:09:00       -7.271      -49.737       15.626       21.333       43.956       18.031      455.100     1932.141      325.116        0.274        0.136       50.265       11.979        0.057      349.623       30.186      862.205
07/19/2014  11:10:00       17.390      -36.462       13.699       41.558       38.877       31.690     1727.041     1511.441     1004.257        0.303        0.212       40.396       11.680        0.084      349.686       30.297      862.194
07/19/2014  11:11:00      -10.153      -24.728       19.935       28.988       43.637       28.363      840.276     1904.188      804.475        0.233        0.177       26.731       25.725        0.926      350.128       31.066      862.191
07/19/2014  11:12:00       10.371     -127.643      -16.442       46.327       52.137       39.861     2146.202     2718.273     1588.893        1.156        0.323      128.064       28.077        0.048      349.541       30.044      862.176
07/19/2014  11:13:00       13.248      -59.712       20.280       36.356       45.941       30.703     1321.729     2110.547      942.688        0.426        0.219       61.164       23.165        0.143      349.852       30.585      862.177
07/19/2014  11:14:00       20.938      -55.010       34.971       35.820       81.057       34.939     1283.064     6570.222     1220.740        0.688        0.454       58.860       44.743        0.578      349.745       30.399      862.169
07/19/2014  11:15:00       29.173        6.634       11.531       38.431       56.072       36.585     1476.953     3144.117     1338.457        0.349        0.298       29.917       28.376        0.900      349.744       30.396      862.168
07/19/2014  11:16:00       55.685       69.659       50.314      106.748       75.576       69.533    11395.166     5711.790     4834.856        1.621        1.097       89.180       53.332        0.358      349.853       30.585      862.170
07/19/2014  11:17:00      129.553       39.906        5.449       81.009       46.854       37.595     6562.465     2195.322     1413.401        1.429        0.509      135.560       28.261        0.043      349.391       29.785      862.187
07/19/2014  11:18:00       71.963      -50.535       10.460       38.411       38.913       36.228     1475.405     1514.251     1312.470        0.607        0.215       87.934       27.224        0.096      349.411       29.819      862.187
07/19/2014  11:19:00       94.245       31.301       31.776       50.307       63.416       46.734     2530.831     4021.529     2184.051        0.980        0.437       99.308       42.439        0.183      349.455       29.896      862.175
07/19/2014  11:20:00       41.171        3.435       19.653       35.495       25.019       28.463     1259.909      625.935      810.162        0.239        0.135       41.314       26.665        0.417      349.661       30.254      862.180
07/19/2014  11:21:00        6.198       43.968       62.551       31.452       38.972       20.338      989.198     1518.791      413.633        0.440        0.146       44.402       14.411        0.105      350.246       31.270      862.159
07/19/2014  11:22:00       52.470       80.477       79.568       59.321       47.829       52.689     3519.012     2287.632     2776.111        1.207        0.429       96.071       45.584        0.225      349.711       30.339      862.149
07/19/2014  11:23:00       27.170       63.269        6.953       67.347       43.744       39.918     4535.652     1913.530     1593.482        0.641        0.402       68.856       15.584        0.051      349.867       30.611      862.150
07/19/2014  11:24:00      -35.924       20.637        2.555       37.968       23.027       37.291     1441.561      530.229     1390.625        0.254        0.168       41.429       33.385        0.649      350.065       30.956      862.135
07/19/2014  11:25:00      105.570       45.954       31.470       71.403       41.673       31.062     5098.344     1736.663      964.821        1.102        0.390      115.139       29.747        0.067      350.015       30.867      862.127
07/19/2014  11:26:00      143.040       91.919       10.770       75.969       55.638       45.965     5771.321     3095.556     2112.764        2.000        0.549      170.029       40.690        0.057      349.666       30.261      862.115
07/19/2014  11:27:00       43.777      124.674      -19.610       30.910       63.638       22.648      955.426     4049.748      512.929        1.168        0.276      132.136       18.545        0.020      349.475       29.931      862.125
07/19/2014  11:28:00       35.067       77.885        2.381       30.304       38.357       29.326      918.340     1471.252      860.010        0.527        0.162       85.415       29.848        0.122      349.888       30.647      862.112
07/19/2014  11:29:00        8.329       22.008       26.721       31.913       21.402       22.893     1018.452      458.026      524.069        0.163        0.100       23.531       17.841        0.575      350.255       31.284      862.106
07/19/2014  11:30:00      -61.115       11.791        2.228       23.879       21.616       22.547      570.211      467.256      508.369        0.271        0.077       62.242       15.137        0.059      349.793       30.482      862.088
07/19/2014  11:31:00      -85.149       35.690        5.086       42.485       30.425       24.583     1804.959      925.706      604.314        0.594        0.167       92.327       22.294        0.058      349.756       30.419      862.072
07/19/2014  11:32:00       -2.319       28.716       38.384       35.142       23.833       24.767     1234.939      568.033      613.380        0.236        0.121       28.809       21.612        0.563      350.363       31.473      862.058
07/19/2014  11:33:00      -16.370       -0.829       23.350       26.322       17.773       26.293      692.861      315.897      691.346        0.126        0.085       16.391       23.855        2.118      350.497       31.705      862.063
07/19/2014  11:34:00       31.519       16.923       18.591       44.768       25.416       22.537     2004.145      645.988      507.927        0.239        0.158       35.774       14.403        0.162      350.018       30.875      862.054
07/19/2014  11:35:00      111.504       90.245       57.980       59.600       38.399       57.799     3552.179     1474.507     3340.777        1.615        0.418      143.448       36.165        0.064      349.754       30.414      862.034
07/19/2014  11:36:00      129.097      109.146       98.350      132.206       68.674       79.670    17478.297     4716.123     6347.277        3.339        1.427      169.053       81.923        0.235      349.944       30.744      862.018
07/19/2014  11:37:00      116.137      109.180       74.612       99.123       78.083       73.896     9825.317     6096.985     5460.586        2.617        1.069      159.399       70.004        0.193      349.940       30.735      862.027
07/19/2014  11:38:00       27.191       17.983       33.499       56.127       96.782       77.697     3150.249     9366.746     6036.900        1.037        0.928       32.600       74.901        5.279      349.951       30.756      862.030
07/19/2014  11:39:00      -19.571      -34.345      -10.561       53.807       41.377       34.303     2895.179     1712.016     1176.693        0.373        0.289       39.530       33.551        0.720      349.522       30.012      862.045
07/19/2014  11:40:00     -130.547      -17.151      -14.374       27.033       34.036       21.106      730.768     1158.464      445.449        0.994        0.117      131.669       11.583        0.008      349.550       30.062      862.018
07/19/2014  11:41:00      -77.791       25.181        5.173       38.491       34.024       29.494     1481.558     1157.658      869.887        0.511        0.175       81.765       23.755        0.084      349.865       30.607      862.001
07/19/2014  11:42:00        3.442       48.801       33.727       38.106       49.545       32.895     1452.090     2454.711     1082.072        0.426        0.249       48.922       35.993        0.541      350.648       31.970      861.997
07/19/2014  11:43:00      -16.197        2.974       23.014       39.965       25.366       18.370     1597.179      643.410      337.441        0.169        0.129       16.468       17.684        1.153      350.253       31.281      862.004
07/19/2014  11:44:00       91.862       72.062        7.143       45.710       37.791       40.134     2089.392     1428.135     1610.754        0.940        0.256      116.754       24.291        0.043      350.211       31.208      861.996
07/19/2014  11:45:00       96.292       -6.411       84.126       83.865      127.029       78.958     7033.294    16136.290     6234.354        2.289        1.470       96.505       76.365        0.626      350.089       30.995      861.979
07/19/2014  11:46:00       62.592       86.270      130.041       70.723      120.617       85.085     5001.678    14548.464     7239.539        2.752        1.339      106.584       98.527        0.855      349.960       30.771      861.977
07/19/2014  11:47:00       12.559      -59.144        4.765       51.332       57.619       37.526     2634.966     3319.907     1408.194        0.552        0.368       60.462       38.144        0.398      349.773       30.446      861.973
07/19/2014  11:48:00       37.634       13.625       26.174       57.237       41.632       35.929     3276.092     1733.195     1290.915        0.429        0.315       40.025       22.523        0.317      350.334       31.422      861.945
07/19/2014  11:49:00       45.512       45.688       46.920       49.526       49.772       33.389     2452.872     2477.284     1114.819        0.620        0.302       64.489       22.913        0.126      350.542       31.784      861.935
07/19/2014  11:50:00       79.446     -140.315      -25.077       59.424       76.016       44.145     3531.228     5778.405     1948.773        1.894        0.563      161.245       43.388        0.072      350.044       30.916      861.929
07/19/2014  11:51:00      143.907     -272.864      -36.292       78.237       74.174       45.990     6121.077     5501.834     2115.076        5.511        0.687      308.487       42.030        0.019      349.780       30.455      861.907
07/19/2014  11:52:00       91.696     -157.070       -7.165       85.054       89.484       42.383     7234.203     8007.460     1796.327        2.508        0.852      181.877       58.855        0.105      349.903       30.670      861.910
07/19/2014  11:53:00      140.527     -189.451      -31.227       44.856       45.776       32.003     2012.038     2095.419     1024.223        3.087        0.257      235.881       17.272        0.005      349.791       30.474      861.908
07/19/2014  11:54:00       77.026      -24.798       38.007       79.787       78.556       54.937     6366.003     6170.977     3018.123        1.177        0.778       80.919       65.859        0.662      350.301       31.365      861.904
07/19/2014  11:55:00       22.579      -13.933       37.449       27.146       57.042       34.874      736.882     3253.793     1216.221        0.366        0.260       26.532       38.844        2.143      350.355       31.460      861.900
07/19/2014  11:56:00       12.883      -56.113       20.111       33.249       38.200       37.501     1105.492     1459.227     1406.342        0.384        0.199       57.572       24.203        0.177      350.292       31.350      861.875
07/19/2014  11:57:00       -7.247      -23.809       15.737       29.671       39.407       31.996      880.389     1552.937     1023.740        0.216        0.173       24.887       21.131        0.721      350.527       31.759      861.862
07/19/2014  11:58:00      -39.666      -41.919        4.568       43.939       43.237       30.475     1930.626     1869.457      928.720        0.404        0.236       57.711       27.087        0.220      350.265       31.302      861.847
07/19/2014  11:59:00      -73.702      -40.592       -2.152       39.705       33.534       23.082     1576.451     1124.541      532.788        0.516        0.162       84.141       15.263        0.033      350.196       31.182      861.830
07/19/2014  12:00:00      -88.148      -95.211        3.364       46.169       63.351       26.150     2131.578     4013.396      683.845        1.184        0.341      129.750       24.836        0.037      350.056       30.938      861.829
07/19/2014  12:01:00      -93.440     -101.832      -25.504       35.868       51.492       22.195     1286.478     2651.416      492.604        1.209        0.222      138.205        9.418        0.005      349.758       30.420      861.822
07/19/2014  12:02:00      -56.107       36.691      -18.954       30.330       40.387       22.043      919.902     1631.138      485.915        0.394        0.152       67.039       14.473        0.047      350.228       31.237      861.801
07/19/2014  12:03:00     -133.959       30.512      -25.168       31.653       34.151       18.176     1001.884     1166.284      330.364        1.100        0.125      137.390       13.678        0.010      349.734       30.379      861.784
07/19/2014  12:04:00     -181.016       36.803      -27.300       32.018       51.468       31.866     1025.129     2648.905     1015.438        1.978        0.234      184.719       19.343        0.011      349.763       30.428      861.770
07/19/2014  12:05:00      -87.429       45.535      -12.715       59.121       24.178       34.457     3495.300      584.586     1187.274        0.757        0.263       98.576       40.325        0.167      350.187       31.168      861.771
07/19/2014  12:06:00      -13.560       25.588       13.070       17.902       41.039       26.997      320.489     1684.213      728.840        0.187        0.137       28.959        7.488        0.067      350.749       32.145      861.771
07/19/2014  12:07:00       -2.130       61.468        9.580       24.515       40.910       28.565      600.971     1673.592      815.960        0.348        0.155       61.505       27.576        0.201      350.548       31.793      861.756
07/19/2014  12:08:00       28.881       16.660       29.575       27.277       32.422       25.960      744.041     1051.211      673.928        0.223        0.123       33.341       19.062        0.327      351.074       32.711      861.738
07/19/2014  12:09:00      -12.631       33.552       17.788       30.537       40.416       29.813      932.491     1633.420      888.809        0.253        0.173       35.851       29.315        0.669      350.926       32.453      861.724
07/19/2014  12:10:00      -19.815       42.559       23.439       23.830       35.864       30.706      567.881     1286.211      942.860        0.277        0.140       46.946       23.933        0.260      351.060       32.686      861.704
07/19/2014  12:11:00      -10.006       18.458       13.049       26.009       30.495       35.583      676.488      929.953     1266.141        0.174        0.144       20.996       27.269        1.687      351.053       32.675      861.700
07/19/2014  12:12:00       -1.133       28.205       28.092       19.350       34.825       25.476      374.426     1212.764      649.010        0.191        0.112       28.228       20.638        0.535      351.321       33.141      861.690
07/19/2014  12:13:00      -11.145       17.798       12.303       24.597       28.393       21.165      605.028      806.146      447.976        0.123        0.093       20.999       16.940        0.651      350.957       32.506      861.676
07/19/2014  12:14:00      -45.153       24.830       -8.226       24.546       20.362       22.594      602.495      414.605      510.510        0.212        0.076       51.529       17.924        0.121      350.522       31.751      861.679
07/19/2014  12:15:00      -24.116        1.525       -6.935       26.620       14.646       17.896      708.650      214.499      320.281        0.094        0.062       24.165       16.808        0.484      350.518       31.741      861.658
07/19/2014  12:16:00        3.751      -25.635       18.403       20.456       30.079       20.280      418.433      904.720      411.283        0.137        0.087       25.908       14.299        0.305      350.777       32.193      861.654
07/19/2014  12:17:00       48.321       37.079       22.927       43.882       37.533       35.525     1925.632     1408.712     1262.017        0.441        0.230       60.908       16.259        0.071      350.723       32.099      861.640
07/19/2014  12:18:00       26.538       22.420        6.008       36.438       24.059       31.013     1327.694      578.823      961.792        0.206        0.143       34.741       24.381        0.493      350.714       32.083      861.632
07/19/2014  12:19:00       36.925        2.541       30.072       39.279       23.635       20.999     1542.877      558.591      440.939        0.241        0.127       37.012       19.015        0.264      351.285       33.079      861.615
07/19/2014  12:20:00       33.186       37.111       10.194       37.547       18.734       30.619     1409.811      350.965      937.521        0.264        0.135       49.785       28.863        0.336      350.582       31.855      861.605
07/19/2014  12:21:00       71.497       55.863       30.119       71.910       62.311       34.751     5170.993     3882.702     1207.654        0.970        0.513       90.734       40.945        0.204      351.068       32.700      861.597
07/19/2014  12:22:00       72.875       59.288       30.437       51.213       56.146       45.932     2622.811     3152.414     2109.706        0.882        0.394       93.946       23.551        0.063      350.876       32.365      861.585
07/19/2014  12:23:00       43.972       43.463       59.286       58.210       77.923       67.296     3388.429     6072.053     4528.688        1.066        0.699       61.827       67.239        1.183      350.918       32.438      861.571
07/19/2014  12:24:00       82.687       70.643       83.051       68.331      103.367       57.910     4669.138    10684.813     3353.550        1.871        0.935      108.755       65.459        0.362      350.555       31.806      861.567
07/19/2014  12:25:00       87.216      -53.331       25.182       57.929      124.300       43.803     3355.799    15450.375     1918.733        1.590        1.036      102.229       28.815        0.079      350.828       32.282      861.542
07/19/2014  12:26:00      123.942       65.487        8.984       53.678       77.393       44.193     2881.297     5989.684     1952.989        1.528        0.541      140.179       29.238        0.044      351.072       32.706      861.542
07/19/2014  12:27:00      149.250       97.574       40.891       97.137       59.724       76.578     9435.624     3566.992     5864.229        2.616        0.943      178.315       37.477        0.044      350.596       31.877      861.549
07/19/2014  12:28:00       42.870      -21.305       -9.531       49.800       77.378       40.035     2480.057     5987.318     1602.804        0.622        0.504       47.872       32.934        0.473      350.514       31.736      861.557
07/19/2014  12:29:00       17.595       22.147       38.948       57.927       61.507       27.291     3355.562     3783.075      744.796        0.510        0.394       28.285       24.293        0.738      351.042       32.654      861.529
07/19/2014  12:30:00       60.374        0.635       25.720       77.241       84.708       63.053     5966.231     7175.411     3975.737        1.071        0.856       60.377       56.589        0.878      350.745       32.135      861.531
07/19/2014  12:31:00      142.952       86.589       49.934       83.752       80.613       44.838     7014.335     6498.407     2010.466        2.297        0.776      167.132       11.927        0.005      350.714       32.081      861.515
07/19/2014  12:32:00       87.855       88.518       30.893       92.536       59.394       58.978     8562.910     3527.686     3478.397        1.604        0.778      124.716       37.617        0.091      351.110       32.771      861.504
07/19/2014  12:33:00       93.045      107.109       -1.425       93.804       82.982       45.968     8799.209     6885.953     2113.026        1.896        0.890      141.879       37.635        0.070      351.099       32.752      861.479
07/19/2014  12:34:00       53.712       87.340       -6.278       49.615       71.405       34.884     2461.635     5098.677     1216.917        0.966        0.439      102.534       31.175        0.092      351.067       32.699      861.480
07/19/2014  12:35:00       16.055       69.681       15.104       85.537       63.337       51.252     7316.647     4011.547     2626.786        0.965        0.698       71.506       29.086        0.165      351.064       32.690      861.463
07/19/2014  12:36:00       -2.215      -45.569        5.076       49.250       79.887       36.579     2425.563     6381.936     1338.010        0.612        0.507       45.623       35.761        0.614      351.037       32.646      861.451
07/19/2014  12:37:00       60.443      -22.505       22.626       75.855       44.705       40.581     5753.941     1998.497     1646.782        0.703        0.470       64.497       22.525        0.122      350.684       32.032      861.449
07/19/2014  12:38:00      -11.607        4.932       21.118       51.483       32.191       28.600     2650.543     1036.269      817.968        0.255        0.225       12.611       17.366        1.896      351.084       32.728      861.445
07/19/2014  12:39:00       31.907       23.999       27.502       55.237       47.202       48.997     3051.167     2228.044     2400.694        0.501        0.384       39.925       24.951        0.391      350.885       32.381      861.428
07/19/2014  12:40:00      -37.453      -98.096       -7.501       47.380       50.409       32.364     2244.900     2541.018     1047.419        0.846        0.292      105.003       24.665        0.055      350.971       32.531      861.428
07/19/2014  12:41:00      -48.418      -58.545        4.124       53.530       53.251       29.913     2865.471     2835.669      894.801        0.619        0.330       75.972       28.773        0.143      350.951       32.495      861.432
07/19/2014  12:42:00      -11.298      -42.566        1.414       67.576       57.172       34.522     4566.451     3268.617     1191.752        0.548        0.451       44.040       36.479        0.686      351.067       32.699      861.425
07/19/2014  12:43:00       52.031     -126.835      -12.567       75.117       55.165       53.048     5642.549     3043.161     2814.063        1.522        0.575      137.092       39.773        0.084      350.821       32.268      861.409
07/19/2014  12:44:00       53.591     -122.429       13.373       56.473       45.971       43.355     3189.156     2113.303     1879.631        1.261        0.359      133.644       25.298        0.036      350.773       32.186      861.403
07/19/2014  12:45:00       18.538      -80.930       -5.021       51.856       59.860       33.092     2689.071     3583.232     1095.068        0.714        0.368       83.026       21.900        0.070      350.911       32.426      861.389
07/19/2014  12:46:00        4.890       46.648       62.569       31.215       30.716       30.574      974.395      943.460      934.796        0.448        0.143       46.904       12.909        0.076      350.983       32.552      861.372
07/19/2014  12:47:00      -56.023      -14.304      -13.973       43.313       42.295       17.650     1876.013     1788.901      311.519        0.376        0.199       57.821       16.339        0.080      350.969       32.526      861.347
07/19/2014  12:48:00       -5.961      -14.156       13.527       73.802       56.912       40.871     5446.750     3238.959     1670.401        0.539        0.518       15.360       40.144        6.831      351.017       32.610      861.335
07/19/2014  12:49:00       29.460      -89.853        9.425       56.412       69.561       49.806     3182.300     4838.757     2480.648        0.976        0.525       94.559       47.400        0.251      350.896       32.400      861.317
07/19/2014  12:50:00      -49.649      -50.342       10.770       50.202       69.047       30.538     2520.200     4767.470      932.597        0.667        0.411       70.706       14.478        0.042      351.267       33.047      861.297
07/19/2014  12:51:00       -5.384      -30.440       11.556       80.480       40.750       43.318     6477.059     1660.530     1876.425        0.555        0.501       30.912       28.965        0.878      351.421       33.313      861.296
07/19/2014  12:52:00      -49.846      -23.607       14.960       67.076       39.091       27.442     4499.163     1528.082      753.082        0.502        0.339       55.153       30.946        0.315      351.733       33.860      861.269
07/19/2014  12:53:00      -35.182      -53.033        9.300       49.395       38.081       26.095     2439.842     1450.150      680.966        0.435        0.229       63.642       18.695        0.086      351.209       32.946      861.258
07/19/2014  12:54:00      -20.693      -16.466       14.657       45.858       29.227       26.766     2102.936      854.246      716.412        0.229        0.184       26.445       22.883        0.749      351.535       33.515      861.245
07/19/2014  12:55:00      -13.932       -2.263       18.143       22.659       18.278       17.511      513.417      334.069      306.651        0.084        0.058       14.115       13.321        0.891      351.769       33.923      861.231
07/19/2014  12:56:00        2.691        0.016       23.543       43.497       29.453       28.425     1892.014      867.467      807.977        0.206        0.178        2.691       17.920       44.338      351.362       33.215      861.202
07/19/2014  12:57:00        3.833      -72.882        4.171       28.093       39.935       35.964      789.195     1594.823     1293.421        0.451        0.184       72.983       25.757        0.125      350.815       32.258      861.165
07/19/2014  12:58:00       23.093       31.851       -5.390       32.227       22.994       22.807     1038.606      528.707      520.147        0.183        0.104       39.342       17.937        0.208      351.182       32.898      861.153
07/19/2014  12:59:00      -47.344      -20.667        7.504       76.272       38.270       21.531     5817.393     1464.600      463.584        0.523        0.387       51.658       29.860        0.334      351.600       33.626      861.140
07/19/2014  13:00:00     -140.414       -4.838       11.738       74.257       70.443       38.923     5514.041     4962.240     1515.031        1.593        0.600      140.497       39.613        0.079      351.334       33.163      861.119
07/19/2014  13:01:00      -98.867      -87.151       12.188       85.767       70.794       40.220     7356.049     5011.741     1617.678        1.575        0.699      131.795       43.314        0.108      351.437       33.342      861.111
07/19/2014  13:02:00      -66.206     -114.295        8.801       62.005       56.342       32.360     3844.641     3174.381     1047.176        1.279        0.403      132.085       33.736        0.065      351.111       32.774      861.092
07/19/2014  13:03:00      -63.888     -106.514       -6.959       34.293       56.305       21.366     1175.977     3170.307      456.524        1.014        0.240      124.205       18.305        0.022      351.057       32.681      861.083
07/19/2014  13:04:00       35.479        9.295       39.654       48.613       62.858       47.157     2363.214     3951.126     2223.790        0.573        0.427       36.676       45.687        1.552      351.680       33.768      861.061
07/19/2014  13:05:00       55.047      -51.900       16.238       50.897       92.620       49.994     2590.506     8578.528     2499.354        0.983        0.683       75.656       60.238        0.634      351.156       32.854      861.043
07/19/2014  13:06:00      157.986     -245.096      -36.366       81.826       93.525       55.433     6695.475     8746.900     3072.796        5.243        0.926      291.602       61.590        0.045      351.067       32.693      861.008
07/19/2014  13:07:00      136.210       61.798       77.760      101.413      136.020       78.030    10284.503    18501.458     6088.708        3.164        1.744      149.574       76.735        0.263      351.200       32.926      861.004
07/19/2014  13:08:00      107.103      -12.420       29.899       90.346      118.847       62.370     8162.399    14124.509     3890.030        1.934        1.309      107.820       43.716        0.164      351.541       33.522      860.976
07/19/2014  13:09:00      120.542       77.537      126.537      118.440      133.364       84.525    14027.942    17785.923     7144.418        3.775        1.948      143.326       87.500        0.373      351.267       33.043      860.984
07/19/2014  13:10:00      133.180       16.437       35.921      106.045       74.360       64.154    11245.612     5529.448     4115.718        2.009        1.045      134.191       44.064        0.108      350.960       32.507      860.989
07/19/2014  13:11:00       19.458       -0.126       41.018       45.567       74.959       43.033     2076.380     5618.887     1851.833        0.580        0.477       19.458       43.621        5.026      351.777       33.936      860.968
07/19/2014  13:12:00       91.284       62.681       96.585      113.267      123.438       93.684    12829.403    15237.050     8776.686        2.921        1.842      110.732       94.204        0.724      351.551       33.540      860.959
07/19/2014  13:13:00      157.788       90.912       87.225      120.217       90.493       69.987    14452.226     8189.068     4898.178        3.415        1.377      182.105       64.946        0.127      351.319       33.134      860.953
07/19/2014  13:14:00       78.267       57.180       71.196       79.169       93.028       69.133     6267.731     8654.203     4779.391        1.708        0.985       96.929       57.714        0.355      351.282       33.072      860.977
07/19/2014  13:15:00      101.049       45.278       41.176       45.396       34.846       36.331     2060.828     1214.278     1319.946        0.927        0.230      110.730       19.976        0.033      351.003       32.587      860.971
07/19/2014  13:16:00       89.609       93.480       77.549       73.342       48.284       54.818     5379.036     2331.328     3005.021        1.675        0.536      129.493       45.739        0.125      350.983       32.550      860.926
07/19/2014  13:17:00       83.857       24.477       58.768      107.392       72.387       47.579    11533.090     5239.821     2263.734        1.506        0.952       87.356       33.202        0.144      351.549       33.535      860.901
07/19/2014  13:18:00      100.265       69.856        3.896       62.203       39.189       39.002     3869.164     1535.760     1521.126        1.094        0.346      122.200       33.337        0.074      351.333       33.161      860.899
07/19/2014  13:19:00       30.737       22.370       20.800       34.909       52.271       34.901     1218.604     2732.237     1218.082        0.352        0.258       38.016       14.563        0.147      351.868       34.096      860.878
07/19/2014  13:20:00       81.680      -22.990       34.831       71.733       80.412       42.661     5145.645     6466.113     1819.951        1.092        0.672       84.853       43.285        0.260      351.403       33.282      860.858
07/19/2014  13:21:00      114.448     -119.029      -35.740       68.636       92.116       50.999     4710.957     8485.417     2600.932        2.217        0.790      165.125       46.943        0.081      351.429       33.325      860.837
07/19/2014  13:22:00       60.225      -69.476       -4.105       53.946       64.727       37.346     2910.124     4189.526     1394.747        0.848        0.425       91.946       40.036        0.190      351.335       33.165      860.846
07/19/2014  13:23:00       16.998      -26.439       23.360       34.499       55.812       33.930     1190.186     3114.924     1151.259        0.349        0.273       31.432       41.600        1.752      351.477       33.413      860.830
07/19/2014  13:24:00      -10.727       31.136       34.229       24.637       25.716       23.353      606.996      661.288      545.351        0.203        0.091       32.932       20.095        0.372      351.493       33.442      860.791
07/19/2014  13:25:00       11.957       22.561       36.723       21.522       23.126       11.280      463.200      534.812      127.237        0.156        0.056       25.533        7.326        0.082      351.949       34.237      860.776
07/19/2014  13:26:00       13.097       24.698       27.931       22.567       29.155       26.372      509.275      850.024      695.479        0.181        0.103       27.955       23.917        0.732      351.955       34.246      860.769
07/19/2014  13:27:00       11.831       12.590       26.743       24.628       18.233       23.170      606.541      332.458      536.830        0.124        0.074       17.277       18.693        1.171      351.917       34.183      860.759
07/19/2014  13:28:00       80.233       57.335       10.334       80.547       59.691       48.004     6487.892     3562.985     2304.395        1.109        0.618       98.614       12.020        0.015      351.385       33.252      860.745
07/19/2014  13:29:00      140.151       33.729       32.169       65.457       82.030       70.459     4284.672     6728.923     4964.530        1.889        0.799      144.152       56.648        0.154      350.985       32.554      860.730
07/19/2014  13:30:00       42.088       -1.437       24.200       44.043       25.433       22.086     1939.779      646.817      487.789        0.272        0.154       42.112       23.212        0.304      351.305       33.114      860.699
07/19/2014  13:31:00     -115.750       50.468      -20.345       55.678       53.842       29.007     3100.066     2898.981      841.411        1.160        0.342      126.273       34.667        0.075      351.241       33.001      860.680
07/19/2014  13:32:00     -115.755      105.963      -29.113       32.171       28.454       22.414     1034.987      809.638      502.391        1.391        0.117      156.931       16.568        0.011      351.202       32.933      860.658
07/19/2014  13:33:00      -30.085       58.476       18.606       33.993       39.335       31.947     1155.524     1547.264     1020.596        0.420        0.186       65.761       25.469        0.150      351.931       34.205      860.635
07/19/2014  13:34:00        4.844       24.752       18.418       19.777       17.821       21.079      391.140      317.596      444.320        0.106        0.058       25.222       10.997        0.190      352.018       34.356      860.619
07/19/2014  13:35:00        7.764      -16.337       -0.874       30.391       18.439       22.155      923.603      339.994      490.837        0.104        0.088       18.088       16.732        0.856      352.075       34.458      860.612
07/19/2014  13:36:00       52.249       -1.560       30.680       40.924       33.965       27.902     1674.810     1153.647      778.506        0.364        0.180       52.272       24.387        0.218      351.772       33.928      860.584
07/19/2014  13:37:00       36.142      -38.690       26.874       37.897       48.631       30.968     1436.209     2365.019      959.033        0.414        0.238       52.945       23.721        0.201      352.087       34.477      860.572
07/19/2014  13:38:00       37.160      -29.903       38.237       49.722       65.828       40.297     2472.255     4333.378     1623.812        0.608        0.421       47.697       44.217        0.859      351.613       33.650      860.543
07/19/2014  13:39:00      143.357      -96.652       20.176       79.568      115.064       70.364     6331.036    13239.667     4951.160        2.741        1.226      172.896       65.049        0.142      351.831       34.030      860.496
07/19/2014  13:40:00       37.093        9.781       63.874       56.582       86.328       41.317     3201.561     7452.531     1707.065        0.895        0.618       38.361       43.393        1.280      351.921       34.188      860.501
07/19/2014  13:41:00       69.999      -47.588       15.099       67.411      109.244       63.794     4544.290    11934.319     4069.644        1.397        1.027       84.644       64.518        0.581      351.660       33.731      860.488
07/19/2014  13:42:00      137.432       19.257       37.852      138.845      157.563       61.349    19278.064    24826.100     3763.726        3.427        2.393      138.775       71.144        0.263      351.718       33.830      860.445
07/19/2014  13:43:00      174.005      131.121       15.586      173.973       98.449       80.412    30266.768     9692.252     6466.033        4.706        2.321      217.877       49.210        0.051      351.675       33.755      860.448
07/19/2014  13:44:00       95.248      205.553        5.277      129.490       98.886       62.696    16767.703     9778.454     3930.832        4.091        1.524      226.549       68.421        0.091      351.600       33.624      860.444
07/19/2014  13:45:00      129.601      121.996       15.827      106.972       64.467       49.277    11443.111     4155.941     2428.269        2.498        0.901      177.987       26.065        0.021      351.796       33.968      860.444
07/19/2014  13:46:00      128.487      135.503        8.524       93.140       72.583       59.821     8674.971     5268.321     3578.546        2.623        0.876      186.735       34.619        0.034      351.620       33.659      860.425
07/19/2014  13:47:00       35.754      158.744      -15.267       48.840       68.402       43.259     2385.375     4678.844     1871.318        1.782        0.447      162.720       37.121        0.052      351.557       33.550      860.409
07/19/2014  13:48:00       -1.186      128.428      -13.545       42.365       37.098       22.991     1794.803     1376.235      528.586        1.019        0.185      128.433       15.148        0.014      351.502       33.457      860.403
07/19/2014  13:49:00      -28.399      153.461      -11.155       37.217       70.973       38.199     1385.102     5037.173     1459.184        1.618        0.394      156.066       31.515        0.041      351.677       33.761      860.384
07/19/2014  13:50:00      -39.653      176.429       -8.778       37.110       61.977       37.794     1377.189     3841.173     1428.354        1.971        0.332      180.830       34.721        0.037      351.579       33.588      860.375
07/19/2014  13:51:00      -92.499       99.642      -15.381       36.824       52.294       32.082     1356.036     2734.690     1029.276        1.192        0.256      135.957       22.895        0.028      351.427       33.325      860.370
07/19/2014  13:52:00      -86.851       47.587      -14.239       41.214       66.093       27.563     1698.606     4368.228      759.735        0.842        0.341       99.034       24.760        0.063      351.224       32.971      860.365
07/19/2014  13:53:00      -34.954      -14.603       10.976       25.519       24.010       21.140      651.202      576.466      446.914        0.161        0.084       37.882       11.276        0.089      351.615       33.653      860.366
07/19/2014  13:54:00      -20.381        0.420        6.564       34.295       33.062       22.336     1176.161     1093.100      498.915        0.161        0.138       20.386       20.520        1.013      351.592       33.613      860.363
07/19/2014  13:55:00        0.948       48.137        5.161       21.696       36.038       21.913      470.733     1298.773      480.177        0.230        0.112       48.146       20.919        0.189      351.647       33.710      860.354
07/19/2014  13:56:00        9.760        5.528       16.564       15.821       10.673       15.175      250.315      113.920      230.270        0.050        0.030       11.217        7.758        0.478      351.802       33.981      860.350
07/19/2014  13:57:00      -11.767      -23.828        1.256       39.182       27.902       30.717     1535.215      778.506      943.551        0.198        0.163       26.575       22.642        0.726      351.541       33.523      860.339
07/19/2014  13:58:00      -34.638       18.641        9.173       19.553       20.549       17.794      382.303      422.258      316.624        0.138        0.056       39.335        4.813        0.015      351.528       33.501      860.321
07/19/2014  13:59:00        2.271       -3.277       18.792       17.014       14.259       15.833      289.493      203.314      250.671        0.056        0.037        3.987        7.769        3.796      351.930       34.204      860.297
07/19/2014  14:00:00      -80.407        5.938       -4.062       27.086       41.121       23.438      733.661     1690.948      549.349        0.474        0.149       80.626       15.747        0.038      351.626       33.672      860.283
07/19/2014  14:01:00     -117.369        2.498        4.016       40.654       52.890       27.696     1652.774     2797.388      767.041        0.951        0.261      117.396       26.198        0.050      351.550       33.539      860.273
07/19/2014  14:02:00      -90.819      -12.788        8.207       65.247       56.407       35.022     4257.236     3181.776     1226.524        0.857        0.433       91.715       38.457        0.176      351.672       33.752      860.244
07/19/2014  14:03:00       19.011      -44.752       -6.867       40.811       45.852       33.796     1665.563     2102.446     1142.143        0.366        0.246       48.622       13.115        0.073      351.107       32.767      860.226
07/19/2014  14:04:00      -24.824      -24.167       15.405       59.999       52.810       33.140     3599.881     2788.852     1098.277        0.446        0.374       34.645       30.852        0.793      351.341       33.176      860.217
07/19/2014  14:05:00       -9.319     -103.397        6.488       63.425       83.927       47.219     4022.764     7043.704     2229.668        1.206        0.665      103.816       58.977        0.323      351.355       33.198      860.202
07/19/2014  14:06:00       -9.992      -81.909        4.418       36.682       70.833       27.921     1345.587     5017.376      779.561        0.698        0.357       82.516       27.517        0.111      351.390       33.260      860.191
07/19/2014  14:07:00      -17.291      -46.390        7.094       39.569       63.538       24.494     1565.725     4037.101      599.967        0.435        0.310       49.508       30.749        0.386      351.490       33.434      860.169
07/19/2014  14:08:00     -112.290      -48.702        1.433       69.113       51.092       31.366     4776.605     2610.384      983.852        1.168        0.419      122.396       39.268        0.103      351.505       33.461      860.153
07/19/2014  14:09:00      -91.139      -68.595        7.755       65.487       46.071       28.465     4288.536     2122.550      810.267        1.015        0.361      114.068       31.132        0.074      351.488       33.432      860.137
07/19/2014  14:10:00     -137.513      -39.975        7.756       71.577       57.670       33.548     5123.196     3325.809     1125.436        1.507        0.479      143.205       40.747        0.081      351.482       33.422      860.118
07/19/2014  14:11:00      -93.658       10.469       -9.456       35.306       26.806       18.848     1246.536      718.583      355.249        0.565        0.116       94.241        8.164        0.008      351.369       33.225      860.109
07/19/2014  14:12:00      -43.836        6.932       -3.624       26.286       13.746       20.368      690.942      188.942      414.863        0.164        0.065       44.381       18.548        0.175      351.423       33.319      860.100
07/19/2014  14:13:00       -4.038       11.599       20.087       15.303       12.406       13.506      234.178      153.909      182.404        0.056        0.029       12.282        7.340        0.357      351.606       33.638      860.084
07/19/2014  14:14:00       19.795       22.025       21.118       36.066       15.060       18.672     1300.727      226.807      348.644        0.160        0.094       29.613       13.395        0.205      351.330       33.158      860.060
07/19/2014  14:15:00       63.144       33.732        9.393       27.299       28.231       23.285      745.257      796.966      542.193        0.365        0.104       71.589       18.549        0.067      351.332       33.159      860.044
07/19/2014  14:16:00       42.161       24.811       21.699       36.219       28.739       24.589     1311.807      825.935      604.636        0.280        0.137       48.920       22.098        0.204      350.976       32.539      860.031
07/19/2014  14:17:00       10.874       16.910        0.954       19.956       23.596       24.522      398.237      556.764      601.331        0.098        0.078       20.105       12.483        0.385      351.031       32.636      860.026
07/19/2014  14:18:00       48.125      -13.976        5.135       22.479       18.162       20.492      505.306      329.867      419.903        0.190        0.063       50.114        9.532        0.036      350.939       32.476      860.010
07/19/2014  14:19:00       43.055      -12.803       13.195       23.312       18.887       24.428      543.468      356.720      596.721        0.184        0.075       44.919        4.873        0.012      350.703       32.063      860.001
07/19/2014  14:20:00       40.747      -12.567       24.500       18.081       14.218       18.108      326.922      202.156      327.885        0.164        0.043       42.641       10.604        0.062      350.859       32.335      860.002
07/19/2014  14:21:00       47.962       -6.083       19.649       31.719       22.418       28.362     1006.111      502.580      804.389        0.252        0.116       48.346        8.170        0.029      350.913       32.430      859.991
07/19/2014  14:22:00       65.913       -2.293       15.928       44.595       22.906       26.445     1988.713      524.707      699.346        0.391        0.161       65.953       23.456        0.126      350.590       31.867      859.972
07/19/2014  14:23:00       27.397       -2.973       21.274       43.926       27.823       22.417     1929.479      774.127      502.538        0.221        0.160       27.558       11.346        0.169      350.876       32.364      859.969
07/19/2014  14:24:00       26.722      -35.969       10.388       39.775       42.086       27.968     1582.055     1771.222      782.234        0.312        0.207       44.809       27.664        0.381      351.232       32.986      859.958
07/19/2014  14:25:00       38.459      -14.879       34.650       49.504       56.221       48.028     2450.603     3160.748     2306.680        0.541        0.396       41.237       44.531        1.166      350.977       32.542      859.944
07/19/2014  14:26:00       41.666      -33.647       26.288       43.919       52.316       30.852     1928.900     2736.977      951.868        0.459        0.281       53.555       30.544        0.325      351.573       33.579      859.948
07/19/2014  14:27:00       10.085        5.530       35.423       32.077       50.498       38.563     1028.941     2550.013     1487.077        0.323        0.253       11.502       34.836        9.172      351.054       32.675      859.945
07/19/2014  14:28:00        7.649      -24.685       29.996       17.137       40.679       25.650      293.675     1654.742      657.911        0.209        0.130       25.843       21.935        0.720      351.430       33.329      859.939
07/19/2014  14:29:00       16.535      -64.989        8.865       25.193       40.765       22.353      634.688     1661.771      499.670        0.369        0.140       67.060        5.575        0.007      351.443       33.353      859.943
07/19/2014  14:30:00       17.789       17.367       19.347       17.199       15.529       15.373      295.804      241.143      236.334        0.088        0.039       24.861        8.335        0.112      351.018       32.612      859.932
07/19/2014  14:31:00       -0.967       79.419       13.205       23.244       44.564       23.808      540.288     1985.982      566.837        0.479        0.155       79.425       26.188        0.109      351.073       32.711      859.928
07/19/2014  14:32:00       -0.461       42.508       15.259       16.935       31.836       22.248      286.791     1013.561      494.963        0.192        0.090       42.510       17.940        0.178      351.649       33.711      859.929
07/19/2014  14:33:00      -13.170       35.461        6.178       23.585       21.783       19.606      556.264      474.487      384.395        0.144        0.071       37.828       18.717        0.245      351.606       33.640      859.935
07/19/2014  14:34:00        4.774       22.881       16.874       20.109       21.394       12.202      404.386      457.698      148.882        0.092        0.051       23.374        8.928        0.146      351.793       33.963      859.925
07/19/2014  14:35:00        4.556       11.073       17.619       11.331       12.031       11.254      128.391      144.734      126.646        0.043        0.020       11.974        1.119        0.009      351.823       34.018      859.936
07/19/2014  14:36:00       -6.290       12.192       14.954       25.696       14.730       15.392      660.278      216.976      236.901        0.076        0.056       13.719        5.210        0.144      351.203       32.935      859.936
07/19/2014  14:37:00       -7.424       14.085        9.971       19.114       10.915        8.891      365.350      119.148       79.048        0.046        0.028       15.922        4.479        0.079      351.326       33.150      859.932
07/19/2014  14:38:00      -95.028      -28.087        3.879       79.979       38.061       20.753     6396.599     1448.636      430.692        0.905        0.414       99.092       26.004        0.069      351.502       33.455      859.945
07/19/2014  14:39:00     -259.047      -44.932      -19.732       48.569       55.829       25.358     2358.974     3116.872      643.051        3.781        0.306      262.914       19.089        0.005      351.426       33.318      859.950
07/19/2014  14:40:00     -222.551      -77.843        7.005      109.709       69.304       45.623    12035.982     4803.049     2081.444        3.728        0.946      235.772       46.493        0.039      351.536       33.512      859.947
07/19/2014  14:41:00     -234.079      -83.286       -0.825       83.269       75.317       49.850     6933.666     5672.640     2485.055        3.841        0.755      248.454       47.595        0.037      351.556       33.548      859.949
07/19/2014  14:42:00     -212.554      -33.841       -3.191       90.859       71.928       44.354     8255.371     5173.684     1967.309        3.086        0.770      215.231       41.981        0.038      351.564       33.562      859.961
07/19/2014  14:43:00     -211.197     -100.864       -3.596       88.600       66.705       37.576     7849.996     4449.540     1411.957        3.425        0.686      234.047       42.609        0.033      351.440       33.345      859.968
07/19/2014  14:44:00     -123.584      -14.356        0.384       49.999       47.641       30.670     2499.886     2269.635      940.651        1.059        0.286      124.415       24.013        0.037      351.539       33.521      859.981
07/19/2014  14:45:00      -64.488      -31.319        7.589       36.295       38.891       25.962     1317.322     1512.537      674.020        0.435        0.175       71.691       25.786        0.129      351.574       33.581      859.994
07/19/2014  14:46:00       -6.350       -0.394       10.699       22.081       22.653       20.059      487.569      513.146      402.352        0.078        0.070        6.362       14.723        5.356      351.501       33.454      859.984
07/19/2014  14:47:00        7.522       10.516       22.282       17.112       12.309       10.827      292.809      151.502      117.234        0.061        0.028       12.930        6.152        0.226      351.590       33.610      859.966
07/19/2014  14:48:00      -75.904      -41.710        1.645       65.418       54.021       21.741     4279.520     2918.319      472.665        0.759        0.384       86.609       27.575        0.101      351.434       33.337      859.960
07/19/2014  14:49:00     -206.914      -96.679       -3.688       59.793       51.870       31.002     3575.170     2690.490      961.094        2.970        0.361      228.386       29.516        0.017      351.483       33.419      859.952
07/19/2014  14:50:00     -143.477        1.731        2.217       71.444       47.980       37.319     5104.259     2302.059     1392.681        1.469        0.440      143.487       39.757        0.077      351.579       33.590      859.953
07/19/2014  14:51:00     -145.117      -28.671        6.107       57.686       54.524       27.197     3327.698     2972.818      739.661        1.448        0.352      147.922       29.322        0.039      351.560       33.557      859.944
07/19/2014  14:52:00     -173.073      -34.917      -10.563       30.402       30.590       17.758      924.261      935.762      315.357        1.673        0.109      176.560       14.336        0.007      351.578       33.590      859.933
07/19/2014  14:53:00     -116.834      -13.325        0.218       54.113       43.523       23.799     2928.234     1894.254      566.381        0.961        0.269      117.591       24.736        0.044      351.686       33.776      859.928
07/19/2014  14:54:00      -59.692      -61.150        0.259       53.285       43.219       25.258     2839.294     1867.868      637.979        0.632        0.267       85.455       29.598        0.120      351.629       33.678      859.921
07/19/2014  14:55:00      -99.593      -12.722        3.876       39.640       36.138       21.264     1571.345     1305.931      452.161        0.671        0.166      100.402       18.213        0.033      351.671       33.750      859.909
07/19/2014  14:56:00      -28.932       11.422       13.738       40.794       33.115       19.886     1664.164     1096.622      395.438        0.216        0.158       31.105       17.234        0.307      351.982       34.294      859.905
07/19/2014  14:57:00     -178.239       24.253      -16.090       76.371       41.060       19.268     5832.471     1685.942      371.272        2.025        0.394      179.882       24.123        0.018      351.654       33.719      859.905
07/19/2014  14:58:00     -234.277       41.356      -23.365       45.348       46.642       27.955     2056.476     2175.480      781.503        3.108        0.251      237.899       24.484        0.011      351.614       33.648      859.895
07/19/2014  14:59:00     -198.815      -81.580       -8.700       77.357       70.573       42.863     5984.113     4980.534     1837.233        2.953        0.640      214.901       40.895        0.036      351.719       33.831      859.875
07/19/2014  15:00:00     -155.686       37.363      -19.214       66.549      111.142       51.442     4428.709    12352.568     2646.274        2.271        0.971      160.107       44.638        0.078      351.748       33.885      859.863
07/19/2014  15:01:00     -100.197       49.797        2.216       61.116       41.832       38.181     3735.130     1749.897     1457.781        0.973        0.347      111.890       13.767        0.015      351.750       33.888      859.869
07/19/2014  15:02:00      -91.832      106.043      -32.639       50.784       54.926       28.245     2579.050     3016.896      797.753        1.357        0.320      140.279        8.214        0.003      351.615       33.653      859.861
07/19/2014  15:03:00      -76.696      132.038      -14.865       44.981       30.753       28.859     2023.324      945.767      832.869        1.367        0.190      152.697       24.423        0.026      351.613       33.650      859.842
07/19/2014  15:04:00      -55.980       92.638       -8.203       36.622       39.915       25.624     1341.145     1593.186      656.569        0.769        0.180      108.239       22.580        0.044      351.743       33.877      859.826
07/19/2014  15:05:00      -43.188      113.750        3.291       33.219       48.390       33.652     1103.497     2341.603     1132.427        0.970        0.229      121.673       26.432        0.047      351.666       33.743      859.809
07/19/2014  15:06:00      -24.282      126.586       -4.443       40.891       54.844       29.513     1672.072     3007.842      870.990        1.109        0.278      128.894       28.191        0.048      351.658       33.726      859.789
07/19/2014  15:07:00     -109.360      169.750      -16.414       43.529       41.442       33.650     1894.771     1717.479     1132.324        2.289        0.237      201.927       26.946        0.018      351.647       33.708      859.773
07/19/2014  15:08:00      -75.414       22.356       -6.112       35.816       57.441       34.935     1282.763     3299.476     1220.483        0.601        0.290       78.658       28.250        0.129      351.885       34.123      859.754
07/19/2014  15:09:00     -123.032      -23.123       -6.699       59.946       43.857       32.333     3593.489     1923.410     1045.445        1.114        0.328      125.186       31.324        0.063      351.875       34.108      859.735
07/19/2014  15:10:00      -97.055        9.644       -7.891       47.770       41.735       23.687     2282.019     1741.810      561.096        0.708        0.229       97.533       10.885        0.012      352.044       34.402      859.727
07/19/2014  15:11:00     -154.799      -78.726       -8.927       65.147       66.790       29.039     4244.083     4460.846      843.251        1.989        0.477      173.667       16.942        0.010      351.825       34.017      859.713
07/19/2014  15:12:00     -228.527     -108.029      -18.776       45.781       51.411       27.761     2095.933     2643.063      770.665        3.488        0.275      252.774       20.710        0.007      351.599       33.621      859.693
07/19/2014  15:13:00     -230.463      -86.269      -12.613       85.355       74.362       36.921     7285.523     5529.735     1363.182        3.744        0.709      246.080       29.991        0.015      351.733       33.855      859.680
07/19/2014  15:14:00     -109.076       67.242      -12.916       75.290       77.516       33.639     5668.655     6008.784     1131.614        1.469        0.640      128.137       39.747        0.096      351.816       34.002      859.670
07/19/2014  15:15:00      -71.021       39.970        1.080       30.521       22.597       22.767      931.509      510.634      518.331        0.430        0.098       81.496       13.977        0.029      351.862       34.084      859.650
07/19/2014  15:16:00      -51.780       68.863        6.710       41.540       42.134       30.515     1725.541     1775.248      931.165        0.595        0.222       86.158       32.284        0.140      351.909       34.166      859.616
07/19/2014  15:17:00      -76.419       39.447       -3.374       45.058       32.174       24.132     2030.199     1035.178      582.337        0.553        0.182       86.000       17.611        0.042      351.902       34.154      859.594
07/19/2014  15:18:00      -76.704        5.984        2.693       55.181       27.575       25.384     3044.929      760.373      644.348        0.519        0.222       76.937       26.479        0.118      351.925       34.194      859.560
07/19/2014  15:19:00      -14.781       59.573       10.006       30.634       60.123       32.549      938.431     3614.813     1059.449        0.474        0.281       61.380       39.563        0.415      352.243       34.753      859.527
07/19/2014  15:20:00      -67.210       87.769       -3.896       57.982       54.530       34.457     3361.968     2973.574     1187.318        0.988        0.376      110.547       32.655        0.087      352.049       34.411      859.490
07/19/2014  15:21:00      -47.380      146.926      -11.759       32.294       85.895       33.439     1042.925     7377.892     1118.197        1.675        0.477      154.377       36.230        0.055      351.936       34.212      859.479
07/19/2014  15:22:00      -39.442      160.454      -11.355       61.183       55.806       33.816     3743.381     3114.343     1143.550        1.771        0.400      165.231       31.592        0.037      351.866       34.091      859.450
07/19/2014  15:23:00      -51.100      154.257       -4.017       57.111       59.711       39.443     3261.686     3565.426     1555.730        1.740        0.419      162.501       35.871        0.049      352.000       34.325      859.423
07/19/2014  15:24:00      -66.406      119.605       -6.895       64.145       54.920       36.284     4114.567     3016.221     1316.494        1.360        0.422      136.803       30.420        0.049      352.017       34.355      859.395
07/19/2014  15:25:00      -29.111      124.857       -3.012       22.314       49.726       24.528      497.932     2472.627      601.638        1.001        0.179      128.206       19.753        0.024      351.925       34.193      859.372
07/19/2014  15:26:00       -4.594      111.332       -2.865       30.527       43.907       32.970      931.901     1927.802     1087.033        0.818        0.197      111.427       24.649        0.049      352.010       34.345      859.339
07/19/2014  15:27:00      -56.526       90.104      -11.478       47.087       84.162       33.073     2217.207     7083.315     1093.820        1.092        0.520      106.367       21.996        0.043      352.050       34.412      859.308
07/19/2014  15:28:00       -4.352       47.578       15.114       42.218       37.295       30.742     1782.371     1390.945      945.088        0.331        0.206       47.777       23.094        0.234      352.280       34.815      859.278
07/19/2014  15:29:00       36.297       30.709       26.645       33.634       31.296       26.265     1131.247      979.449      689.834        0.288        0.140       47.545       10.194        0.046      352.227       34.722      859.236
07/19/2014  15:30:00      -62.458       -3.908       15.920       73.199       32.100       22.682     5358.153     1030.404      514.473        0.553        0.345       62.580       26.157        0.175      352.457       35.125      859.206
07/19/2014  15:31:00     -121.153      -34.713       -7.814       55.960       57.502       28.617     3131.576     3306.472      818.932        1.160        0.363      126.028       30.303        0.058      352.197       34.670      859.178
07/19/2014  15:32:00     -118.000        8.759       -4.435       62.663       47.055       30.397     3926.679     2214.188      923.976        1.054        0.353      118.325       31.783        0.072      352.376       34.983      859.145
07/19/2014  15:33:00      -32.287      -36.830       16.716       41.625       60.741       28.864     1732.661     3689.510      833.155        0.447        0.313       48.978       32.481        0.440      352.434       35.084      859.108
07/19/2014  15:34:00      -85.795      -29.010      -14.113       57.237       69.378       34.593     3276.061     4813.346     1196.705        0.884        0.464       90.567       31.531        0.121      352.149       34.585      859.083
07/19/2014  15:35:00     -116.225       -4.883        3.952       79.063       50.402       41.449     6250.989     2540.316     1718.032        1.203        0.525      116.327       37.364        0.103      352.314       34.874      859.062
07/19/2014  15:36:00     -273.494      -21.498      -25.403       85.445       63.621       41.598     7300.900     4047.675     1730.373        4.449        0.654      274.338       44.693        0.027      352.074       34.449      859.025
07/19/2014  15:37:00     -152.605       -5.443        1.334      104.884       88.656       48.865    11000.690     7859.882     2387.755        2.228        1.062      152.702       53.783        0.124      352.472       35.149      859.006
07/19/2014  15:38:00     -122.329       53.342       -3.774       93.704       47.354       49.642     8780.409     2242.404     2464.334        1.565        0.674      133.454       51.412        0.148      352.596       35.367      859.013
07/19/2014  15:39:00     -213.166       -4.873       -8.023      105.410       85.230       52.582    11111.219     7264.213     2764.893        3.333        1.057      213.222       58.505        0.075      352.273       34.800      858.999
07/19/2014  15:40:00     -112.775      -52.662        1.631      147.631       60.095       42.481    21794.985     3611.466     1804.653        2.135        1.361      124.464       50.648        0.166      352.194       34.663      859.006
07/19/2014  15:41:00     -110.091      -64.301       10.299       83.061       55.170       38.247     6899.098     3043.712     1462.833        1.388        0.570      127.493       37.819        0.088      352.300       34.849      859.030
07/19/2014  15:42:00       -5.701        8.856       18.767       41.560       52.098       25.179     1727.206     2714.212      633.962        0.277        0.254       10.532       20.022        3.614      352.270       34.797      859.044
07/19/2014  15:43:00      -48.858       40.393       12.637       62.543       37.148       35.415     3911.594     1379.964     1254.203        0.536        0.327       63.394       36.797        0.337      352.292       34.836      859.066
07/19/2014  15:44:00     -280.122      -70.543      -15.305       95.978       78.714       45.312     9211.750     6195.861     2053.194        5.057        0.873      288.868       42.972        0.022      351.956       34.244      859.087
07/19/2014  15:45:00     -219.891       -0.606      -12.690       85.134       68.586       41.111     7247.841     4704.077     1690.075        3.107        0.682      219.892       43.034        0.038      352.028       34.369      859.113
07/19/2014  15:46:00     -239.121      -66.257       -8.525       82.876       94.094       40.913     6868.420     8853.759     1673.857        3.952        0.870      248.131       37.324        0.023      352.009       34.336      859.126
07/19/2014  15:47:00     -267.102     -106.183      -10.218      106.067       90.730       45.920    11250.241     8231.914     2108.621        5.215        1.080      287.434       42.113        0.021      351.929       34.195      859.154
07/19/2014  15:48:00     -225.309      141.590      -31.560       72.162      117.044       46.901     5207.302    13699.185     2199.711        4.645        1.055      266.105       48.193        0.033      351.849       34.058      859.197
07/19/2014  15:49:00     -234.713       39.500      -16.557      102.506       89.621       49.941    10507.481     8032.000     2494.105        3.897        1.052      238.014       54.234        0.052      351.907       34.157      859.226
07/19/2014  15:50:00     -249.431        0.602      -16.818       56.273       65.031       33.713     3166.652     4229.040     1136.578        3.551        0.427      249.432       17.875        0.005      351.905       34.153      859.264
07/19/2014  15:51:00     -257.762       -0.103      -36.812       80.683       91.580       41.824     6509.683     8386.854     1749.260        4.222        0.832      257.762       43.298        0.028      351.905       34.152      859.312
07/19/2014  15:52:00     -250.734      -28.566      -40.831      109.532      113.225       53.048    11997.285    12819.846     2814.091        4.649        1.382      252.356       46.107        0.033      351.899       34.143      859.364
07/19/2014  15:53:00      -98.542       21.938       11.889       83.618      101.325       59.576     6991.996    10266.792     3549.276        1.557        1.040      100.954       50.281        0.248      351.990       34.306      859.408
07/19/2014  15:54:00      -55.790       31.570      -12.279       60.598       51.438       40.223     3672.161     2645.880     1617.862        0.610        0.397       64.102       19.658        0.094      351.683       33.774      859.402
07/19/2014  15:55:00     -238.428     -133.984        2.454      142.645      113.867       54.874    20347.587    12965.586     3011.158        5.556        1.816      273.495       55.410        0.041      351.671       33.748      859.435
07/19/2014  15:56:00     -146.836      -61.484        5.442      103.528       96.356       48.208    10718.105     9284.517     2323.985        2.384        1.116      159.189       44.224        0.077      351.731       33.855      859.488
07/19/2014  15:57:00     -221.758      -68.583        7.613      167.882      130.923       82.394    28184.258    17140.780     6788.709        5.302        2.606      232.121       86.624        0.139      351.673       33.753      859.516
07/19/2014  15:58:00     -283.114      -45.965        3.317      180.988      140.219       88.763    32756.686    19661.319     7878.785        7.128        3.015      286.821      101.384        0.125      351.703       33.804      859.523
07/19/2014  15:59:00     -408.257     -104.099      -16.384      205.600      201.741       91.454    42271.506    40699.302     8363.828       13.454        4.567      421.320       83.893        0.040      351.606       33.637      859.532
07/19/2014  16:00:00     -427.104      -26.164      -11.821      169.788      135.807       70.893    28828.069    18443.509     5025.885       11.776        2.615      427.905       81.481        0.036      351.621       33.661      859.566
07/19/2014  16:01:00     -263.343      -57.821        0.486      178.505      103.319       63.550    31864.136    10674.901     4038.649        5.963        2.329      269.616       83.586        0.096      351.671       33.749      859.581
07/19/2014  16:02:00     -187.493     -104.460       16.594      249.394      178.460      101.195    62197.396    31847.889    10240.378        7.529        5.214      214.629      127.523        0.353      351.552       33.541      859.580
07/19/2014  16:03:00     -320.949     -153.511      -15.847      146.836      142.490       74.937    21560.825    20303.540     5615.484        8.714        2.374      355.772       65.001        0.033      351.460       33.380      859.633
07/19/2014  16:04:00     -168.127      -25.693       -0.755      124.558      102.450       60.779    15514.665    10496.034     3694.113        2.931        1.485      170.079       62.294        0.134      351.521       33.488      859.676
07/19/2014  16:05:00     -251.590     -104.554       15.172      209.281      131.775       77.033    43798.711    17364.634     5934.049        7.076        3.355      272.450       98.172        0.130      351.424       33.318      859.695
07/19/2014  16:06:00     -364.301      -52.937       -6.907      207.237      136.255       96.206    42947.040    18565.322     9255.600       10.315        3.538      368.127       93.296        0.064      351.349       33.185      859.717
07/19/2014  16:07:00     -444.123     -131.222      -12.846      173.222      179.349       82.574    30005.965    32166.014     6818.456       14.180        3.450      463.103       82.443        0.032      351.228       32.972      859.735
07/19/2014  16:08:00     -370.670     -150.801      -17.798      200.976      143.430       89.311    40391.541    20572.126     7976.366       11.468        3.447      400.171       96.499        0.058      351.141       32.823      859.773
07/19/2014  16:09:00     -533.947     -223.439      -16.411      245.036      189.388       87.371    60042.448    35867.964     7633.688       21.940        5.177      578.813      106.650        0.034      351.057       32.675      859.829
07/19/2014  16:10:00     -426.657     -192.465        4.525      209.072      162.312       96.565    43711.187    26345.275     9324.849       14.922        3.969      468.058       94.540        0.041      351.015       32.603      859.921
07/19/2014  16:11:00     -438.680     -224.256      -12.550      221.798      194.495       96.621    49194.470    37828.214     9335.663       16.960        4.818      492.677      111.319        0.051      350.938       32.470      860.023
07/19/2014  16:12:00     -571.001     -354.044      -27.432      264.660      193.421      110.476    70044.694    37411.823    12205.041       28.588        5.983      671.855      120.801        0.032      350.718       32.087      860.058
07/19/2014  16:13:00     -422.772     -194.432        2.621      280.832      202.742      125.862    78866.620    41104.209    15841.368       17.615        6.791      465.339      142.779        0.094      350.630       31.933      860.102
07/19/2014  16:14:00     -488.009     -197.278        5.820      301.103      170.283      116.730    90663.152    28996.465    13625.876       20.517        6.664      526.376      144.074        0.075      350.443       31.607      860.094
07/19/2014  16:15:00     -619.966     -260.020      -43.951      276.980      303.798      128.782    76717.830    92293.109    16584.714       31.971        9.280      672.286      120.753        0.032      350.372       31.485      860.061
07/19/2014  16:16:00     -519.167     -264.449       -6.101      302.812      194.704      117.295    91694.968    37909.670    13758.055       24.141        7.168      582.638      136.082        0.055      350.413       31.556      860.121
07/19/2014  16:17:00     -675.216     -409.867       -2.568      369.264      276.911      143.945   136356.044    76679.688    20720.290       42.879       11.688      789.878      170.615        0.047      350.396       31.526      860.234
07/19/2014  16:18:00     -508.510     -277.934      -16.631      250.131      223.801      101.107    62565.370    50086.951    10222.526       22.947        6.144      579.508      117.640        0.041      350.416       31.561      860.243
07/19/2014  16:19:00     -444.031     -107.360        8.684      271.883      189.943      119.673    73920.208    36078.387    14321.596       16.652        6.216      456.826      138.975        0.093      350.492       31.692      860.329
07/19/2014  16:20:00     -550.454     -216.738       -8.266      277.795      174.462      120.067    77169.981    30437.153    14415.993       23.601        6.101      591.587      130.500        0.049      350.401       31.534      860.333
07/19/2014  16:21:00     -722.234     -369.033      -19.625      276.254      256.872      124.696    76316.218    65983.021    15549.009       40.799        7.892      811.053      147.791        0.033      349.947       30.746      860.351
07/19/2014  16:22:00     -533.319     -101.451      -24.548      285.671      207.810      109.939    81607.804    43184.939    12086.643       21.607        6.844      542.882      123.520        0.052      349.858       30.591      860.382
07/19/2014  16:23:00     -354.528     -159.044        5.706      265.542      190.221      101.687    70512.634    36184.006    10340.324       13.400        5.852      388.568      110.663        0.081      349.890       30.646      860.432
07/19/2014  16:24:00     -354.333     -231.796       21.190      235.040      170.094       95.107    55243.808    28931.880     9045.363       13.646        4.661      423.416      104.672        0.061      349.767       30.433      860.430
07/19/2014  16:25:00     -539.339     -285.397      -24.676      275.151      257.251      105.154    75708.326    66178.122    11057.332       26.291        7.647      610.195      111.996        0.034      349.687       30.292      860.461
07/19/2014  16:26:00     -705.844     -429.813       -8.412      364.639      280.980      129.077   132961.314    78949.765    16660.859       45.575       11.429      826.411      154.591        0.035      349.527       30.018      860.398
07/19/2014  16:27:00     -612.312     -253.386      -17.041      242.974      170.624      106.779    59036.335    29112.693    11401.706       26.947        4.978      662.670      109.650        0.027      349.546       30.051      860.438
07/19/2014  16:28:00     -464.091     -292.074       -5.329      304.319      214.050      116.171    92609.904    45817.518    13495.628       22.629        7.596      548.350      122.879        0.050      349.590       30.127      860.433
07/19/2014  16:29:00     -371.528     -225.385        2.388      235.461      169.808       98.945    55441.690    28834.690     9790.080       14.143        4.703      434.547      118.169        0.074      349.591       30.128      860.431
07/19/2014  16:30:00     -445.197     -231.574      -11.934      244.821      245.862      117.446    59937.224    60447.958    13793.470       19.305        6.709      501.824      115.998        0.053      349.561       30.075      860.421
07/19/2014  16:31:00     -584.137     -403.803      -21.228      266.924      198.353      109.505    71248.513    39343.796    11991.443       31.363        6.129      710.121      118.486        0.028      349.478       29.932      860.387
07/19/2014  16:32:00     -267.524     -158.283       22.520      245.771      181.597      126.296    60403.523    32977.314    15950.768       10.321        5.467      310.842      148.446        0.228      349.518       30.004      860.373
07/19/2014  16:33:00     -523.017     -253.202      -40.271      237.489      189.057       94.928    56401.094    35742.544     9011.243       22.020        5.058      581.083      108.865        0.035      349.462       29.904      860.327
07/19/2014  16:34:00     -277.504     -132.733       21.894      219.612      194.792       98.291    48229.347    37944.074     9661.108        9.545        4.792      307.615      109.440        0.127      349.469       29.917      860.298
07/19/2014  16:35:00     -564.033     -151.055      -32.517      300.815      222.441      131.054    90489.645    49480.164    17175.255       24.954        7.857      583.910      154.075        0.070      349.457       29.896      860.275
07/19/2014  16:36:00     -309.040     -130.726        6.159      237.508      159.421       91.768    56410.152    25415.080     8421.323       10.142        4.512      335.552      122.366        0.133      349.515       29.996      860.282
07/19/2014  16:37:00     -419.723     -203.566        0.420      210.800      174.389       99.379    44436.528    30411.551     9876.154       15.115        4.236      466.483      109.777        0.055      349.526       30.015      860.307
07/19/2014  16:38:00     -351.379     -113.933       -0.715      334.366      195.203      132.438   111800.512    38104.063    17539.804       15.191        8.372      369.389      158.027        0.183      349.582       30.112      860.309
07/19/2014  16:39:00     -398.147     -128.024       -7.484      224.051      187.163       98.560    50198.932    35030.167     9714.048       13.494        4.747      418.224       94.854        0.051      349.563       30.080      860.311
07/19/2014  16:40:00     -517.539     -118.635      -32.809      218.673      144.986       86.734    47817.814    21021.014     7522.838       17.966        3.818      530.962      103.362        0.038      349.466       29.910      860.299
07/19/2014  16:41:00     -406.399     -130.943      -16.998      205.648      138.652       87.323    42291.093    19224.419     7625.323       12.585        3.457      426.973       90.521        0.045      349.436       29.857      860.306
07/19/2014  16:42:00     -467.994      -92.311      -19.027      258.045      195.058       96.840    66587.375    38047.620     9377.931       17.093        5.701      477.011      115.279        0.058      349.284       29.595      860.296
07/19/2014  16:43:00     -378.682      -59.100       -1.147      244.727      267.637       98.455    59891.182    71629.364     9693.313       14.403        7.061      383.266      103.445        0.073      349.277       29.583      860.295
07/19/2014  16:44:00     -463.275     -225.365      -25.754      188.615      158.566       87.684    35575.781    25143.263     7688.558       16.723        3.420      515.183       86.149        0.028      349.263       29.562      860.317
07/19/2014  16:45:00     -459.145     -171.295      -14.797      282.033      173.198      102.924    79542.365    29997.395    10593.361       18.023        6.007      490.057      120.832        0.061      349.197       29.445      860.303
07/19/2014  16:46:00     -394.739     -109.463       -1.165      230.688      150.843       97.883    53217.167    22753.649     9581.157       12.666        4.278      409.636      115.761        0.080      349.186       29.426      860.293
07/19/2014  16:47:00     -275.490     -166.578       -5.637      209.778      154.049       99.742    44006.728    23731.047     9948.451        9.066        3.884      321.936      102.296        0.101      349.258       29.551      860.301
07/19/2014  16:48:00     -430.472      -74.024      -26.357      167.642      160.771       81.803    28103.888    25847.352     6691.698       12.605        3.032      436.790       82.684        0.036      349.325       29.666      860.268
07/19/2014  16:49:00     -541.768     -166.588      -26.677      247.506      198.518      114.431    61259.456    39409.552    13094.341       21.785        5.688      566.802      122.887        0.047      349.598       30.140      860.245
07/19/2014  16:50:00     -614.625      -14.017      -18.377      303.979      220.340      106.281    92402.980    48549.855    11295.564       26.524        7.612      614.785      120.726        0.039      349.559       30.073      860.234
07/19/2014  16:51:00     -765.341     -144.750      -30.406      249.051      254.827      112.446    62026.624    64936.944    12644.066       37.359        6.980      778.909      112.802        0.021      349.649       30.230      860.271
07/19/2014  16:52:00     -376.551       25.789        8.887      224.165      177.261      108.802    50249.933    31421.375    11837.802       11.800        4.675      377.433      107.528        0.081      349.810       30.508      860.332
07/19/2014  16:53:00     -683.205      -40.380      -73.791      257.767      198.777       97.155    66443.793    39512.315     9439.162       29.460        5.770      684.398      115.741        0.029      349.912       30.684      860.310
07/19/2014  16:54:00     -805.624       30.925      -78.049      249.069      194.461      109.006    62035.460    37815.208    11882.416       38.388        5.587      806.217       98.319        0.015      349.893       30.652      860.310
07/19/2014  16:55:00     -579.962     -122.770      -32.010      232.654      190.419       87.506    54127.922    36259.464     7657.248       22.523        4.902      592.814       94.238        0.025      349.851       30.579      860.351
07/19/2014  16:56:00     -592.851     -178.198       -2.030      249.943      156.925       96.575    62471.578    24625.572     9326.758       23.981        4.821      619.053      126.268        0.042      349.379       29.761      860.459
07/19/2014  16:57:00     -654.138     -194.917      -31.903      237.101      207.336      105.022    56217.100    42988.177    11029.634       28.855        5.512      682.561      114.160        0.028      349.311       29.642      860.445
07/19/2014  16:58:00     -704.696     -101.118      -38.949      292.160      201.446      109.117    85357.238    40580.515    11906.444       32.306        6.892      711.914      139.390        0.038      349.409       29.812      860.458
07/19/2014  16:59:00     -533.139     -148.785      -27.698      287.498      267.359      117.458    82655.168    71481.066    13796.428       23.750        8.397      553.511      133.004        0.058      349.355       29.718      860.520
07/19/2014  17:00:00     -513.974     -160.605      -18.728      259.672      215.256      110.380    67429.586    46335.065    12183.755       20.811        6.297      538.482      120.298        0.050      349.341       29.695      860.499
07/19/2014  17:01:00     -670.342      -59.489      -31.860      259.238      177.799      111.122    67204.222    31612.472    12348.081       28.252        5.558      672.977      129.312        0.037      349.331       29.675      860.537
07/19/2014  17:02:00     -615.698      -82.557      -28.389      272.487      180.559      111.357    74249.339    32601.540    12400.323       25.295        5.963      621.208      133.141        0.046      349.358       29.723      860.566
07/19/2014  17:03:00     -341.290     -215.814        0.028      207.155      190.413      103.853    42913.181    36257.078    10785.460       12.649        4.498      403.800      110.318        0.075      349.417       29.826      860.611
07/19/2014  17:04:00     -384.666     -246.639       -9.213      257.825      218.393      111.404    66473.634    47695.454    12410.760       16.771        6.329      456.945      131.923        0.083      349.464       29.907      860.610
07/19/2014  17:05:00     -461.896     -213.226        0.982      228.609      167.373      100.185    52262.140    28013.569    10037.097       17.455        4.516      508.737      117.139        0.053      349.520       30.006      860.591
07/19/2014  17:06:00     -449.760     -193.229        6.749      285.958      186.946       97.718    81772.219    34948.701     9548.765       18.294        6.313      489.512      116.516        0.057      349.723       30.355      860.548
07/19/2014  17:07:00     -429.987     -162.714      -10.237      165.661      149.394       82.188    27443.595    22318.689     6754.842       13.398        2.826      459.744       79.829        0.030      349.644       30.218      860.542
07/19/2014  17:08:00     -578.121     -132.195      -25.813      309.125      153.910      105.477    95558.007    23688.345    11125.471       24.134        6.519      593.043      118.266        0.040      349.688       30.295      860.516
07/19/2014  17:09:00     -401.271     -185.200       -7.846      206.887      171.100       91.930    42802.076    29275.065     8451.117       13.794        4.026      441.948      109.633        0.062      349.726       30.360      860.514
07/19/2014  17:10:00     -375.301     -198.598        0.012      238.619      143.488       98.550    56938.879    20588.740     9712.128       13.375        4.362      424.609      118.568        0.078      349.742       30.388      860.503
07/19/2014  17:11:00     -341.524     -245.900       16.652      265.438      177.987      105.864    70457.101    31679.259    11207.100       14.534        5.667      420.839      127.029        0.091      349.702       30.317      860.509
07/19/2014  17:12:00     -360.527     -183.600       20.253      219.676      189.596      101.818    48257.479    35946.514    10366.837       12.932        4.729      404.585      107.214        0.070      349.684       30.288      860.523
07/19/2014  17:13:00     -378.761     -135.626      -20.585      160.959      154.340       84.586    25907.681    23820.841     7154.785       10.957        2.844      402.311       75.592        0.035      349.674       30.271      860.542
07/19/2014  17:14:00     -371.488     -120.921      -12.157      216.123      128.300       86.260    46709.118    16460.879     7440.787       11.168        3.531      390.673       93.281        0.057      349.680       30.281      860.551
07/19/2014  17:15:00     -396.659     -231.498      -12.491      163.979      167.370       91.794    26889.075    28012.790     8426.098       13.719        3.166      459.271       80.284        0.031      349.723       30.355      860.533
07/19/2014  17:16:00     -316.470     -202.428      -11.025      196.464      155.439       88.143    38598.221    24161.173     7769.213       10.588        3.526      375.673       91.896        0.060      349.714       30.340      860.507
07/19/2014  17:17:00     -440.494     -106.794      -23.230      182.404      133.444       77.330    33271.204    17807.267     5979.999       13.151        2.853      453.255       77.541        0.029      349.621       30.179      860.508
07/19/2014  17:18:00     -537.789     -268.357      -15.157      186.424      164.239      100.460    34753.877    26974.376    10092.132       21.663        3.591      601.026       96.302        0.026      349.575       30.101      860.496
07/19/2014  17:19:00     -389.622     -231.964        3.270      242.156      181.334      104.527    58639.397    32882.110    10925.902       15.402        5.122      453.446      118.556        0.068      349.550       30.058      860.458
07/19/2014  17:20:00     -356.785     -138.740       -3.355      178.502      156.509       86.028    31863.109    24495.151     7400.861       10.514        3.188      382.811       92.908        0.059      349.554       30.064      860.458
07/19/2014  17:21:00     -437.262     -361.135       -8.092      255.318      203.714      132.999    65187.193    41499.472    17688.636       22.300        6.219      567.112      139.928        0.061      349.600       30.145      860.424
07/19/2014  17:22:00     -396.937     -243.051        0.380      216.881      169.718       93.433    47037.389    28804.094     8729.781       15.059        4.229      465.438      108.629        0.054      349.601       30.147      860.418
07/19/2014  17:23:00     -410.983     -296.494       -6.226      204.817      171.077      105.800    41950.108    29267.182    11193.722       16.962        4.121      506.770      103.677        0.042      349.622       30.181      860.427
07/19/2014  17:24:00     -297.739     -213.952       -3.452      166.838      140.129       80.483    27834.999    19636.266     6477.548        9.418        2.697      366.639       88.685        0.059      349.633       30.201      860.457
07/19/2014  17:25:00     -311.000     -129.982       -2.770      118.283      122.870       76.748    13990.882    15097.000     5890.229        7.429        1.749      337.071       70.157        0.043      349.657       30.242      860.499
07/19/2014  17:26:00     -266.792      -98.151       -2.870      135.753      110.477       63.442    18428.889    12205.224     4024.937        5.773        1.733      284.273       69.037        0.059      349.688       30.294      860.552
07/19/2014  17:27:00     -235.931     -112.731       13.000      142.393      113.068       73.357    20275.770    12784.383     5381.250        5.348        1.922      261.479       69.629        0.071      349.691       30.300      860.595
07/19/2014  17:28:00     -249.795      -83.439        2.082      141.781      108.709       56.735    20101.947    11817.545     3218.917        5.224        1.757      263.362       57.504        0.048      349.714       30.340      860.636
07/19/2014  17:29:00     -242.269      -32.901       18.659      174.499       98.445       68.838    30449.776     9691.447     4738.706        5.249        2.244      244.493       82.284        0.113      349.663       30.253      860.680
07/19/2014  17:30:00     -329.197     -101.956      -18.595      195.026      147.280       78.619    38035.109    21691.524     6180.936        9.250        3.295      344.624       84.256        0.060      349.649       30.228      860.732
07/19/2014  17:31:00     -475.947     -113.654      -17.044      219.174      171.208       89.633    48037.080    29312.067     8034.164       16.254        4.269      489.329       93.011        0.036      349.582       30.113      860.790
07/19/2014  17:32:00     -339.097      -93.739       -3.366      184.050      151.316       84.304    33874.302    22896.432     7107.115        9.382        3.194      351.815       82.703        0.055      349.571       30.095      860.877
07/19/2014  17:33:00     -460.393      -80.735      -19.275      219.414      152.018       83.982    48142.322    23109.457     7052.923       14.856        3.915      467.418       63.466        0.018      349.551       30.060      860.914
07/19/2014  17:34:00     -425.197     -126.297      -15.213      236.678      149.461       93.083    56016.666    22338.691     8664.359       14.198        4.351      443.558       98.654        0.049      349.536       30.033      860.973
07/19/2014  17:35:00     -315.627     -107.656        0.639      196.712      176.821       89.628    38695.584    31265.545     8033.095        9.459        3.900      333.482       92.605        0.077      349.533       30.027      861.087
07/19/2014  17:36:00     -308.284      -47.872       -9.969      242.376      149.132       71.901    58746.165    22240.472     5169.756        9.178        4.308      311.979       98.478        0.100      349.503       29.977      861.082
07/19/2014  17:37:00     -401.972       86.360      -41.538      153.750       92.243       56.742    23638.991     8508.851     3219.657       10.306        1.768      411.145       65.840        0.026      349.523       30.009      861.047
07/19/2014  17:38:00     -297.556      173.106      -36.261      209.562      209.489       97.827    43916.362    43885.567     9570.131       10.858        4.869      344.246      115.608        0.113      349.490       29.953      861.026
07/19/2014  17:39:00     -494.145       89.505      -41.388      282.548      181.240      112.438    79833.280    32848.058    12642.265       18.959        6.266      502.186      130.044        0.067      349.520       30.004      861.044
07/19/2014  17:40:00     -562.813     -123.529      -31.894      185.999      153.979       78.744    34595.592    23709.534     6200.692       19.876        3.225      576.210       77.163        0.018      349.497       29.966      861.082
07/19/2014  17:41:00     -333.901     -109.349      -14.375      100.737      120.947       56.242    10147.859    14628.111     3163.145        7.579        1.397      351.350       47.752        0.018      349.508       29.984      861.124
07/19/2014  17:42:00     -591.931      -20.178      -49.650      276.253      171.515       93.171    76315.508    29417.277     8680.910       23.381        5.721      592.275      120.452        0.041      349.567       30.087      861.099
07/19/2014  17:43:00     -353.751      -77.022      -29.394      164.679      156.760       68.848    27119.186    24573.574     4740.084        9.417        2.822      362.039       75.138        0.043      349.610       30.162      861.121
07/19/2014  17:44:00     -438.413       -0.325      -44.432      146.569      114.512       76.323    21482.550    13113.078     5825.212       11.729        2.021      438.413       61.550        0.020      349.611       30.163      861.158
07/19/2014  17:45:00     -353.515      -83.695      -20.061      157.991      134.552       65.333    24961.051    18104.364     4268.339        8.985        2.367      363.287       69.220        0.036      349.580       30.111      861.185
07/19/2014  17:46:00     -339.700      -50.318      -11.476      198.353      110.984       69.255    39343.898    12317.424     4796.256        8.725        2.823      343.406       86.291        0.063      349.556       30.067      861.217
07/19/2014  17:47:00     -384.614     -114.202        4.624      160.934      172.187       82.104    25899.900    29648.491     6741.090       11.163        3.114      401.211       81.986        0.042      349.550       30.058      861.265
07/19/2014  17:48:00     -351.810      -90.378      -11.131      184.514      169.414       81.009    34045.448    28700.973     6562.407       10.067        3.465      363.233       93.027        0.066      349.492       29.956      861.264
07/19/2014  17:49:00     -400.008     -142.861      -15.978      207.044      167.518       87.277    42867.090    28062.331     7617.283       12.959        3.927      424.754       95.684        0.051      349.463       29.907      861.277
07/19/2014  17:50:00     -410.806     -170.999       10.536      304.175      192.671      117.712    92522.717    37122.152    13856.066       17.078        7.175      444.974      139.320        0.098      349.446       29.877      861.299
07/19/2014  17:51:00     -302.696     -158.196       27.602      333.720      229.309      113.504   111369.259    52582.754    12883.208       14.709        8.842      341.541      149.871        0.193      349.555       30.068      861.349
07/19/2014  17:52:00     -240.239     -121.512       -3.770      193.214      138.052       73.528    37331.777    19058.270     5406.345        6.713        3.090      269.221       81.975        0.093      349.597       30.139      861.355
07/19/2014  17:53:00     -408.745       32.875      -29.648      138.850      132.337       72.190    19279.450    17513.001     5211.387       10.551        2.100      410.065       71.651        0.031      349.589       30.125      861.345
07/19/2014  17:54:00     -428.900      -95.159      -38.214      157.322      172.389       73.614    24750.141    29717.951     5418.979       12.717        2.994      439.329       73.649        0.028      349.614       30.167      861.378
07/19/2014  17:55:00     -299.358      -12.126      -22.524      126.008       98.588       64.035    15877.961     9719.502     4100.516        5.998        1.485      299.604       65.461        0.048      349.639       30.210      861.406
07/19/2014  17:56:00     -193.561        5.906      -17.072       94.487      121.385       47.458     8927.881    14734.296     2252.250        3.185        1.296      193.651       36.998        0.037      349.610       30.162      861.406
07/19/2014  17:57:00     -175.242       47.429      -27.781      107.963      133.688       57.135    11656.068    17872.477     3264.411        3.326        1.640      181.547       39.285        0.047      349.604       30.151      861.416
07/19/2014  17:58:00     -155.073      237.951      -43.622       84.504      101.873       46.821     7140.876    10378.169     2192.218        5.114        0.986      284.022       38.964        0.019      349.566       30.086      861.392
07/19/2014  17:59:00       -4.785      199.238       -6.063       61.152      112.330       59.167     3739.624    12618.104     3500.781        2.980        0.993      199.296       55.591        0.078      349.495       29.963      861.307
07/19/2014  18:00:00      -20.145      380.145      -59.027       76.237       81.384       34.515     5812.063     6623.288     1191.292        8.101        0.681      380.679       35.914        0.009      349.568       30.089      861.283
07/19/2014  18:01:00     -110.126      312.617      -34.908       71.719       81.696       50.932     5143.675     6674.277     2594.028        6.274        0.721      331.447       48.681        0.022      349.555       30.066      861.327
07/19/2014  18:02:00       41.960      286.081      -44.076       83.556       92.411       48.609     6981.640     8539.818     2362.846        5.171        0.894      289.142       54.727        0.036      349.538       30.037      861.306
07/19/2014  18:03:00       16.992      126.630      -11.319       55.107       77.202       39.934     3036.830     5960.098     1594.693        1.352        0.530      127.764       44.685        0.122      349.497       29.968      861.304
07/19/2014  18:04:00       30.391      135.252       -9.229       55.981       85.439       44.708     3133.894     7299.764     1998.805        1.586        0.622      138.625       52.736        0.145      349.458       29.900      861.299
07/19/2014  18:05:00       32.361       97.755       -2.421       60.200       59.035       47.715     3624.003     3485.138     2276.698        1.000        0.469      102.972       40.596        0.155      349.414       29.826      861.309
07/19/2014  18:06:00       -0.908      151.850      -14.387       77.267       79.990       38.108     5970.124     6398.347     1452.185        1.854        0.691      151.853       36.768        0.059      349.405       29.808      861.317
07/19/2014  18:07:00      -45.229       56.821       -6.365       93.095       72.288       44.045     8666.624     5225.620     1939.965        1.057        0.792       72.624       44.682        0.379      349.411       29.819      861.333
07/19/2014  18:08:00     -101.069       29.229      -14.146       35.828       39.587       20.012     1283.613     1567.094      400.473        0.726        0.163      105.210       16.653        0.025      349.508       29.986      861.354
07/19/2014  18:09:00      -16.051      157.536       -5.169       88.112      139.707       54.209     7763.784    19518.041     2938.660        2.766        1.511      158.351       67.285        0.181      349.393       29.786      861.337
07/19/2014  18:10:00      -65.014      244.320      -25.606       67.367       99.159       40.221     4538.332     9832.602     1617.739        4.028        0.799      252.823       38.164        0.023      349.398       29.791      861.299
07/19/2014  18:11:00      -87.730      320.621      -45.347       79.035       95.938       34.136     6246.600     9204.035     1165.286        6.458        0.831      332.407       31.287        0.009      349.381       29.764      861.275
07/19/2014  18:12:00      -55.936      302.848      -44.121       64.995       78.942       40.525     4224.353     6231.766     1642.265        5.444        0.605      307.970       28.819        0.009      349.380       29.760      861.250
07/19/2014  18:13:00        5.151      269.374      -36.853       58.690       91.559       41.377     3444.543     8383.137     1712.031        4.374        0.677      269.423       51.989        0.037      349.375       29.752      861.212
07/19/2014  18:14:00      -26.440      334.351      -35.321      107.301      177.102       65.492    11513.514    31365.205     4289.227        8.044        2.358      335.395       86.125        0.066      349.432       29.851      861.194
07/19/2014  18:15:00      -99.393      298.366      -37.509       93.246       97.864       48.431     8694.738     9577.423     2345.548        6.046        1.031      314.485       54.523        0.030      349.416       29.823      861.178
07/19/2014  18:16:00       -8.204      228.135       -6.218       91.641      123.846       75.620     8398.075    15337.796     5718.331        4.080        1.473      228.282       82.102        0.129      349.394       29.787      861.152
07/19/2014  18:17:00        7.250      307.720      -40.803       69.261      105.317       49.945     4797.073    11091.615     2494.499        5.739        0.919      307.805       54.435        0.031      349.421       29.832      861.123
07/19/2014  18:18:00       -8.249      142.616      -17.565       40.107      108.592       41.413     1608.585    11792.321     1715.032        1.791        0.756      142.855       59.332        0.173      349.579       30.110      861.098
07/19/2014  18:19:00       33.085       88.076       -5.652       38.420       47.832       39.167     1476.121     2287.889     1534.055        0.709        0.265       94.086       26.111        0.077      349.485       29.949      861.030
07/19/2014  18:20:00     -115.893       78.456      -23.558       96.748       77.614       31.583     9360.222     6023.958      997.500        1.826        0.819      139.952       44.447        0.101      349.400       29.798      860.986
07/19/2014  18:21:00     -227.524      148.277      -31.152       78.575       93.877       57.249     6173.975     8812.968     3277.473        4.649        0.913      271.576       45.653        0.028      349.415       29.822      860.931
07/19/2014  18:22:00     -225.188      172.337      -45.518       69.189      110.144       49.496     4787.067    12131.772     2449.872        5.092        0.968      283.566       46.115        0.026      349.463       29.905      860.879
07/19/2014  18:23:00     -272.871      105.241      -25.448      130.385       92.057       61.284    17000.127     8474.485     3755.694        5.770        1.462      292.463       58.257        0.040      349.462       29.903      860.825
07/19/2014  18:24:00     -167.094       59.705      -25.494       66.814      111.102       43.796     4464.099    12343.571     1918.099        2.543        0.936      177.441       31.025        0.031      349.453       29.890      860.732
07/19/2014  18:25:00     -288.641      -29.352      -21.797      123.117      121.854       60.304    15157.864    14848.488     3636.628        5.914        1.682      290.130       59.814        0.043      349.448       29.878      860.638
07/19/2014  18:26:00     -492.571      -31.609      -48.832      240.536      159.306       98.747    57857.401    25378.475     9751.002       16.948        4.649      493.584      108.957        0.049      349.509       29.985      860.583
07/19/2014  18:27:00     -430.147      -37.654      -41.347      143.052      134.696       69.319    20463.797    18143.090     4805.088       11.577        2.171      431.792       77.785        0.032      349.549       30.056      860.495
07/19/2014  18:28:00     -293.071     -103.497       -7.161      134.142      114.139       70.151    17994.150    13027.651     4921.122        6.629        1.797      310.809       64.211        0.043      349.498       29.967      860.385
07/19/2014  18:29:00     -287.603     -134.901       -3.665      150.454      122.318       72.756    22636.445    14961.735     5293.413        7.190        2.145      317.670       74.925        0.056      349.486       29.947      860.312
07/19/2014  18:30:00     -382.540     -120.961      -41.054      178.314      116.552       90.121    31795.902    13584.383     8121.864       10.807        2.675      401.209       92.192        0.053      349.465       29.910      860.275
07/19/2014  18:31:00     -488.277     -101.316      -38.955      153.638      135.873       84.915    23604.648    18461.510     7210.474       14.973        2.464      498.677       70.643        0.020      349.523       30.009      860.270
07/19/2014  18:32:00     -258.668       -5.893        1.413      159.911      110.221       72.582    25571.380    12148.657     5268.133        5.496        2.149      258.736       74.512        0.083      349.533       30.029      860.262
07/19/2014  18:33:00     -170.804       74.617      -21.016      103.004       84.741       53.754    10609.821     7181.105     2889.467        2.793        1.034      186.391       31.973        0.029      349.522       30.008      860.222
07/19/2014  18:34:00     -143.536       51.828      -18.326       74.958       68.513       52.896     5618.738     4693.979     2797.960        1.836        0.656      152.606       49.103        0.104      349.487       29.951      860.192
07/19/2014  18:35:00     -167.291       81.664      -36.154       94.595       92.227       55.696     8948.121     8505.747     3102.046        2.825        1.028      186.159       43.675        0.055      349.477       29.932      860.176
07/19/2014  18:36:00     -202.816       59.472      -13.830      105.621       78.715       49.173    11155.830     6195.977     2417.967        3.231        0.988      211.355       42.153        0.040      349.466       29.912      860.150
07/19/2014  18:37:00     -206.544      143.527      -30.542       91.729       76.935       52.252     8414.222     5919.033     2730.265        4.062        0.853      251.516       46.257        0.034      349.452       29.885      860.117
07/19/2014  18:38:00     -173.384       86.857      -29.590       72.639       98.231       48.105     5276.452     9649.369     2314.110        2.786        0.862      193.923       47.145        0.059      349.493       29.959      860.088
07/19/2014  18:39:00     -167.892      -49.662        8.419       87.869      107.648       45.133     7720.957    11588.076     2036.953        2.603        1.067      175.083       43.153        0.061      349.470       29.918      860.051
07/19/2014  18:40:00     -242.204      -32.594       -8.105      165.923      109.743       54.661    27530.297    12043.562     2987.859        5.117        2.128      244.387       63.836        0.068      349.566       30.086      860.035
07/19/2014  18:41:00     -267.478      -30.937      -29.116      127.878       89.668       53.292    16352.712     8040.318     2840.010        5.029        1.362      269.261       52.950        0.039      349.664       30.254      860.051
07/19/2014  18:42:00     -255.331      -39.657       -6.827      168.657      124.345       53.706    28445.258    15461.795     2884.364        5.679        2.340      258.392       68.636        0.071      349.705       30.325      860.051
07/19/2014  18:43:00     -358.117      -77.295       -4.113      155.282      131.387       72.977    24112.461    17262.453     5325.637        9.046        2.335      366.364       79.809        0.047      349.803       30.496      860.047
07/19/2014  18:44:00     -289.635      -25.994      -27.653      159.805      120.546       61.119    25537.772    14531.359     3735.557        6.456        2.190      290.799       66.111        0.052      349.786       30.466      860.059
07/19/2014  18:45:00     -389.401      -72.281       -1.116      201.565      141.695       92.560    40628.330    20077.582     8567.291       11.305        3.464      396.052       95.288        0.058      349.739       30.384      860.057
07/19/2014  18:46:00     -417.426     -114.144      -24.993      147.018      133.112       70.409    21614.384    17718.732     4957.481       11.609        2.215      432.751       67.172        0.024      349.730       30.367      860.055
07/19/2014  18:47:00     -453.707      -34.880      -30.400      190.169      113.576       82.031    36164.385    12899.536     6729.035       13.188        2.790      455.046      101.276        0.050      349.731       30.370      860.056
07/19/2014  18:48:00     -289.664      -26.011      -15.154      142.524      125.982       69.040    20312.953    15871.357     4766.496        6.287        2.048      290.830       70.083        0.058      349.711       30.335      860.027
07/19/2014  18:49:00     -283.208      -88.964      -25.643      107.637       89.307       42.818    11585.697     7975.733     1833.375        5.508        1.070      296.853       32.049        0.012      349.710       30.331      860.011
07/19/2014  18:50:00     -337.356      -49.150      -18.889      142.983      119.305       66.045    20444.253    14233.774     4361.927        7.780        1.952      340.917       69.308        0.041      349.723       30.355      860.003
07/19/2014  18:51:00     -337.294      -93.488      -25.213      135.536      100.064       59.353    18370.062    10012.742     3522.753        7.752        1.595      350.010       67.017        0.037      349.737       30.380      859.981
07/19/2014  18:52:00     -311.277      -38.082      -16.137      111.913      100.325       56.702    12524.432    10065.020     3215.138        6.220        1.290      313.598       58.588        0.035      349.710       30.333      859.974
07/19/2014  18:53:00     -113.925      -28.714        2.883       93.351       72.715       48.016     8714.430     5287.400     2305.559        1.506        0.815      117.488       52.897        0.203      349.666       30.261      859.949
07/19/2014  18:54:00      -71.421      -51.193        2.933       82.438       94.640       39.546     6796.095     8956.788     1563.860        1.252        0.866       87.874       45.342        0.266      349.653       30.237      859.933
07/19/2014  18:55:00     -159.659       -0.724      -14.783       94.403       85.660       53.391     8911.925     7337.573     2850.612        2.240        0.955      159.661       50.994        0.102      349.709       30.333      859.923
07/19/2014  18:56:00     -132.851        2.357        9.973      114.473      117.200       54.691    13104.129    13735.830     2991.109        2.379        1.492      132.872       57.226        0.185      349.665       30.257      859.886
07/19/2014  18:57:00     -261.336      -18.493      -19.853      105.803      121.754       61.594    11194.172    14824.054     3793.882        4.942        1.491      261.990       56.834        0.047      349.736       30.379      859.856
07/19/2014  18:58:00     -323.162     -103.710      -10.286      122.483      117.668       60.818    15001.975    13845.750     3698.831        7.391        1.627      339.395       56.900        0.028      349.729       30.365      859.825
07/19/2014  18:59:00     -382.511      -97.315      -15.466      170.664      149.823       74.203    29126.032    22446.898     5506.081       10.654        2.854      394.696       78.963        0.040      349.757       30.416      859.798
07/19/2014  19:00:00     -220.840      -77.016        7.242      143.016      101.035       54.913    20453.635    10208.172     3015.430        4.421        1.684      233.884       66.890        0.082      349.709       30.333      859.776
07/19/2014  19:01:00     -294.962      -73.794      -12.584      131.999      115.581       62.394    17423.734    13358.931     3892.974        6.363        1.734      304.052       58.820        0.037      349.746       30.396      859.763
07/19/2014  19:02:00     -234.432      -92.858       -1.477      151.105       98.948       64.901    22832.827     9790.773     4212.121        5.020        1.842      252.153       67.268        0.071      349.810       30.509      859.750
07/19/2014  19:03:00     -308.473      -59.263      -21.366      179.998       94.135       59.230    32399.267     8861.313     3508.201        7.194        2.238      314.114       53.509        0.029      349.823       30.531      859.733
07/19/2014  19:04:00     -354.436      -48.514       -3.101      174.321      123.537       76.035    30387.949    15261.498     5781.292        8.970        2.572      357.741       77.676        0.047      349.891       30.648      859.702
07/19/2014  19:05:00     -410.754      -96.934      -13.079      217.211      159.860       92.203    47180.651    25555.096     8501.324       12.975        4.062      422.037      102.204        0.059      349.931       30.719      859.663
07/19/2014  19:06:00     -312.624     -112.644        3.658      208.467      158.209       77.507    43458.682    25030.082     6007.304        9.245        3.725      332.298       98.065        0.087      349.909       30.681      859.657
07/19/2014  19:07:00     -370.105     -134.688      -31.361      185.778      147.467       86.495    34513.333    21746.621     7481.302       10.991        3.187      393.851       93.365        0.056      349.943       30.739      859.655
07/19/2014  19:08:00     -276.821     -115.882       21.393      145.651      139.848       98.212    21214.184    19557.573     9645.669        7.046        2.521      300.098       95.832        0.102      349.947       30.747      859.662
07/19/2014  19:09:00     -342.560      -82.211      -18.740      170.956      125.657       73.296    29225.787    15789.603     5372.321        8.741        2.519      352.287       84.965        0.058      349.944       30.741      859.656
07/19/2014  19:10:00     -171.238      -98.081      -15.432      146.370      126.622       66.763    21424.274    16033.203     4457.319        4.054        2.096      197.338       51.761        0.069      349.934       30.725      859.660
07/19/2014  19:11:00     -299.307      -29.157       -3.414      111.321      115.377       54.196    12392.459    13311.882     2937.178        5.954        1.432      300.724       49.494        0.027      349.964       30.775      859.653
07/19/2014  19:12:00     -227.812      -86.653       -3.001      142.465       88.395       60.965    20296.342     7813.683     3716.785        4.562        1.591      243.736       72.009        0.087      349.900       30.666      859.660
07/19/2014  19:13:00     -481.422     -147.390      -14.794      181.134      128.983       66.062    32809.525    16636.512     4364.156       15.375        2.691      503.479       64.474        0.016      349.960       30.768      859.637
07/19/2014  19:14:00     -511.816     -131.927      -22.418      197.745      105.928       69.767    39103.179    11220.647     4867.406       16.752        2.760      528.546       85.612        0.026      349.910       30.683      859.631
07/19/2014  19:15:00     -301.150      -73.338        2.339      181.890      137.731       84.326    33084.128    18969.778     7110.906        7.761        2.958      309.951       95.950        0.096      349.841       30.561      859.607
07/19/2014  19:16:00     -329.692      -23.992      -11.687      164.611      121.981       76.021    27096.828    14879.453     5779.218        7.857        2.388      330.564       84.788        0.066      349.813       30.512      859.592
07/19/2014  19:17:00     -576.708     -141.523      -39.246      160.606      166.457       84.881    25794.386    27707.799     7204.818       20.742        3.035      593.819       78.639        0.018      349.785       30.464      859.613
07/19/2014  19:18:00     -482.489     -116.755      -24.074      222.917      171.498       89.936    49692.041    29411.566     8088.408       16.708        4.360      496.415      105.041        0.045      349.720       30.350      859.615
07/19/2014  19:19:00     -478.300     -118.849      -13.798      227.778      124.346       80.348    51882.932    15462.046     6455.867       15.843        3.690      492.844       83.268        0.029      349.710       30.333      859.636
07/19/2014  19:20:00     -320.755       -4.430      -10.730      167.477      125.016       72.630    28048.637    15629.092     5275.110        7.598        2.448      320.786       63.924        0.040      349.691       30.299      859.672
07/19/2014  19:21:00     -512.042        0.299      -37.114      173.059      132.965       87.372    29949.568    17679.668     7633.831       15.940        2.763      512.042       92.434        0.033      349.699       30.314      859.684
07/19/2014  19:22:00     -464.633      -85.095      -25.419      166.004      143.681       72.231    27557.359    20644.266     5217.302       13.858        2.671      472.361       55.796        0.014      349.684       30.287      859.712
07/19/2014  19:23:00     -500.752     -117.481      -29.313      140.286      108.685       74.354    19680.111    11812.515     5528.457       15.121        1.851      514.348       61.167        0.014      349.630       30.196      859.727
07/19/2014  19:24:00     -294.428      -66.543       -5.698      207.951      168.891       77.303    43243.709    28524.258     5975.804        8.443        3.887      301.854       92.298        0.093      349.596       30.136      859.751
07/19/2014  19:25:00     -181.186      -60.403        1.729      157.092      104.429       59.256    24678.007    10905.507     3511.226        3.778        1.955      190.989       72.936        0.146      349.548       30.055      859.774
07/19/2014  19:26:00     -309.138      -15.817       -4.517      155.476      115.351       73.631    24172.883    13305.927     5421.515        6.936        2.145      309.542       72.749        0.055      349.571       30.094      859.783
07/19/2014  19:27:00     -282.153      -38.052      -18.525       98.618       91.287       54.940     9725.511     8333.390     3018.406        5.124        1.054      284.708       45.267        0.025      349.546       30.049      859.793
07/19/2014  19:28:00     -289.812      -28.210      -15.692      153.178       99.891       58.123    23463.624     9978.213     3378.276        6.092        1.841      291.181       58.477        0.040      349.545       30.048      859.813
07/19/2014  19:29:00     -206.352      -38.887        6.737      117.457      103.158       57.025    13796.075    10641.477     3251.862        3.591        1.384      209.984       56.254        0.072      349.539       30.040      859.821
07/19/2014  19:30:00     -246.573      -36.968       -0.404      192.445       96.277       67.228    37035.178     9269.217     4519.628        5.648        2.541      249.329       88.556        0.126      349.556       30.069      859.833
07/19/2014  19:31:00     -160.746     -105.300       12.992      116.610       77.345       45.273    13597.854     5982.261     2049.685        2.936        1.081      192.165       55.549        0.084      349.537       30.036      859.860
07/19/2014  19:32:00      -77.106      -72.433       10.983       77.799       50.359       44.055     6052.623     2536.046     1940.871        1.092        0.526      105.792       44.065        0.173      349.522       30.010      859.866
07/19/2014  19:33:00     -129.609     -160.193       13.400      121.579      108.305       70.712    14781.465    11729.989     5000.144        3.707        1.576      206.059       70.035        0.116      349.502       29.974      859.851
07/19/2014  19:34:00     -144.420     -155.828       17.533      115.467      108.510       62.441    13332.722    11774.381     3898.925        3.722        1.450      212.461       71.393        0.113      349.515       29.996      859.854
07/19/2014  19:35:00     -207.175     -210.293        2.784      122.036       90.360       51.039    14892.733     8164.892     2604.935        5.640        1.283      295.203       41.537        0.020      349.539       30.037      859.840
07/19/2014  19:36:00     -195.944     -138.630        2.042      109.551       76.691       43.248    12001.486     5881.544     1870.422        3.868        0.988      240.025       45.627        0.036      349.508       29.985      859.836
07/19/2014  19:37:00     -223.031     -169.991      -15.509       99.223      116.611       54.428     9845.266    13598.040     2962.455        5.264        1.320      280.428       20.940        0.006      349.563       30.080      859.831
07/19/2014  19:38:00     -223.083     -149.623        2.654      114.807       76.895       54.844    13180.605     5912.916     3007.894        4.713        1.105      268.614       56.529        0.044      349.580       30.111      859.838
07/19/2014  19:39:00     -235.287     -234.980        2.358      169.356      120.166       80.823    28681.395    14439.908     6532.429        8.011        2.483      332.529       82.216        0.061      349.699       30.314      859.840
07/19/2014  19:40:00     -189.984     -194.712       -9.281      134.093       98.801       53.653    17980.970     9761.620     2878.624        5.235        1.531      272.042       62.144        0.052      349.673       30.269      859.828
07/19/2014  19:41:00     -320.503     -196.851      -11.688      152.141      131.154       57.173    23147.009    17201.384     3268.706        9.260        2.181      376.128       56.128        0.022      349.679       30.279      859.835
07/19/2014  19:42:00     -299.984     -232.689        9.372      184.264      132.639       86.409    33953.316    17593.045     7466.465       10.161        2.951      379.651       98.743        0.068      349.700       30.317      859.815
07/19/2014  19:43:00     -351.519     -212.864       -5.314      198.240      146.565       91.431    39298.948    21481.379     8359.598       11.901        3.457      410.946      107.053        0.068      349.684       30.287      859.811
07/19/2014  19:44:00     -368.610     -266.755      -16.797      172.192      109.994       77.935    29649.957    12098.584     6073.919       12.756        2.391      455.007       73.358        0.026      349.709       30.331      859.822
07/19/2014  19:45:00     -276.311     -105.592        6.035      177.981      118.636       69.195    31677.399    14074.496     4787.978        6.903        2.527      295.799       65.921        0.050      349.688       30.297      859.801
07/19/2014  19:46:00     -223.410     -177.921       -3.320      149.332      129.234       62.284    22299.985    16701.431     3879.250        6.222        2.144      285.601       58.692        0.042      349.611       30.160      859.818
07/19/2014  19:47:00     -227.893     -167.950       -2.251      136.005      121.732       58.199    18497.321    14818.717     3387.146        5.842        1.835      283.094       57.997        0.042      349.451       29.884      859.831
07/19/2014  19:48:00     -365.650     -175.883       -6.532      183.181      154.388       74.095    33555.163    23835.723     5490.027       11.377        3.144      405.752       91.363        0.051      349.231       29.504      859.845
07/19/2014  19:49:00     -439.267     -219.302      -13.336      216.389      128.202       86.971    46824.268    16435.736     7563.926       15.601        3.541      490.967       97.207        0.039      349.125       29.318      859.832
07/19/2014  19:50:00     -406.352     -254.653      -14.612      187.566      183.151       98.988    35181.161    33544.223     9798.647       15.434        3.926      479.552      103.317        0.046      349.124       29.316      859.846
07/19/2014  19:51:00     -360.893     -273.004      -14.417      180.512      203.208       89.931    32584.699    41293.656     8087.581       14.346        4.098      452.520       94.568        0.044      349.104       29.283      859.834
07/19/2014  19:52:00     -452.133     -318.248      -28.390      192.134      162.683       97.249    36915.613    26465.683     9457.445       18.966        3.642      552.907       95.239        0.030      349.082       29.245      859.867
07/19/2014  19:53:00     -625.020     -326.352       -3.092      244.385      204.100      113.185    59723.872    41656.643    12810.920       30.566        5.710      705.092      116.786        0.027      349.060       29.207      859.866
07/19/2014  19:54:00     -368.474     -209.738        1.441      264.446      156.472       96.830    69931.949    24483.434     9376.092       14.176        5.190      423.985      118.568        0.078      349.042       29.174      859.914
07/19/2014  19:55:00     -350.404      -63.961       -5.131      196.447      161.765       83.714    38591.511    26167.777     7008.038        9.932        3.588      356.194      106.920        0.090      349.045       29.180      859.959
07/19/2014  19:56:00     -389.304     -178.930        6.032      199.123      175.364       93.849    39649.868    30752.687     8807.658       13.139        3.961      428.455      105.098        0.060      349.000       29.104      859.986
07/19/2014  19:57:00     -311.416     -160.737      -28.576      194.883      170.024       58.078    37979.507    28908.062     3373.027        9.693        3.513      350.451       74.148        0.045      348.999       29.105      860.041
07/19/2014  19:58:00     -145.991      -84.751        3.910      143.497      129.793       49.915    20591.410    16846.189     2491.486        3.421        1.996      168.808       63.308        0.141      348.985       29.080      860.148
07/19/2014  19:59:00     -165.897      -36.946       11.129      102.640      116.433       65.069    10535.010    13556.742     4234.033        2.866        1.416      169.962       59.604        0.123      348.985       29.078      860.251
07/19/2014  20:00:00      -90.087       22.467        0.839      110.605       37.288       39.231    12233.395     1390.391     1539.085        1.189        0.758       92.846       52.413        0.319      348.951       29.023      860.336
07/19/2014  20:01:00       61.858       56.576       16.738       68.389       47.271       50.104     4677.102     2234.503     2510.432        0.836        0.471       83.828       33.283        0.158      348.936       28.998      860.414
07/19/2014  20:02:00       63.297       17.801       15.983       49.949       31.106       37.424     2494.882      967.567     1400.532        0.472        0.243       65.753       20.162        0.094      348.714       28.611      860.462
07/19/2014  20:03:00       53.832       44.760        8.013       53.350       27.312       30.578     2846.210      745.929      934.987        0.475        0.226       70.009       18.213        0.068      348.677       28.546      860.527
07/19/2014  20:04:00       19.132       54.513       37.490       38.855       45.244       42.897     1509.706     2046.987     1840.114        0.507        0.270       57.773       28.651        0.246      348.722       28.623      860.571
07/19/2014  20:05:00       43.332       -1.160       10.116       32.422       41.978       26.802     1051.200     1762.177      718.350        0.276        0.177       43.347       11.051        0.065      348.834       28.820      860.645
07/19/2014  20:06:00        7.872      -44.832       -0.107       35.979       55.770       35.027     1294.497     3110.242     1226.868        0.385        0.282       45.518       42.493        0.872      348.947       29.016      860.710
07/19/2014  20:07:00       46.023       53.262       64.450       35.859       31.406       26.053     1285.836      986.331      678.751        0.603        0.148       70.391       12.219        0.030      348.539       28.307      860.756
07/19/2014  20:08:00       24.064       48.126       65.139       40.310       57.589       35.155     1624.890     3316.468     1235.870        0.666        0.309       53.806       19.837        0.136      348.591       28.398      860.787
07/19/2014  20:09:00       42.146       52.624       79.773       54.083       47.061       41.349     2924.954     2214.770     1709.758        0.888        0.342       67.420       29.817        0.196      348.676       28.545      860.826
07/19/2014  20:10:00       85.432      -19.482        9.724       50.861       39.626       43.910     2586.848     1570.189     1928.050        0.693        0.304       87.625       37.714        0.185      348.752       28.678      860.869
07/19/2014  20:11:00        2.523        9.996       46.375       44.303       59.516       40.922     1962.748     3542.140     1674.606        0.472        0.359       10.309       38.958       14.281      348.572       28.367      860.860
07/19/2014  20:12:00      -14.221      -76.062        5.439      112.930       80.622       60.729    12753.099     6499.929     3688.032        1.447        1.147       77.380       43.864        0.321      348.765       28.700      860.847
07/19/2014  20:13:00     -157.144     -179.142       -5.116      115.201       99.379       49.349    13271.320     9876.186     2435.349        4.119        1.279      238.298       58.208        0.060      348.830       28.810      860.901
07/19/2014  20:14:00     -103.113     -211.828        1.823       92.100      173.868       51.110     8482.402    30229.987     2612.243        4.841        2.066      235.592       41.211        0.031      348.817       28.786      860.891
07/19/2014  20:15:00     -209.244     -159.865       -7.569      113.869       92.498       57.014    12966.205     8555.969     3250.562        4.708        1.239      263.324       56.653        0.046      348.819       28.788      860.886
07/19/2014  20:16:00     -366.203     -170.211       -0.726      150.882      127.763       77.838    22765.467    16323.472     6058.678       10.410        2.257      403.827       65.193        0.026      348.817       28.785      860.865
07/19/2014  20:17:00     -278.578     -143.974      -14.681      101.605       92.485       56.209    10323.661     8553.562     3159.474        6.029        1.102      313.582       45.063        0.021      348.803       28.761      860.877
07/19/2014  20:18:00     -272.629     -170.661        6.843      189.257      108.862       63.056    35818.098    11850.903     3976.000        7.756        2.582      321.639       83.887        0.068      348.809       28.772      860.856
07/19/2014  20:19:00     -268.442     -176.019        1.278      157.070      112.213       66.994    24670.919    12591.707     4488.261        7.239        2.088      321.004       77.305        0.058      348.825       28.800      860.830
07/19/2014  20:20:00     -383.233     -248.262       -0.286      181.540      116.824       86.092    32956.593    13647.782     7411.836       13.125        2.701      456.619       85.381        0.035      348.814       28.779      860.818
07/19/2014  20:21:00     -278.097     -189.011        7.757      134.506      155.597       71.427    18091.859    24210.570     5101.868        8.025        2.370      336.249       62.471        0.035      348.845       28.835      860.818
07/19/2014  20:22:00     -297.555     -159.927        8.461      175.265       88.437       59.239    30717.659     7821.098     3509.219        7.811        2.102      337.810       71.640        0.045      348.826       28.802      860.823
07/19/2014  20:23:00     -310.022     -128.111        6.041      194.242      134.966       72.695    37730.017    18215.805     5284.522        8.688        3.062      335.450       78.773        0.055      348.822       28.795      860.826
07/19/2014  20:24:00     -275.431     -113.613      -11.086      149.781      116.094       60.602    22434.427    13477.899     3672.559        6.423        1.979      297.943       72.577        0.059      348.819       28.790      860.841
07/19/2014  20:25:00     -267.417     -164.804       -7.632      167.156      141.441       75.350    27941.003    20005.509     5677.589        7.617        2.681      314.121       82.229        0.069      348.866       28.871      860.841
07/19/2014  20:26:00     -196.744     -144.975       -4.484       98.642       99.302       53.218     9730.280     9860.802     2832.168        4.108        1.121      244.389       54.745        0.050      348.868       28.874      860.857
07/19/2014  20:27:00     -246.915     -160.696        2.091      136.666       96.596       70.660    18677.697     9330.798     4992.816        5.989        1.650      294.602       81.793        0.077      348.859       28.859      860.879
07/19/2014  20:28:00     -271.040     -130.793      -30.686       83.012       77.911       46.499     6891.074     6070.064     2162.190        5.331        0.756      300.948       43.580        0.021      348.893       28.917      860.903
07/19/2014  20:29:00     -206.089      -14.910        8.040      110.112       59.770       60.233    12124.667     3572.423     3627.955        3.104        0.966      206.628       65.344        0.100      348.834       28.815      860.934
07/19/2014  20:30:00     -241.506     -109.221        7.721      108.671       92.096       50.437    11809.464     8481.676     2543.899        4.657        1.142      265.056       38.531        0.021      348.849       28.841      860.975
07/19/2014  20:31:00     -241.405     -168.856       -5.601      119.995      103.066       56.249    14398.796    10622.502     3163.961        5.750        1.409      294.599       60.607        0.042      348.837       28.820      861.004
07/19/2014  20:32:00     -214.635     -148.056       16.426      148.410      105.810       62.356    22025.521    11195.836     3888.304        5.268        1.855      260.747       77.046        0.087      348.860       28.861      861.015
07/19/2014  20:33:00     -236.822      -72.047       -3.433       95.552       59.487       46.521     9130.136     3538.751     2164.163        3.806        0.742      247.539       48.065        0.038      348.802       28.761      861.038
07/19/2014  20:34:00     -246.424     -159.603      -14.479      104.007       84.234       44.191    10817.366     7095.343     1952.827        5.313        0.993      293.595       51.426        0.031      348.774       28.712      861.071
07/19/2014  20:35:00     -224.861      -11.307      -23.354       95.315       85.022       42.311     9084.968     7228.757     1790.235        3.467        0.905      225.145       39.032        0.030      348.748       28.668      861.082
07/19/2014  20:36:00     -200.265      -68.011        3.016      111.765       82.550       45.839    12491.435     6814.534     2101.244        3.307        1.070      211.499       52.761        0.062      348.710       28.604      861.112
07/19/2014  20:37:00     -166.403     -101.543        4.397      124.145       82.845       47.136    15412.043     6863.319     2221.805        3.125        1.225      194.938       56.194        0.083      348.725       28.627      861.139
07/19/2014  20:38:00     -258.437     -138.459      -13.660       88.489       77.226       44.613     7830.306     5963.892     1990.284        5.096        0.789      293.191       46.441        0.025      348.735       28.645      861.139
07/19/2014  20:39:00     -297.354     -140.618       -3.939      112.246       89.324       50.352    12599.056     7978.817     2535.366        6.566        1.156      328.927       43.010        0.017      348.775       28.712      861.137
07/19/2014  20:40:00     -288.188     -167.184       -2.616      154.845       97.879       57.820    23977.096     9580.254     3343.143        7.395        1.845      333.171       63.749        0.037      348.810       28.775      861.137
07/19/2014  20:41:00     -201.668     -188.871      -20.978      120.517       87.152       64.209    14524.351     7595.418     4122.827        5.151        1.312      276.301       56.749        0.042      348.823       28.796      861.122
07/19/2014  20:42:00     -109.857     -171.250        8.422       75.864       83.259       46.011     5755.274     6932.117     2116.978        2.813        0.740      203.458       43.942        0.047      348.824       28.798      861.118
07/19/2014  20:43:00      -92.403     -173.455       10.888      107.435       72.221       50.441    11542.271     5215.851     2544.255        2.902        0.965      196.532       48.980        0.062      348.811       28.777      861.120
07/19/2014  20:44:00      -49.252     -100.555        5.859       72.839       70.197       36.707     5305.452     4927.627     1347.436        1.207        0.579      111.969       36.854        0.108      348.770       28.707      861.135
07/19/2014  20:45:00       29.026      -48.922       11.062       37.652       72.706       44.305     1417.669     5286.116     1962.926        0.601        0.433       56.885       43.966        0.597      348.591       28.398      861.128
07/19/2014  20:46:00       14.377        4.722       46.901       61.190       52.751       47.732     3744.166     2782.635     2278.343        0.562        0.440       15.132       27.836        3.384      348.516       28.269      861.096
07/19/2014  20:47:00       31.409       43.329      101.913       61.439       91.604       44.878     3774.768     8391.384     2014.058        1.371        0.709       53.516       43.416        0.658      348.444       28.143      861.061
07/19/2014  20:48:00       14.624       19.883       89.557       50.492       98.467       53.308     2549.418     9695.790     2841.703        1.186        0.754       24.682       57.741        5.473      348.573       28.368      861.056
07/19/2014  20:49:00       71.196     -138.062      -11.872       57.653       53.560       43.442     3323.914     2868.689     1887.234        1.617        0.404      155.338       30.412        0.038      348.810       28.777      861.068
07/19/2014  20:50:00       46.080      -82.819        6.375       41.022       55.169       35.462     1682.810     3043.635     1257.565        0.750        0.299       94.776       32.083        0.115      348.828       28.809      861.068
07/19/2014  20:51:00       51.962      -76.279       -8.713       46.731       57.615       44.429     2183.747     3319.510     1973.964        0.803        0.374       92.296       32.679        0.125      348.762       28.695      861.074
07/19/2014  20:52:00       24.982      -76.160       -3.857       49.021       33.230       33.528     2403.013     1104.203     1124.094        0.553        0.232       80.153       17.265        0.046      348.837       28.826      861.082
07/19/2014  20:53:00       37.974      -12.940       -5.319       32.608       30.202       30.264     1063.285      912.151      915.899        0.226        0.145       40.118       14.534        0.131      348.738       28.652      861.096
07/19/2014  20:54:00        1.588      -22.522       14.111       23.963       45.135       20.680      574.231     2037.192      427.645        0.187        0.152       22.578       25.053        1.231      348.572       28.366      861.111
07/19/2014  20:55:00        9.198        0.730       23.897       28.021       26.639       23.217      785.153      709.611      539.041        0.134        0.102        9.227       18.481        4.012      348.574       28.369      861.144
07/19/2014  20:56:00        0.471        8.267       19.653       17.620       25.861       22.659      310.478      668.781      513.444        0.097        0.075        8.281       17.177        4.303      348.589       28.395      861.175
07/19/2014  20:57:00       -3.912        7.962       22.599        8.312       12.062       14.538       69.083      145.491      211.343        0.051        0.021        8.871       10.061        1.286      348.469       28.187      861.205
07/19/2014  20:58:00       24.288        7.155        9.240       28.557       15.495       11.375      815.525      240.083      129.389        0.096        0.059       25.320       15.120        0.357      348.455       28.163      861.242
07/19/2014  20:59:00       54.689       34.925       20.982       25.925       28.481       23.879      672.118      811.157      570.228        0.335        0.103       64.890       16.758        0.067      348.356       27.992      861.287
07/19/2014  21:00:00      116.764       46.510        7.652       34.894       32.621       29.156     1217.609     1064.121      850.066        0.949        0.157      125.686       16.267        0.017      348.538       28.307      861.336
07/19/2014  21:01:00       95.083       32.921       15.175       44.364       34.436       29.789     1968.165     1185.818      887.374        0.720        0.202      100.621       25.058        0.062      348.599       28.413      861.377
07/19/2014  21:02:00       65.681       54.845       57.321       58.996       47.699       40.143     3480.540     2275.186     1611.459        0.899        0.368       85.568       37.778        0.195      348.407       28.080      861.424
07/19/2014  21:03:00       61.841       40.536       60.712       39.347       45.230       28.367     1548.165     2045.747      804.684        0.678        0.220       73.943       16.009        0.047      348.362       28.003      861.474
07/19/2014  21:04:00       68.975       85.851       79.923       60.565       52.958       31.310     3668.129     2804.513      980.323        1.298        0.373      110.127       23.906        0.047      348.430       28.119      861.528
07/19/2014  21:05:00       29.566       77.444      130.493       69.576       83.393       73.101     4840.839     6954.455     5343.714        2.052        0.857       82.896       60.173        0.527      348.411       28.086      861.566
07/19/2014  21:06:00      193.297     -118.288       39.028      136.583      172.026      111.643    18654.923    29592.837    12464.136        5.678        3.036      226.618      124.131        0.300      348.784       28.728      861.569
07/19/2014  21:07:00      124.701       38.041      136.813      147.349      165.689      103.470    21711.622    27452.813    10706.027        4.778        2.994      130.375      113.920        0.764      348.679       28.549      861.570
07/19/2014  21:08:00       48.512     -109.214       95.640      133.370      258.732      129.291    17787.428    66942.491    16716.212        6.242        5.072      119.503      153.290        1.645      348.533       28.295      861.564
07/19/2014  21:09:00      201.990     -277.869       24.844      170.521      226.700      118.354    29077.308    51392.770    14007.757       10.653        4.724      343.528      138.741        0.163      348.533       28.294      861.595
07/19/2014  21:10:00      130.673     -218.633      -20.225      138.667      157.462       88.665    19228.606    24794.137     7861.416        5.857        2.594      254.707       98.749        0.150      348.522       28.276      861.573
07/19/2014  21:11:00      -38.643     -200.425      -28.973      148.094      127.285       83.119    21931.690    16201.498     6908.704        4.376        2.252      204.116       61.422        0.091      348.486       28.214      861.566
07/19/2014  21:12:00      194.683     -260.555      -16.910      132.603      123.156       63.238    17583.672    15167.469     3999.084        7.141        1.838      325.254       63.862        0.039      348.430       28.117      861.575
07/19/2014  21:13:00       76.264     -179.420        7.349      120.973      151.779       91.882    14634.433    23036.739     8442.320        4.208        2.306      194.956       99.138        0.259      348.402       28.068      861.569
07/19/2014  21:14:00      116.706     -198.915        8.089      113.035      121.120       95.062    12776.841    14669.954     9036.846        4.486        1.824      230.624       73.977        0.103      348.358       27.991      861.573
07/19/2014  21:15:00        5.856     -280.289      -12.888       89.814       96.406       85.714     8066.587     9294.130     7346.916        5.173        1.235      280.350       48.346        0.030      348.337       27.954      861.587
07/19/2014  21:16:00       78.499     -106.333       18.893       59.035       82.689       58.886     3485.117     6837.461     3467.602        1.581        0.690      132.169       48.492        0.135      348.304       27.902      861.596
07/19/2014  21:17:00      117.323     -179.284      -15.283       94.403       96.215       48.481     8911.940     9257.242     2350.420        3.333        1.026      214.260       27.860        0.017      348.313       27.912      861.619
07/19/2014  21:18:00       45.868     -210.806       -9.263      106.432      131.272       51.508    11327.716    17232.251     2653.081        3.891        1.561      215.739       42.953        0.040      348.309       27.908      861.622
07/19/2014  21:19:00      -13.867     -124.791       -3.540       92.228      112.615       63.500     8505.967    12682.189     4032.200        2.049        1.261      125.559       22.355        0.032      348.269       27.839      861.640
07/19/2014  21:20:00      158.811     -144.331       28.868      119.594      191.946       97.545    14302.767    36843.163     9515.002        5.376        3.033      214.598      106.095        0.244      348.250       27.805      861.622
07/19/2014  21:21:00      213.257     -330.252        8.403      176.307      242.769      109.270    31084.074    58936.644    11940.029       12.827        5.098      393.122      109.886        0.078      348.255       27.812      861.625
07/19/2014  21:22:00      121.013     -159.045       56.134      153.884      237.295      147.897    23680.209    56309.012    21873.547        7.246        5.093      199.848      164.321        0.676      348.247       27.800      861.631
07/19/2014  21:23:00      175.738     -197.634       79.676      174.069      266.660      147.406    30299.987    71107.413    21728.451        9.969        6.157      264.468      169.579        0.411      348.211       27.737      861.624
07/19/2014  21:24:00      115.157     -294.388       -1.034      141.323      167.507       91.304    19972.307    28058.457     8336.472        7.814        2.818      316.110       93.271        0.087      348.184       27.691      861.680
07/19/2014  21:25:00      132.889     -336.543      -10.735      141.167      178.604       88.067    19928.111    31899.306     7755.753        9.530        2.979      361.829       83.647        0.053      348.152       27.637      861.725
07/19/2014  21:26:00      -51.088      -70.358       12.384      105.803       90.234       57.018    11194.350     8142.263     3251.019        1.515        1.129       86.950       40.017        0.212      348.079       27.512      861.767
07/19/2014  21:27:00        3.657     -169.671        2.287      119.616      120.519       60.413    14307.990    14524.755     3649.709        3.064        1.624      169.710       33.682        0.039      348.080       27.513      861.824
07/19/2014  21:28:00       28.667     -212.797        7.341      122.037      130.181       66.082    14893.108    16947.067     4366.783        4.118        1.810      214.720       37.472        0.030      348.094       27.537      861.881
07/19/2014  21:29:00       69.538     -120.462      -14.202       94.176       76.251       45.540     8869.202     5814.186     2073.921        1.815        0.838      139.092       43.896        0.100      348.059       27.477      861.921
07/19/2014  21:30:00      -34.629      -16.836       22.914       46.159       69.069       33.904     2130.626     4770.525     1149.509        0.503        0.403       38.505       37.850        0.966      348.059       27.479      861.960
07/19/2014  21:31:00      -41.812      -31.017       10.703       32.595       33.651       23.764     1062.462     1132.370      564.714        0.279        0.138       52.060       22.164        0.181      348.078       27.512      862.005
07/19/2014  21:32:00      -41.162      -98.768       -3.425       38.376       31.316       19.103     1472.700      980.700      364.922        0.714        0.141      107.002        8.624        0.006      348.081       27.516      862.041
07/19/2014  21:33:00      -10.731      -34.443       14.012       17.153       52.092       17.039      294.220     2713.557      290.323        0.240        0.165       36.076       16.331        0.205      348.018       27.407      862.079
07/19/2014  21:34:00       -3.162      -45.529        9.237       24.053       28.317       17.020      578.539      801.847      289.694        0.192        0.084       45.638       15.427        0.114      348.120       27.584      862.106
07/19/2014  21:35:00        1.093      -45.833       10.385       18.501       30.717       14.587      342.294      943.547      212.780        0.185        0.075       45.846        9.651        0.044      348.026       27.422      862.123
07/19/2014  21:36:00       37.662      -25.595       12.514       24.522       49.993       25.597      601.304     2499.323      655.210        0.299        0.188       45.536       28.042        0.379      347.669       26.807      862.143
07/19/2014  21:37:00        7.065       32.884       42.198       27.067       33.427       23.409      732.636     1117.349      547.959        0.265        0.120       33.635       21.460        0.407      347.586       26.663      862.133
07/19/2014  21:38:00       48.984      -70.181       26.181       70.238      107.952       52.664     4933.349    11653.725     2773.505        1.368        0.968       85.585       66.042        0.595      347.773       26.984      862.130
07/19/2014  21:39:00       32.914      -52.077       33.512       52.234       99.436       51.499     2728.357     9887.503     2652.188        1.009        0.763       61.606       53.701        0.760      348.045       27.456      862.127
07/19/2014  21:40:00       25.934       -2.474       47.998       43.722       63.453       37.801     1911.588     4026.314     1428.917        0.517        0.368       26.052       38.686        2.205      347.923       27.242      862.169
07/19/2014  21:41:00       17.670      -23.705       14.654       51.282       46.495       22.887     2629.876     2161.807      523.810        0.320        0.266       29.566       11.415        0.149      347.981       27.344      862.186
07/19/2014  21:42:00       -5.118      -99.526      -16.723       58.597       62.876       31.925     3433.585     3953.363     1019.233        0.931        0.420       99.657       39.458        0.157      348.032       27.433      862.208
07/19/2014  21:43:00      -67.489      -43.542        2.244       44.865       35.386       21.694     2012.835     1252.177      470.622        0.509        0.187       80.316        9.571        0.014      347.951       27.292      862.222
07/19/2014  21:44:00      -49.328      -46.061        7.286       56.837       41.179       25.022     3230.449     1695.742      626.117        0.508        0.278       67.489       27.117        0.161      347.976       27.335      862.224
07/19/2014  21:45:00      -26.778      -75.956       -0.772       40.715       33.467       18.574     1657.717     1120.013      344.996        0.480        0.156       80.538       18.207        0.051      347.982       27.346      862.241
07/19/2014  21:46:00       -9.775      -60.915       -6.654       16.671       36.025       18.030      277.914     1297.795      325.071        0.288        0.095       61.694       16.894        0.075      347.999       27.372      862.255
07/19/2014  21:47:00      -38.242       -1.176       -8.509       22.499        9.255       14.793      506.224       85.655      218.839        0.117        0.041       38.261        7.559        0.039      347.918       27.236      862.260
07/19/2014  21:48:00       -9.948        2.930       -1.116       14.290        7.378       11.333      204.212       54.433      128.428        0.025        0.019       10.371        7.947        0.587      347.877       27.165      862.269
07/19/2014  21:49:00       -0.824        5.755        2.572       16.068        9.642       11.111      258.168       92.959      123.449        0.026        0.024        5.813        9.820        2.853      347.809       27.046      862.272
07/19/2014  21:50:00       12.753      -10.116      -14.425       29.835       19.415       13.724      890.116      376.932      188.346        0.096        0.073       16.278        7.190        0.195      347.479       26.478      862.276
07/19/2014  21:51:00      -12.113      -13.638       -4.448       15.041        9.542        7.250      226.218       91.045       52.564        0.036        0.018       18.241        3.227        0.031      347.905       27.212      862.283
07/19/2014  21:52:00      -11.526      -13.679        6.453       25.552       17.557       15.162      652.911      308.247      229.887        0.078        0.060       17.888       10.840        0.367      347.823       27.071      862.283
07/19/2014  21:53:00      -31.659      -34.698        8.271       33.664       31.120       20.419     1133.243      968.478      416.918        0.240        0.126       46.971       18.245        0.151      347.933       27.261      862.274
07/19/2014  21:54:00      -68.248      -83.116       -1.673       32.924       33.866       13.036     1083.989     1146.917      169.947        0.698        0.120      107.546        8.991        0.007      348.029       27.426      862.270
07/19/2014  21:55:00      -56.658      -46.166        4.178       60.039       28.578       22.391     3604.648      816.719      501.378        0.514        0.246       73.085       24.025        0.108      347.976       27.335      862.260
07/19/2014  21:56:00     -104.402      -19.212      -12.018       22.714       30.978       15.810      515.945      959.656      249.972        0.657        0.086      106.155       11.427        0.012      347.949       27.290      862.251
07/19/2014  21:57:00     -164.146       46.115      -13.274       66.696       64.720       34.798     4448.359     4188.683     1210.913        1.955        0.492      170.500       30.432        0.032      348.266       27.835      862.228
07/19/2014  21:58:00      -31.933      -58.090       -3.162       42.027       44.304       26.342     1766.264     1962.863      693.875        0.441        0.221       66.288       24.496        0.137      348.148       27.633      862.227
07/19/2014  21:59:00      -23.690      -48.490       10.761       54.795       27.971       30.702     3002.518      782.384      942.591        0.388        0.236       53.967       32.898        0.372      348.030       27.429      862.239
07/19/2014  22:00:00      -39.441     -122.707        4.341       41.443       74.985       29.480     1717.481     5622.704      869.079        1.242        0.410      128.890       26.129        0.041      347.996       27.368      862.255
07/19/2014  22:01:00      -23.355     -107.673       -0.341       41.196       32.642       26.982     1697.144     1065.507      728.025        0.781        0.175      110.177       26.515        0.058      348.017       27.404      862.260
07/19/2014  22:02:00      -24.652      -64.903        4.949       24.377       28.244       21.841      594.236      797.714      477.037        0.336        0.093       69.427       19.300        0.077      347.941       27.277      862.268
07/19/2014  22:03:00      -52.444      -82.192        1.410       44.450       45.695       22.413     1975.795     2088.002      502.326        0.704        0.228       97.498       16.691        0.029      348.027       27.422      862.282
07/19/2014  22:04:00     -153.391     -127.293       -4.742      101.843       79.196       39.719    10371.990     6272.016     1577.565        2.898        0.911      199.329       39.418        0.039      348.076       27.507      862.296
07/19/2014  22:05:00     -195.909     -102.980       -1.977       65.749       58.587       30.423     4322.956     3432.490      925.540        2.883        0.434      221.326       29.457        0.018      347.990       27.355      862.317
07/19/2014  22:06:00      -90.741      -79.475       -0.405       40.143       47.502       26.164     1611.496     2256.457      684.577        0.955        0.228      120.624       19.354        0.026      347.994       27.367      862.321
07/19/2014  22:07:00      -12.092      -88.050        2.991       40.057       39.704       26.722     1604.526     1576.440      714.086        0.590        0.195       88.877       25.294        0.081      348.007       27.389      862.332
07/19/2014  22:08:00     -147.389     -113.934       -3.749       75.625       69.164       33.829     5719.093     4783.624     1144.406        2.318        0.582      186.292       34.136        0.034      348.020       27.409      862.317
07/19/2014  22:09:00      -57.175      -64.749       -2.452       60.857       30.628       29.415     3703.598      938.067      865.231        0.649        0.275       86.379       23.229        0.072      347.985       27.351      862.324
07/19/2014  22:10:00     -103.890      -86.861        7.962       78.997       64.559       31.030     6240.529     4167.867      962.837        1.488        0.569      135.418       31.478        0.054      347.950       27.290      862.311
07/19/2014  22:11:00     -170.353     -112.527       14.449       98.526       72.452       47.378     9707.430     5249.298     2244.639        2.954        0.860      204.163       52.759        0.067      347.944       27.278      862.300
07/19/2014  22:12:00     -188.534     -149.733        5.573      117.402       83.143       48.079    13783.319     6912.775     2311.545        4.050        1.150      240.759       58.373        0.059      347.968       27.320      862.293
07/19/2014  22:13:00     -201.809     -146.079       -0.905      103.176       66.509       49.099    10645.311     4423.484     2410.686        3.977        0.874      249.130       48.557        0.038      347.945       27.278      862.275
07/19/2014  22:14:00     -229.889      -97.638        9.375      136.677       70.856       48.705    18680.611     5020.593     2372.213        4.427        1.304      249.764       62.584        0.063      347.935       27.262      862.247
07/19/2014  22:15:00     -227.562     -113.319       -0.946       85.786       81.626       54.208     7359.278     6662.873     2938.473        4.079        0.848      254.216       49.457        0.038      347.961       27.305      862.239
07/19/2014  22:16:00     -208.530     -113.947      -14.176       86.784       79.350       42.380     7531.439     6296.438     1796.081        3.614        0.781      237.631       39.816        0.028      347.979       27.338      862.216
07/19/2014  22:17:00     -203.382      -85.297       -1.090       87.207       81.078       40.989     7605.081     6573.641     1680.090        3.225        0.793      220.544       43.372        0.039      347.976       27.331      862.194
07/19/2014  22:18:00     -249.732      -99.323       -8.816       94.473       67.003       49.928     8925.228     4489.458     2492.828        4.410        0.795      268.758       49.213        0.034      347.996       27.366      862.188
07/19/2014  22:19:00     -138.124      -69.631       -1.161       79.195       71.365       37.788     6271.891     5092.937     1427.903        1.836        0.640      154.683       43.884        0.080      347.965       27.316      862.182
07/19/2014  22:20:00     -250.762     -105.549      -15.770      101.215       92.071       43.009    10244.422     8477.128     1849.816        4.742        1.029      272.070       51.011        0.035      347.992       27.361      862.178
07/19/2014  22:21:00     -205.533     -114.162       -2.661       98.071       76.148       52.145     9617.942     5798.509     2719.150        3.671        0.907      235.110       49.092        0.044      347.987       27.350      862.176
07/19/2014  22:22:00     -178.606     -100.419        0.029      121.267       80.044       48.391    14705.721     6407.089     2341.668        3.271        1.173      204.900       50.355        0.060      347.975       27.330      862.171
07/19/2014  22:23:00     -182.932      -71.427       -3.693       71.957       86.157       50.649     5177.801     7423.045     2565.293        2.687        0.758      196.382       47.511        0.059      347.947       27.282      862.159
07/19/2014  22:24:00     -174.528      -66.237        1.193       95.887       65.470       45.748     9194.256     4286.352     2092.840        2.521        0.779      186.674       45.083        0.058      347.967       27.316      862.158
07/19/2014  22:25:00     -110.533      -70.624       12.640       76.427       62.396       43.098     5841.062     3893.257     1857.454        1.448        0.580      131.169       41.963        0.102      347.919       27.237      862.156
07/19/2014  22:26:00     -125.309      -87.247       -0.539       68.436       60.560       40.076     4683.482     3667.563     1606.115        1.663        0.498      152.690       37.691        0.061      347.936       27.264      862.148
07/19/2014  22:27:00      -95.057      -13.047        0.228      102.525       35.519       29.429    10511.364     1261.624      866.081        1.092        0.632       95.948       46.311        0.233      347.880       27.169      862.129
07/19/2014  22:28:00     -144.776      -97.355        1.118      111.460       87.611       45.842    12423.369     7675.640     2101.535        2.632        1.110      174.465       43.439        0.062      347.944       27.277      862.110
07/19/2014  22:29:00     -152.653     -106.650       -9.111       97.954       88.193       42.105     9594.977     7777.918     1772.867        2.695        0.957      186.219       45.491        0.060      347.930       27.251      862.085
07/19/2014  22:30:00     -205.863      -83.267      -12.500       77.249       64.661       41.541     5967.444     4181.041     1725.630        3.067        0.594      222.065       40.809        0.034      347.919       27.234      862.074
07/19/2014  22:31:00     -140.540      -89.480       -0.091       85.836       77.754       40.309     7367.750     6045.649     1624.807        2.140        0.752      166.608       36.691        0.048      347.901       27.203      862.070
07/19/2014  22:32:00     -237.851     -144.632      -12.756       75.925       84.312       44.775     5764.560     7108.516     2004.819        4.626        0.744      278.373       30.544        0.012      347.919       27.233      862.064
07/19/2014  22:33:00     -196.431      -76.063      -26.495       79.972       76.211       38.975     6395.481     5808.066     1519.019        2.939        0.686      210.644       22.489        0.011      347.923       27.239      862.057
07/19/2014  22:34:00     -123.450      -80.231        8.420       67.962       67.410       36.226     4618.813     4544.145     1312.353        1.611        0.524      147.230       32.018        0.047      347.901       27.203      862.047
07/19/2014  22:35:00      -54.354      -19.470       16.757       54.264       59.479       49.505     2944.618     3537.699     2450.702        0.627        0.447       57.736       41.003        0.504      347.863       27.140      862.039
07/19/2014  22:36:00     -149.347      -49.451       -1.076       71.163       65.496       29.642     5064.113     4289.670      878.654        1.749        0.512      157.321       25.282        0.026      347.875       27.161      862.029
07/19/2014  22:37:00     -194.821      -54.465       -9.922      111.453      106.331       50.939    12421.688    11306.283     2594.767        3.367        1.316      202.291       53.667        0.070      347.854       27.120      862.025
07/19/2014  22:38:00     -161.327      -18.359        1.802       63.880       51.634       41.395     4080.685     2666.058     1713.563        1.741        0.423      162.369       32.276        0.040      347.857       27.129      862.010
07/19/2014  22:39:00     -165.591      -77.419       -0.639       92.864       82.688       47.796     8623.775     6837.250     2284.428        2.558        0.887      182.795       46.990        0.066      347.875       27.159      861.998
07/19/2014  22:40:00     -118.064      -69.545       16.153      100.936       66.775       45.892    10188.098     4458.886     2106.102        1.789        0.838      137.024       46.771        0.117      347.827       27.076      861.986
07/19/2014  22:41:00     -186.210     -116.775        1.311      124.186       88.236       59.561    15422.106     7785.609     3547.464        3.753        1.338      219.797       66.593        0.092      347.863       27.137      861.968
07/19/2014  22:42:00     -251.119      -53.967        6.823      130.162      100.277       58.111    16942.172    10055.461     3376.946        4.819        1.519      256.852       69.295        0.073      347.845       27.105      861.965
07/19/2014  22:43:00     -235.703     -102.206       -0.605      116.957       99.161       53.137    13678.849     9832.992     2823.583        4.616        1.317      256.909       58.592        0.052      347.838       27.092      861.958
07/19/2014  22:44:00     -165.695      -57.814        4.493      138.848       80.317       62.094    19278.640     6450.756     3855.689        3.020        1.479      175.491       77.244        0.194      347.837       27.094      861.953
07/19/2014  22:45:00     -165.466      -30.875        5.385       78.576       81.402       35.051     6174.251     6626.213     1228.555        2.119        0.701      168.322       31.791        0.036      347.826       27.074      861.948
07/19/2014  22:46:00     -173.546       -9.639        0.616      105.566       61.912       46.702    11144.247     3833.152     2181.094        2.368        0.858      173.813       48.537        0.078      347.799       27.027      861.935
07/19/2014  22:47:00     -225.535      -49.373       -6.707      120.636      108.757       52.851    14552.984    11828.003     2793.236        4.126        1.459      230.876       60.836        0.069      347.802       27.032      861.929
07/19/2014  22:48:00     -229.336     -145.382       -1.289      141.065      107.944       69.795    19899.377    11651.893     4871.302        5.507        1.821      271.534       77.268        0.081      347.794       27.019      861.921
07/19/2014  22:49:00     -282.692      -51.326      -20.661      125.323       76.537       53.255    15705.810     5857.850     2836.142        5.368        1.220      287.313       63.626        0.049      347.782       26.998      861.926
07/19/2014  22:50:00     -357.967      -81.407      -17.620      156.181      111.044       62.558    24392.579    12330.861     3913.465        8.785        2.032      367.107       70.846        0.037      347.797       27.022      861.900
07/19/2014  22:51:00     -271.034      -70.407      -12.106      121.326      109.985       56.412    14719.923    12096.597     3182.344        5.428        1.500      280.029       51.343        0.034      347.754       26.949      861.890
07/19/2014  22:52:00     -256.389      -73.852       -8.990      141.669      100.810       66.250    20070.021    10162.712     4388.998        5.294        1.731      266.813       62.949        0.056      347.771       26.977      861.862
07/19/2014  22:53:00     -248.154      -32.007       -6.388      148.499       93.760       59.293    22052.037     8791.004     3515.710        4.850        1.718      250.209       66.410        0.070      347.750       26.943      861.865
07/19/2014  22:54:00     -191.499      -75.443        4.334      152.663      109.966       63.246    23305.913    12092.494     4000.016        4.088        1.970      205.824       76.398        0.138      347.722       26.896      861.856
07/19/2014  22:55:00     -275.011      -53.959        1.068      146.744      106.741       62.193    21533.918    11393.627     3868.021        5.766        1.840      280.255       65.768        0.055      347.725       26.900      861.837
07/19/2014  22:56:00     -156.589      -44.181        1.167      164.500      115.176       62.070    27060.385    13265.486     3852.677        3.532        2.209      162.702       73.155        0.202      347.667       26.799      861.803
07/19/2014  22:57:00     -207.583      -27.838       -7.339      123.347       97.069       52.866    15214.471     9422.485     2794.860        3.567        1.372      209.441       52.730        0.063      347.695       26.847      861.804
07/19/2014  22:58:00     -328.246      -46.766      -12.794      158.854      103.296       72.646    25234.442    10669.969     5277.496        7.563        2.059      331.560       78.788        0.056      347.697       26.851      861.796
07/19/2014  22:59:00     -214.139      -71.854       -7.892      126.834      104.572       62.439    16086.769    10935.360     3898.688        4.099        1.546      225.873       38.469        0.029      347.679       26.819      861.771
07/19/2014  23:00:00     -309.521      -94.119      -24.516      129.476       97.382       54.148    16764.130     9483.188     2932.053        6.722        1.459      323.514       53.362        0.027      347.699       26.854      861.768
07/19/2014  23:01:00     -329.041      -13.328       -6.645      157.289      101.838       62.772    24739.871    10370.891     3940.364        7.376        1.953      329.311       76.140        0.053      347.700       26.854      861.759
07/19/2014  23:02:00     -380.383       35.992      -15.164      121.954       96.592       66.723    14872.781     9330.061     4452.004        8.743        1.433      382.082       55.132        0.021      347.683       26.825      861.778
07/19/2014  23:03:00     -382.515        1.264      -27.156       93.036      101.391       58.759     8655.731    10280.117     3452.576        8.472        1.119      382.517       53.681        0.020      347.668       26.800      861.772
07/19/2014  23:04:00     -317.568     -125.446      -20.603      168.860      108.113       65.596    28513.763    11688.495     4302.834        8.075        2.225      341.447       68.482        0.040      347.655       26.777      861.771
07/19/2014  23:05:00     -319.764      -48.445      -16.628      108.194      120.878       51.926    11705.965    14611.374     2696.262        6.694        1.451      323.413       50.527        0.024      347.641       26.753      861.772
07/19/2014  23:06:00     -225.834      -39.584        1.173      146.680       89.285       52.034    21514.952     7971.760     2707.511        4.238        1.610      229.277       58.915        0.066      347.603       26.689      861.775
07/19/2014  23:07:00     -325.105     -109.026       -5.404      168.186      123.101       68.068    28286.651    15153.886     4633.207        8.283        2.404      342.899       70.862        0.043      347.620       26.719      861.795
07/19/2014  23:08:00     -388.430       -6.184      -20.504      126.921      127.273       65.810    16108.871    16198.534     4330.894        9.398        1.832      388.479       66.062        0.029      347.622       26.720      861.792
07/19/2014  23:09:00     -266.544      -33.627       -9.739      152.651       73.945       52.764    23302.321     5467.838     2783.995        5.191        1.578      268.657       66.472        0.061      347.587       26.663      861.805
07/19/2014  23:10:00     -303.316      -59.037       -7.212      151.821      111.115       51.303    23049.596    12346.467     2632.041        6.678        1.901      309.008       56.636        0.034      347.580       26.651      861.807
07/19/2014  23:11:00     -184.914      -72.233        6.909      130.311       93.512       65.426    16981.078     8744.555     4280.573        3.473        1.500      198.522       70.130        0.125      347.568       26.629      861.820
07/19/2014  23:12:00     -271.100      -25.581      -16.326      171.821      155.844       66.748    29522.395    24287.439     4455.348        6.633        2.913      272.304       38.266        0.020      347.591       26.669      861.834
07/19/2014  23:13:00     -172.679      -17.174      -13.648       93.540       80.748       44.269     8749.779     6520.166     1959.708        2.376        0.861      173.531       47.646        0.075      347.579       26.648      861.834
07/19/2014  23:14:00     -151.784      -84.136       -6.226       80.580      102.173       46.620     6493.085    10439.265     2173.427        2.463        0.955      173.543       52.595        0.092      347.598       26.683      861.837
07/19/2014  23:15:00     -136.945       12.930       -8.502      104.922       74.225       40.178    11008.526     5509.286     1614.267        1.856        0.907      137.554       29.297        0.045      347.564       26.625      861.846
07/19/2014  23:16:00     -232.705      -97.449      -25.727      120.228       85.876       44.513    14454.861     7374.625     1981.442        4.406        1.191      252.285       50.500        0.040      347.597       26.680      861.864
07/19/2014  23:17:00     -124.924      -65.518       -0.552       79.905       66.233       33.420     6384.764     4386.800     1116.909        1.589        0.594      141.062       34.522        0.060      347.568       26.631      861.869
07/19/2014  23:18:00      -79.930      -62.064        6.335       85.758       56.631       34.205     7354.483     3207.048     1169.952        1.100        0.587      101.196       27.355        0.073      347.579       26.648      861.861
07/19/2014  23:19:00     -200.513      -69.962       -2.551      118.918       82.217       52.082    14141.487     6759.640     2712.516        3.436        1.181      212.368       60.900        0.082      347.604       26.691      861.866
07/19/2014  23:20:00     -192.423      -89.016        2.120       94.507       79.250       47.051     8931.490     6280.538     2213.815        3.119        0.871      212.015       42.906        0.041      347.611       26.703      861.866
07/19/2014  23:21:00     -153.111     -167.514        9.555      151.353      109.102       68.267    22907.870    11903.298     4660.337        4.553        1.974      226.945       72.751        0.103      347.608       26.697      861.854
07/19/2014  23:22:00     -128.022     -183.625       -9.756       98.925       72.072       49.779     9786.146     5194.341     2477.974        3.383        0.873      223.847       43.041        0.037      347.625       26.727      861.852
07/19/2014  23:23:00      -82.224      -87.256       14.413       93.634       76.677       41.636     8767.303     5879.315     1733.590        1.548        0.819      119.893       47.654        0.158      347.607       26.699      861.845
07/19/2014  23:24:00      -72.197      -96.885        3.680       69.586       52.246       32.615     4842.198     2729.658     1063.712        1.162        0.432      120.827       30.955        0.066      347.605       26.694      861.846
07/19/2014  23:25:00      -17.152     -147.250       -4.662       44.249       45.056       25.857     1957.975     2030.073      668.589        1.333        0.233      148.246       22.628        0.023      347.606       26.697      861.839
07/19/2014  23:26:00      -88.315      -60.657       11.667       69.961       52.382       30.855     4894.565     2743.900      952.059        1.010        0.430      107.139       33.179        0.096      347.570       26.634      861.825
07/19/2014  23:27:00     -122.292      -82.854        3.652       89.471       77.908       49.333     8004.972     6069.618     2433.756        1.917        0.825      147.717       55.897        0.143      347.600       26.686      861.808
07/19/2014  23:28:00      -18.494     -137.888       -0.599       58.213       58.708       30.743     3388.704     3446.655      945.124        1.357        0.389      139.123       23.779        0.029      347.606       26.698      861.800
07/19/2014  23:29:00      -78.703      -83.595        7.136       59.689       54.821       32.182     3562.726     3005.290     1035.696        1.042        0.380      114.814       33.908        0.087      347.610       26.705      861.811
07/19/2014  23:30:00     -115.851      -84.801       -3.570       90.586       55.954       31.189     8205.908     3130.900      972.757        1.647        0.615      143.572       31.259        0.047      347.632       26.742      861.812
07/19/2014  23:31:00      -66.247     -146.748       -1.950       54.636       55.481       21.520     2985.133     3078.092      463.106        1.623        0.326      161.008       18.494        0.013      347.621       26.722      861.823
07/19/2014  23:32:00      -91.851     -155.857      -13.364       35.508       47.333       34.138     1260.813     2240.396     1165.390        1.879        0.233      180.909       27.400        0.023      347.589       26.667      861.807
07/19/2014  23:33:00      -28.722     -106.169        5.211       48.120       55.995       31.355     2315.569     3135.457      983.154        0.928        0.322      109.985       28.405        0.067      347.602       26.690      861.804
07/19/2014  23:34:00      -51.845      -98.783        0.149       50.904       29.846       28.642     2591.172      890.767      820.356        0.837        0.215      111.562       22.781        0.042      347.560       26.618      861.806
07/19/2014  23:35:00      -39.789      -78.228        6.996       33.592       30.734       18.911     1128.396      944.589      357.634        0.509        0.122       87.765       18.894        0.046      347.575       26.642      861.809
07/19/2014  23:36:00      -14.750       -5.635       20.800       25.800       37.846       18.163      665.657     1432.342      329.886        0.155        0.121       15.789       19.106        1.464      347.441       26.412      861.793
07/19/2014  23:37:00       33.568      -69.281        4.474       51.936       74.125       55.344     2697.377     5494.487     3062.966        0.860        0.563       76.985       38.253        0.247      347.508       26.527      861.778
07/19/2014  23:38:00      -27.073      -80.052      -13.536       63.883       43.188       32.615     4081.062     1865.164     1063.729        0.717        0.350       84.506       16.976        0.040      347.586       26.660      861.787
07/19/2014  23:39:00      -29.440      -89.621        0.588       47.812       45.662       34.147     2286.003     2085.016     1166.041        0.722        0.277       94.333       30.933        0.108      347.552       26.602      861.798
07/19/2014  23:40:00      -54.397       -5.881        2.054       26.419       34.436       15.725      697.939     1185.859      247.261        0.256        0.107       54.714       15.516        0.080      347.536       26.574      861.805
07/19/2014  23:41:00      -24.150      -44.247      -10.738       26.264       24.377       16.724      689.803      594.242      279.704        0.211        0.078       50.409       12.128        0.058      347.530       26.563      861.825
07/19/2014  23:42:00       33.964      -31.278       11.829       40.986       49.626       24.091     1679.833     2462.724      580.400        0.350        0.236       46.172       27.738        0.361      347.432       26.397      861.821
07/19/2014  23:43:00       19.980       -6.279       29.382       34.878       37.805       35.347     1216.483     1429.205     1249.407        0.260        0.195       20.943       31.001        2.191      347.244       26.074      861.815
07/19/2014  23:44:00        1.764       10.989       46.225       23.344       38.141       22.167      544.926     1454.748      491.394        0.238        0.125       11.129       13.165        1.399      347.316       26.197      861.817
07/19/2014  23:45:00       12.733      -14.990       41.005       33.016       61.650       37.778     1090.037     3800.732     1427.184        0.419        0.316       19.668       30.495        2.404      347.353       26.259      861.809
07/19/2014  23:46:00       31.149      -65.413       22.514       35.299       71.895       41.943     1246.048     5168.858     1759.217        0.696        0.409       72.451       47.490        0.430      347.508       26.527      861.814
07/19/2014  23:47:00       42.866      -76.285       -9.164       28.665       45.997       30.222      821.685     2115.737      913.357        0.580        0.193       87.504       24.383        0.078      347.471       26.464      861.824
07/19/2014  23:48:00       34.918      -75.484        3.672       32.590       43.998       27.650     1062.140     1935.862      764.543        0.535        0.188       83.169       24.964        0.090      347.524       26.556      861.829
07/19/2014  23:49:00       57.047      -45.032       20.449       73.664       61.883       34.065     5426.317     3829.467     1160.439        0.806        0.521       72.679       41.198        0.321      347.539       26.582      861.813
07/19/2014  23:50:00       50.539      -42.564       27.533       64.215       62.657       35.808     4123.558     3925.922     1282.222        0.723        0.467       66.075       42.044        0.405      347.482       26.483      861.790
07/19/2014  23:51:00      -15.385      -36.921        6.463       38.773       29.650       29.634     1503.369      879.140      878.147        0.245        0.163       39.999       22.367        0.313      347.500       26.512      861.793
07/19/2014  23:52:00       10.997      -60.977        1.231       18.008       29.179       18.803      324.296      851.427      353.561        0.268        0.076       61.961       14.039        0.051      347.540       26.580      861.787
07/19/2014  23:53:00      -16.574      -87.162       -4.221       44.627       45.351       31.487     1991.611     2056.756      991.438        0.646        0.252       88.723       16.441        0.034      347.575       26.642      861.764
07/19/2014  23:54:00       11.321     -145.225      -13.340       62.138       54.765       33.336     3861.163     2999.186     1111.257        1.468        0.399      145.665       19.652        0.018      347.695       26.849      861.745
07/19/2014  23:55:00      -43.134     -114.145      -14.165       49.339       55.822       34.874     2434.318     3116.069     1216.201        1.093        0.338      122.023       26.383        0.047      347.691       26.845      861.726
07/19/2014  23:56:00       13.811     -151.691       -4.887       74.597       85.194       54.534     5564.694     7257.950     2973.909        1.951        0.790      152.319       26.800        0.031      347.689       26.839      861.713
07/19/2014  23:57:00       -0.655     -100.515      -19.564       83.688       91.040       39.869     7003.657     8288.238     1589.532        1.368        0.844      100.517       26.567        0.070      347.677       26.819      861.706
07/19/2014  23:58:00      -83.102     -133.902       -1.351       56.167       43.013       28.375     3154.700     1850.113      805.127        1.532        0.290      157.594       28.677        0.033      347.705       26.868      861.715
07/19/2014  23:59:00      -70.421     -141.114        4.023       59.294       62.279       33.110     3515.813     3878.707     1096.281        1.669        0.425      157.710       26.722        0.029      347.688       26.838      861.699
